Wetterdaten: Mittwoch, 10.02.2016
Datum Zeit Temp. A. Feuchte A. Luftdruck Regen Wind Richtung Richtung Sonnenschein ET UV Solar Taupunkt Windchill Windben Empfang
10.02.2016 00:00 8,8 C 74 % 992,8 hPa 0,0 l/m 24,8 km/h (4 Bft) W-SW 240 0 min 0,000 mm 0,0 UV-I 0 W/m 4,4 C 0,3 C 40,2 km/h (6 Bft) 96,15 %
10.02.2016 00:01 8,4 C 76 % 993,0 hPa 0,2 l/m 29,5 km/h (5 Bft) W 267 0 min 0,000 mm 0,0 UV-I 0 W/m 4,4 C -1,5 C 46,7 km/h (6 Bft) 100,00 %
10.02.2016 00:02 8,1 C 77 % 993,0 hPa 0,0 l/m 28,7 km/h (4 Bft) W-SW 244 0 min 0,000 mm 0,0 UV-I 0 W/m 4,3 C -1,7 C 45,1 km/h (6 Bft) 100,00 %
10.02.2016 00:03 7,8 C 78 % 993,2 hPa 0,2 l/m 31,2 km/h (5 Bft) SW 232 0 min 0,000 mm 0,0 UV-I 0 W/m 4,2 C -2,7 C 48,3 km/h (6 Bft) 100,00 %
10.02.2016 00:04 7,6 C 79 % 993,3 hPa 0,0 l/m 33,2 km/h (5 Bft) W-SW 258 0 min 0,000 mm 0,0 UV-I 0 W/m 4,2 C -3,4 C 46,7 km/h (6 Bft) 100,00 %
10.02.2016 00:05 7,3 C 80 % 993,4 hPa 0,2 l/m 27,8 km/h (4 Bft) W-SW 257 0 min 0,000 mm 0,0 UV-I 0 W/m 4,1 C -2,6 C 40,2 km/h (6 Bft) 96,15 %
10.02.2016 00:06 7,2 C 81 % 993,5 hPa 0,0 l/m 25,2 km/h (4 Bft) W 264 0 min 0,000 mm 0,0 UV-I 0 W/m 4,2 C -2,0 C 41,8 km/h (6 Bft) 100,00 %
10.02.2016 00:07 7,0 C 82 % 993,6 hPa 0,0 l/m 32,5 km/h (5 Bft) W 275 0 min 0,000 mm 0,0 UV-I 0 W/m 4,1 C -4,1 C 56,3 km/h (7 Bft) 100,00 %
10.02.2016 00:08 6,8 C 81 % 993,6 hPa 0,0 l/m 19,9 km/h (4 Bft) W 273 0 min 0,000 mm 0,0 UV-I 0 W/m 3,8 C -0,8 C 29,0 km/h (5 Bft) 95,83 %
10.02.2016 00:09 6,7 C 82 % 993,7 hPa 0,0 l/m 26,0 km/h (4 Bft) W 280 0 min 0,000 mm 0,0 UV-I 0 W/m 3,8 C -2,9 C 41,8 km/h (6 Bft) 100,00 %
10.02.2016 00:10 6,6 C 82 % 993,9 hPa 0,0 l/m 26,3 km/h (4 Bft) W 263 0 min 0,000 mm 0,0 UV-I 0 W/m 3,8 C -3,2 C 37,0 km/h (5 Bft) 100,00 %
10.02.2016 00:11 6,4 C 82 % 993,9 hPa 0,0 l/m 30,3 km/h (5 Bft) W 271 0 min 0,000 mm 0,0 UV-I 0 W/m 3,6 C -4,5 C 49,9 km/h (6 Bft) 100,00 %
10.02.2016 00:12 6,3 C 82 % 993,9 hPa 0,0 l/m 33,1 km/h (5 Bft) W 265 0 min 0,000 mm 0,0 UV-I 0 W/m 3,5 C -5,3 C 53,1 km/h (7 Bft) 100,00 %
10.02.2016 00:13 6,2 C 82 % 994,1 hPa 0,2 l/m 30,3 km/h (5 Bft) NW 306 0 min 0,000 mm 0,0 UV-I 0 W/m 3,4 C -4,8 C 48,3 km/h (6 Bft) 100,00 %
10.02.2016 00:14 6,1 C 82 % 994,0 hPa 0,0 l/m 24,9 km/h (4 Bft) W 263 0 min 0,000 mm 0,0 UV-I 0 W/m 3,3 C -3,4 C 32,2 km/h (5 Bft) 100,00 %
10.02.2016 00:15 5,9 C 82 % 994,1 hPa 0,0 l/m 27,0 km/h (4 Bft) W-NW 286 0 min 0,000 mm 0,0 UV-I 0 W/m 3,1 C -4,3 C 38,6 km/h (5 Bft) 100,00 %
10.02.2016 00:16 5,8 C 83 % 994,1 hPa 0,0 l/m 18,9 km/h (3 Bft) W 269 0 min 0,000 mm 0,0 UV-I 0 W/m 3,1 C -1,7 C 25,7 km/h (4 Bft) 100,00 %
10.02.2016 00:17 5,8 C 84 % 994,1 hPa 0,0 l/m 27,6 km/h (4 Bft) W 273 0 min 0,000 mm 0,0 UV-I 0 W/m 3,3 C -4,6 C 43,5 km/h (6 Bft) 100,00 %
10.02.2016 00:18 5,7 C 83 % 994,0 hPa 0,0 l/m 27,0 km/h (4 Bft) NW 321 0 min 0,000 mm 0,0 UV-I 0 W/m 3,0 C -4,6 C 37,0 km/h (5 Bft) 96,30 %
10.02.2016 00:19 5,6 C 84 % 994,1 hPa 0,0 l/m 27,1 km/h (4 Bft) W 260 0 min 0,000 mm 0,0 UV-I 0 W/m 3,1 C -4,8 C 43,5 km/h (6 Bft) 100,00 %
10.02.2016 00:20 5,6 C 84 % 994,1 hPa 0,0 l/m 20,6 km/h (4 Bft) W 271 0 min 0,000 mm 0,0 UV-I 0 W/m 3,1 C -2,6 C 27,4 km/h (4 Bft) 95,83 %
10.02.2016 00:21 5,5 C 84 % 994,2 hPa 0,0 l/m 27,1 km/h (4 Bft) W-SW 250 0 min 0,000 mm 0,0 UV-I 0 W/m 3,0 C -4,9 C 40,2 km/h (6 Bft) 100,00 %
10.02.2016 00:22 5,4 C 85 % 994,2 hPa 0,0 l/m 21,5 km/h (4 Bft) W-NW 298 0 min 0,000 mm 0,0 UV-I 0 W/m 3,1 C -3,2 C 25,7 km/h (4 Bft) 95,83 %
10.02.2016 00:23 5,4 C 85 % 994,2 hPa 0,0 l/m 19,1 km/h (3 Bft) W 273 0 min 0,000 mm 0,0 UV-I 0 W/m 3,1 C -2,3 C 27,4 km/h (4 Bft) 100,00 %
10.02.2016 00:24 5,3 C 85 % 994,2 hPa 0,0 l/m 18,5 km/h (3 Bft) W-SW 242 0 min 0,000 mm 0,0 UV-I 0 W/m 3,0 C -2,2 C 27,4 km/h (4 Bft) 100,00 %
10.02.2016 00:25 5,3 C 85 % 994,3 hPa 0,0 l/m 16,6 km/h (3 Bft) W-SW 251 0 min 0,000 mm 0,0 UV-I 0 W/m 3,0 C -1,3 C 32,2 km/h (5 Bft) 100,00 %
10.02.2016 00:26 5,3 C 86 % 994,3 hPa 0,0 l/m 15,3 km/h (3 Bft) W 264 0 min 0,000 mm 0,0 UV-I 0 W/m 3,2 C -0,7 C 19,3 km/h (3 Bft) 100,00 %
10.02.2016 00:27 5,3 C 86 % 994,3 hPa 0,0 l/m 15,4 km/h (3 Bft) W-SW 245 0 min 0,000 mm 0,0 UV-I 0 W/m 3,2 C -0,8 C 24,1 km/h (4 Bft) 100,00 %
10.02.2016 00:28 5,2 C 87 % 994,3 hPa 0,0 l/m 13,9 km/h (3 Bft) W-SW 237 0 min 0,000 mm 0,0 UV-I 0 W/m 3,2 C -0,1 C 19,3 km/h (3 Bft) 96,15 %
10.02.2016 00:29 5,2 C 87 % 994,3 hPa 0,0 l/m 18,7 km/h (3 Bft) W 259 0 min 0,000 mm 0,0 UV-I 0 W/m 3,2 C -2,4 C 27,4 km/h (4 Bft) 100,00 %
10.02.2016 00:30 5,2 C 87 % 994,3 hPa 0,2 l/m 28,2 km/h (4 Bft) W-SW 257 0 min 0,000 mm 0,0 UV-I 0 W/m 3,2 C -5,6 C 38,6 km/h (5 Bft) 100,00 %
10.02.2016 00:31 5,2 C 87 % 994,3 hPa 0,0 l/m 24,6 km/h (4 Bft) W-SW 250 0 min 0,000 mm 0,0 UV-I 0 W/m 3,2 C -4,5 C 35,4 km/h (5 Bft) 100,00 %
10.02.2016 00:32 5,1 C 86 % 994,3 hPa 0,0 l/m 22,9 km/h (4 Bft) W-SW 249 0 min 0,000 mm 0,0 UV-I 0 W/m 3,0 C -4,1 C 29,0 km/h (5 Bft) 96,55 %
10.02.2016 00:33 5,1 C 86 % 994,3 hPa 0,0 l/m 22,1 km/h (4 Bft) W 275 0 min 0,000 mm 0,0 UV-I 0 W/m 3,0 C -3,8 C 33,8 km/h (5 Bft) 100,00 %
10.02.2016 00:34 5,1 C 86 % 994,3 hPa 0,0 l/m 20,8 km/h (4 Bft) W-NW 303 0 min 0,000 mm 0,0 UV-I 0 W/m 3,0 C -3,4 C 27,4 km/h (4 Bft) 100,00 %
10.02.2016 00:35 5,1 C 87 % 994,4 hPa 0,0 l/m 21,8 km/h (4 Bft) SW 226 0 min 0,000 mm 0,0 UV-I 0 W/m 3,1 C -3,7 C 30,6 km/h (5 Bft) 100,00 %
10.02.2016 00:36 5,1 C 86 % 994,4 hPa 0,0 l/m 24,1 km/h (4 Bft) W-SW 246 0 min 0,000 mm 0,0 UV-I 0 W/m 3,0 C -4,5 C 35,4 km/h (5 Bft) 100,00 %
10.02.2016 00:37 5,1 C 86 % 994,4 hPa 0,0 l/m 20,8 km/h (4 Bft) W-SW 238 0 min 0,000 mm 0,0 UV-I 0 W/m 3,0 C -3,4 C 25,7 km/h (4 Bft) 100,00 %
10.02.2016 00:38 5,0 C 87 % 994,4 hPa 0,0 l/m 15,1 km/h (3 Bft) W 269 0 min 0,000 mm 0,0 UV-I 0 W/m 3,0 C -1,0 C 19,3 km/h (3 Bft) 100,00 %
10.02.2016 00:39 4,9 C 87 % 994,4 hPa 0,0 l/m 18,0 km/h (3 Bft) W 269 0 min 0,000 mm 0,0 UV-I 0 W/m 2,9 C -2,5 C 25,7 km/h (4 Bft) 100,00 %
10.02.2016 00:40 4,9 C 88 % 994,5 hPa 0,0 l/m 14,2 km/h (3 Bft) W 269 0 min 0,000 mm 0,0 UV-I 0 W/m 3,1 C -0,6 C 19,3 km/h (3 Bft) 100,00 %
10.02.2016 00:41 4,9 C 88 % 994,5 hPa 0,0 l/m 12,4 km/h (3 Bft) W-SW 254 0 min 0,000 mm 0,0 UV-I 0 W/m 3,1 C 0,4 C 14,5 km/h (3 Bft) 100,00 %
10.02.2016 00:42 4,9 C 88 % 994,5 hPa 0,0 l/m 26,3 km/h (4 Bft) W-SW 248 0 min 0,000 mm 0,0 UV-I 0 W/m 3,1 C -5,5 C 43,5 km/h (6 Bft) 100,00 %
10.02.2016 00:43 4,9 C 87 % 994,4 hPa 0,0 l/m 16,3 km/h (3 Bft) W-SW 237 0 min 0,000 mm 0,0 UV-I 0 W/m 2,9 C -1,7 C 29,0 km/h (5 Bft) 100,00 %
10.02.2016 00:44 4,9 C 87 % 994,4 hPa 0,0 l/m 20,1 km/h (4 Bft) W 265 0 min 0,000 mm 0,0 UV-I 0 W/m 2,9 C -3,3 C 25,7 km/h (4 Bft) 100,00 %
10.02.2016 00:45 4,9 C 87 % 994,4 hPa 0,0 l/m 21,8 km/h (4 Bft) W-NW 296 0 min 0,000 mm 0,0 UV-I 0 W/m 2,9 C -4,0 C 29,0 km/h (5 Bft) 92,86 %
10.02.2016 00:46 4,8 C 88 % 994,4 hPa 0,0 l/m 21,5 km/h (4 Bft) SW 229 0 min 0,000 mm 0,0 UV-I 0 W/m 3,0 C -4,0 C 29,0 km/h (5 Bft) 97,62 %
10.02.2016 00:47 4,8 C 88 % 994,5 hPa 0,0 l/m 20,7 km/h (4 Bft) W-SW 247 0 min 0,000 mm 0,0 UV-I 0 W/m 3,0 C -3,7 C 25,7 km/h (4 Bft) 96,15 %
10.02.2016 00:48 4,8 C 88 % 994,5 hPa 0,0 l/m 18,7 km/h (3 Bft) SW 232 0 min 0,000 mm 0,0 UV-I 0 W/m 3,0 C -2,9 C 25,7 km/h (4 Bft) 99,09 %
10.02.2016 00:49 4,8 C 88 % 994,5 hPa 0,2 l/m 18,4 km/h (3 Bft) W-SW 257 0 min 0,000 mm 0,0 UV-I 0 W/m 3,0 C -2,8 C 24,1 km/h (4 Bft) 100,00 %
10.02.2016 00:50 4,8 C 88 % 994,5 hPa 0,0 l/m 15,5 km/h (3 Bft) SW 234 0 min 0,000 mm 0,0 UV-I 0 W/m 3,0 C -1,4 C 20,9 km/h (4 Bft) 100,00 %
10.02.2016 00:51 4,8 C 88 % 994,5 hPa 0,0 l/m 26,3 km/h (4 Bft) SW 227 0 min 0,000 mm 0,0 UV-I 0 W/m 3,0 C -5,6 C 35,4 km/h (5 Bft) 100,00 %
10.02.2016 00:52 4,8 C 88 % 994,5 hPa 0,0 l/m 21,0 km/h (4 Bft) W-SW 240 0 min 0,000 mm 0,0 UV-I 0 W/m 3,0 C -3,8 C 29,0 km/h (5 Bft) 100,00 %
10.02.2016 00:53 4,8 C 88 % 994,6 hPa 0,0 l/m 16,7 km/h (3 Bft) W 264 0 min 0,000 mm 0,0 UV-I 0 W/m 3,0 C -2,0 C 25,7 km/h (4 Bft) 100,00 %
10.02.2016 00:54 4,8 C 88 % 994,6 hPa 0,0 l/m 12,6 km/h (3 Bft) W-SW 258 0 min 0,000 mm 0,0 UV-I 0 W/m 3,0 C 0,2 C 16,1 km/h (3 Bft) 100,00 %
10.02.2016 00:55 4,8 C 88 % 994,6 hPa 0,0 l/m 18,6 km/h (3 Bft) W 269 0 min 0,000 mm 0,0 UV-I 0 W/m 3,0 C -2,9 C 24,1 km/h (4 Bft) 95,65 %
10.02.2016 00:56 4,8 C 88 % 994,6 hPa 0,0 l/m 17,8 km/h (3 Bft) W-SW 255 0 min 0,000 mm 0,0 UV-I 0 W/m 3,0 C -2,5 C 30,6 km/h (5 Bft) 100,00 %
10.02.2016 00:57 4,8 C 88 % 994,6 hPa 0,0 l/m 14,2 km/h (3 Bft) W 259 0 min 0,000 mm 0,0 UV-I 0 W/m 3,0 C -0,7 C 27,4 km/h (4 Bft) 100,00 %
10.02.2016 00:58 4,8 C 88 % 994,6 hPa 0,0 l/m 12,2 km/h (2 Bft) W 259 0 min 0,000 mm 0,0 UV-I 0 W/m 3,0 C 0,4 C 17,7 km/h (3 Bft) 100,00 %
10.02.2016 00:59 4,7 C 88 % 994,5 hPa 0,0 l/m 16,9 km/h (3 Bft) W-SW 245 0 min 0,000 mm 0,0 UV-I 0 W/m 2,9 C -2,2 C 22,5 km/h (4 Bft) 95,65 %
10.02.2016 01:00 4,7 C 88 % 994,5 hPa 0,0 l/m 17,5 km/h (3 Bft) W-SW 252 0 min 0,000 mm 0,0 UV-I 0 W/m 2,9 C -2,5 C 24,1 km/h (4 Bft) 100,00 %
10.02.2016 01:01 4,7 C 88 % 994,6 hPa 0,0 l/m 20,4 km/h (4 Bft) W-SW 250 0 min 0,025 mm 0,0 UV-I 0 W/m 2,9 C -3,7 C 27,4 km/h (4 Bft) 99,14 %
10.02.2016 01:02 4,7 C 88 % 994,6 hPa 0,0 l/m 20,4 km/h (4 Bft) W-SW 238 0 min 0,000 mm 0,0 UV-I 0 W/m 2,9 C -3,7 C 32,2 km/h (5 Bft) 100,00 %
10.02.2016 01:03 4,7 C 89 % 994,5 hPa 0,0 l/m 14,4 km/h (3 Bft) W 272 0 min 0,000 mm 0,0 UV-I 0 W/m 3,0 C -1,0 C 20,9 km/h (4 Bft) 100,00 %
10.02.2016 01:04 4,7 C 88 % 994,6 hPa 0,0 l/m 16,2 km/h (3 Bft) SW 223 0 min 0,000 mm 0,0 UV-I 0 W/m 2,9 C -1,9 C 24,1 km/h (4 Bft) 100,00 %
10.02.2016 01:05 4,7 C 88 % 994,5 hPa 0,2 l/m 21,7 km/h (4 Bft) W 263 0 min 0,000 mm 0,0 UV-I 0 W/m 2,9 C -4,2 C 27,4 km/h (4 Bft) 100,00 %
10.02.2016 01:06 4,7 C 88 % 994,5 hPa 0,0 l/m 20,0 km/h (4 Bft) W 262 0 min 0,000 mm 0,0 UV-I 0 W/m 2,9 C -3,6 C 25,7 km/h (4 Bft) 100,00 %
10.02.2016 01:07 4,7 C 88 % 994,6 hPa 0,0 l/m 18,8 km/h (3 Bft) W 260 0 min 0,000 mm 0,0 UV-I 0 W/m 2,9 C -3,1 C 24,1 km/h (4 Bft) 100,00 %
10.02.2016 01:08 4,7 C 88 % 994,6 hPa 0,0 l/m 21,1 km/h (4 Bft) W-SW 240 0 min 0,000 mm 0,0 UV-I 0 W/m 2,9 C -4,0 C 29,0 km/h (5 Bft) 100,00 %
10.02.2016 01:09 4,7 C 88 % 994,6 hPa 0,0 l/m 22,1 km/h (4 Bft) W-SW 244 0 min 0,000 mm 0,0 UV-I 0 W/m 2,9 C -4,4 C 30,6 km/h (5 Bft) 100,00 %
10.02.2016 01:10 4,7 C 88 % 994,6 hPa 0,0 l/m 14,7 km/h (3 Bft) W-SW 252 0 min 0,000 mm 0,0 UV-I 0 W/m 2,9 C -1,1 C 20,9 km/h (4 Bft) 100,00 %
10.02.2016 01:11 4,7 C 88 % 994,6 hPa 0,0 l/m 16,8 km/h (3 Bft) SW 232 0 min 0,000 mm 0,0 UV-I 0 W/m 2,9 C -2,2 C 24,1 km/h (4 Bft) 100,00 %
10.02.2016 01:12 4,7 C 88 % 994,6 hPa 0,0 l/m 17,7 km/h (3 Bft) SW 234 0 min 0,000 mm 0,0 UV-I 0 W/m 2,9 C -2,6 C 22,5 km/h (4 Bft) 100,00 %
10.02.2016 01:13 4,7 C 88 % 994,6 hPa 0,0 l/m 15,9 km/h (3 Bft) W-SW 244 0 min 0,000 mm 0,0 UV-I 0 W/m 2,9 C -1,7 C 20,9 km/h (4 Bft) 100,00 %
10.02.2016 01:14 4,7 C 88 % 994,6 hPa 0,2 l/m 16,2 km/h (3 Bft) S-SW 213 0 min 0,000 mm 0,0 UV-I 0 W/m 2,9 C -1,9 C 25,7 km/h (4 Bft) 100,00 %
10.02.2016 01:15 4,7 C 88 % 994,6 hPa 0,0 l/m 25,2 km/h (4 Bft) SW 220 0 min 0,000 mm 0,0 UV-I 0 W/m 2,9 C -5,4 C 33,8 km/h (5 Bft) 91,67 %
10.02.2016 01:16 4,6 C 87 % 994,6 hPa 0,0 l/m 26,9 km/h (4 Bft) W 264 0 min 0,000 mm 0,0 UV-I 0 W/m 2,6 C -6,1 C 40,2 km/h (6 Bft) 100,00 %
10.02.2016 01:17 4,6 C 87 % 994,6 hPa 0,0 l/m 17,6 km/h (3 Bft) W-SW 253 0 min 0,000 mm 0,0 UV-I 0 W/m 2,6 C -2,7 C 22,5 km/h (4 Bft) 100,00 %
10.02.2016 01:18 4,6 C 87 % 994,7 hPa 0,0 l/m 23,5 km/h (4 Bft) W-SW 244 0 min 0,000 mm 0,0 UV-I 0 W/m 2,6 C -5,0 C 29,0 km/h (5 Bft) 100,00 %
10.02.2016 01:19 4,6 C 88 % 994,7 hPa 0,0 l/m 18,5 km/h (3 Bft) S-SW 194 0 min 0,000 mm 0,0 UV-I 0 W/m 2,8 C -3,1 C 24,1 km/h (4 Bft) 100,00 %
10.02.2016 01:20 4,6 C 88 % 994,7 hPa 0,2 l/m 14,1 km/h (3 Bft) W-SW 257 0 min 0,000 mm 0,0 UV-I 0 W/m 2,8 C -0,9 C 20,9 km/h (4 Bft) 95,65 %
10.02.2016 01:21 4,6 C 88 % 994,7 hPa 0,0 l/m 15,3 km/h (3 Bft) W-SW 247 0 min 0,000 mm 0,0 UV-I 0 W/m 2,8 C -1,6 C 24,1 km/h (4 Bft) 100,00 %
10.02.2016 01:22 4,5 C 88 % 994,8 hPa 0,0 l/m 17,1 km/h (3 Bft) W 259 0 min 0,000 mm 0,0 UV-I 0 W/m 2,7 C -2,6 C 24,1 km/h (4 Bft) 100,00 %
10.02.2016 01:23 4,5 C 88 % 994,8 hPa 0,0 l/m 19,9 km/h (4 Bft) W-SW 253 0 min 0,000 mm 0,0 UV-I 0 W/m 2,7 C -3,8 C 29,0 km/h (5 Bft) 100,00 %
10.02.2016 01:24 4,5 C 89 % 994,8 hPa 0,2 l/m 24,3 km/h (4 Bft) SW 230 0 min 0,000 mm 0,0 UV-I 0 W/m 2,8 C -5,4 C 32,2 km/h (5 Bft) 100,00 %
10.02.2016 01:25 4,4 C 88 % 994,8 hPa 0,0 l/m 21,8 km/h (4 Bft) W-SW 251 0 min 0,000 mm 0,0 UV-I 0 W/m 2,6 C -4,6 C 29,0 km/h (5 Bft) 100,00 %
10.02.2016 01:26 4,4 C 89 % 994,8 hPa 0,0 l/m 12,2 km/h (2 Bft) SW 227 0 min 0,000 mm 0,0 UV-I 0 W/m 2,7 C -0,1 C 19,3 km/h (3 Bft) 100,00 %
10.02.2016 01:27 4,4 C 89 % 994,8 hPa 0,0 l/m 10,8 km/h (2 Bft) W-SW 241 0 min 0,000 mm 0,0 UV-I 0 W/m 2,7 C 0,8 C 16,1 km/h (3 Bft) 96,15 %
10.02.2016 01:28 4,4 C 89 % 994,9 hPa 0,0 l/m 13,4 km/h (3 Bft) SW 236 0 min 0,000 mm 0,0 UV-I 0 W/m 2,7 C -0,8 C 20,9 km/h (4 Bft) 100,00 %
10.02.2016 01:29 4,4 C 90 % 994,8 hPa 0,0 l/m 13,3 km/h (3 Bft) W-SW 258 0 min 0,000 mm 0,0 UV-I 0 W/m 2,9 C -0,7 C 16,1 km/h (3 Bft) 94,12 %
10.02.2016 01:30 4,3 C 90 % 994,8 hPa 0,0 l/m 16,4 km/h (3 Bft) W 265 0 min 0,000 mm 0,0 UV-I 0 W/m 2,8 C -2,5 C 20,9 km/h (4 Bft) 100,00 %
10.02.2016 01:31 4,3 C 89 % 994,8 hPa 0,0 l/m 14,2 km/h (3 Bft) SW 218 0 min 0,000 mm 0,0 UV-I 0 W/m 2,7 C -1,3 C 19,3 km/h (3 Bft) 96,15 %
10.02.2016 01:32 4,3 C 90 % 994,8 hPa 0,2 l/m 10,3 km/h (2 Bft) W-SW 250 0 min 0,000 mm 0,0 UV-I 0 W/m 2,8 C 1,1 C 16,1 km/h (3 Bft) 100,00 %
10.02.2016 01:33 4,3 C 90 % 994,8 hPa 0,0 l/m 14,4 km/h (3 Bft) S 172 0 min 0,000 mm 0,0 UV-I 0 W/m 2,8 C -1,5 C 22,5 km/h (4 Bft) 95,65 %
10.02.2016 01:34 4,3 C 90 % 994,7 hPa 0,0 l/m 15,8 km/h (3 Bft) S-SW 203 0 min 0,000 mm 0,0 UV-I 0 W/m 2,8 C -2,2 C 25,7 km/h (4 Bft) 100,00 %
10.02.2016 01:35 4,2 C 90 % 994,8 hPa 0,0 l/m 12,2 km/h (2 Bft) S-SW 213 0 min 0,000 mm 0,0 UV-I 0 W/m 2,7 C -0,3 C 19,3 km/h (3 Bft) 91,30 %
10.02.2016 01:36 4,2 C 90 % 994,7 hPa 0,0 l/m 19,6 km/h (3 Bft) SW 219 0 min 0,000 mm 0,0 UV-I 0 W/m 2,7 C -4,0 C 27,4 km/h (4 Bft) 95,83 %
10.02.2016 01:37 4,2 C 90 % 994,8 hPa 0,0 l/m 19,3 km/h (3 Bft) S-SW 204 0 min 0,000 mm 0,0 UV-I 0 W/m 2,7 C -3,9 C 25,7 km/h (4 Bft) 100,00 %
10.02.2016 01:38 4,2 C 90 % 994,8 hPa 0,2 l/m 13,2 km/h (3 Bft) W-SW 253 0 min 0,000 mm 0,0 UV-I 0 W/m 2,7 C -0,9 C 19,3 km/h (3 Bft) 95,83 %
10.02.2016 01:39 4,2 C 90 % 994,8 hPa 0,0 l/m 13,1 km/h (3 Bft) W-SW 238 0 min 0,000 mm 0,0 UV-I 0 W/m 2,7 C -0,8 C 27,4 km/h (4 Bft) 95,65 %
10.02.2016 01:40 4,1 C 90 % 994,8 hPa 0,0 l/m 14,4 km/h (3 Bft) S-SW 209 0 min 0,000 mm 0,0 UV-I 0 W/m 2,6 C -1,7 C 30,6 km/h (5 Bft) 96,67 %
10.02.2016 01:41 4,1 C 90 % 994,7 hPa 0,0 l/m 16,1 km/h (3 Bft) SW 223 0 min 0,000 mm 0,0 UV-I 0 W/m 2,6 C -2,6 C 27,4 km/h (4 Bft) 100,00 %
10.02.2016 01:42 4,0 C 89 % 994,7 hPa 0,0 l/m 22,1 km/h (4 Bft) SW 233 0 min 0,000 mm 0,0 UV-I 0 W/m 2,4 C -5,3 C 29,0 km/h (5 Bft) 96,15 %
10.02.2016 01:43 4,0 C 89 % 994,8 hPa 0,2 l/m 16,3 km/h (3 Bft) SW 236 0 min 0,000 mm 0,0 UV-I 0 W/m 2,4 C -2,8 C 25,7 km/h (4 Bft) 96,30 %
10.02.2016 01:44 3,9 C 90 % 994,7 hPa 0,0 l/m 11,3 km/h (2 Bft) SW 232 0 min 0,000 mm 0,0 UV-I 0 W/m 2,4 C -0,1 C 16,1 km/h (3 Bft) 100,00 %
10.02.2016 01:45 3,9 C 90 % 994,7 hPa 0,0 l/m 11,3 km/h (2 Bft) SW 225 0 min 0,000 mm 0,0 UV-I 0 W/m 2,4 C -0,1 C 16,1 km/h (3 Bft) 92,31 %
10.02.2016 01:46 3,8 C 90 % 994,7 hPa 0,0 l/m 11,4 km/h (2 Bft) W-SW 257 0 min 0,000 mm 0,0 UV-I 0 W/m 2,3 C -0,2 C 16,1 km/h (3 Bft) 100,00 %
10.02.2016 01:47 3,8 C 90 % 994,6 hPa 0,0 l/m 14,7 km/h (3 Bft) S 178 0 min 0,000 mm 0,0 UV-I 0 W/m 2,3 C -2,2 C 19,3 km/h (3 Bft) 96,67 %
10.02.2016 01:48 3,8 C 90 % 994,6 hPa 0,0 l/m 15,0 km/h (3 Bft) SW 226 0 min 0,000 mm 0,0 UV-I 0 W/m 2,3 C -2,4 C 20,9 km/h (4 Bft) 95,65 %
10.02.2016 01:49 3,8 C 90 % 994,7 hPa 0,0 l/m 12,3 km/h (3 Bft) W-SW 247 0 min 0,000 mm 0,0 UV-I 0 W/m 2,3 C -0,8 C 24,1 km/h (4 Bft) 91,67 %
10.02.2016 01:50 3,7 C 90 % 994,7 hPa 0,0 l/m 17,2 km/h (3 Bft) S-SW 201 0 min 0,000 mm 0,0 UV-I 0 W/m 2,2 C -3,6 C 25,7 km/h (4 Bft) 100,00 %
10.02.2016 01:51 3,7 C 90 % 994,6 hPa 0,2 l/m 12,5 km/h (3 Bft) S 182 0 min 0,000 mm 0,0 UV-I 0 W/m 2,2 C -1,1 C 22,5 km/h (4 Bft) 96,30 %
10.02.2016 01:52 3,7 C 90 % 994,5 hPa 0,0 l/m 13,9 km/h (3 Bft) SW 235 0 min 0,000 mm 0,0 UV-I 0 W/m 2,2 C -1,9 C 17,7 km/h (3 Bft) 95,65 %
10.02.2016 01:53 3,7 C 90 % 994,5 hPa 0,0 l/m 14,7 km/h (3 Bft) S-SW 203 0 min 0,000 mm 0,0 UV-I 0 W/m 2,2 C -2,3 C 20,9 km/h (4 Bft) 98,70 %
10.02.2016 01:54 3,7 C 90 % 994,5 hPa 0,0 l/m 13,3 km/h (3 Bft) S-SW 197 0 min 0,000 mm 0,0 UV-I 0 W/m 2,2 C -1,5 C 20,9 km/h (4 Bft) 97,56 %
10.02.2016 01:55 3,6 C 91 % 994,5 hPa 0,0 l/m 11,2 km/h (2 Bft) S-SO 161 0 min 0,000 mm 0,0 UV-I 0 W/m 2,3 C -0,3 C 14,5 km/h (3 Bft) 96,30 %
10.02.2016 01:56 3,6 C 91 % 994,5 hPa 0,0 l/m 11,1 km/h (2 Bft) SW 218 0 min 0,000 mm 0,0 UV-I 0 W/m 2,3 C -0,3 C 16,1 km/h (3 Bft) 95,65 %
10.02.2016 01:57 3,6 C 91 % 994,5 hPa 0,0 l/m 12,6 km/h (3 Bft) W-SW 240 0 min 0,000 mm 0,0 UV-I 0 W/m 2,3 C -1,2 C 17,7 km/h (3 Bft) 100,00 %
10.02.2016 01:58 3,6 C 91 % 994,5 hPa 0,0 l/m 16,1 km/h (3 Bft) S 187 0 min 0,000 mm 0,0 UV-I 0 W/m 2,3 C -3,2 C 20,9 km/h (4 Bft) 94,12 %
10.02.2016 01:59 3,6 C 91 % 994,6 hPa 0,0 l/m 12,3 km/h (3 Bft) S-SW 208 0 min 0,000 mm 0,0 UV-I 0 W/m 2,3 C -1,0 C 19,3 km/h (3 Bft) 100,00 %
10.02.2016 02:00 3,6 C 91 % 994,5 hPa 0,0 l/m 19,3 km/h (3 Bft) SW 233 0 min 0,026 mm 0,0 UV-I 0 W/m 2,3 C -4,7 C 27,4 km/h (4 Bft) 98,63 %
10.02.2016 02:01 3,5 C 91 % 994,5 hPa 0,0 l/m 17,9 km/h (3 Bft) SW 214 0 min 0,000 mm 0,0 UV-I 0 W/m 2,2 C -4,2 C 22,5 km/h (4 Bft) 93,62 %
10.02.2016 02:02 3,5 C 91 % 994,5 hPa 0,0 l/m 15,3 km/h (3 Bft) S 181 0 min 0,000 mm 0,0 UV-I 0 W/m 2,2 C -2,9 C 22,5 km/h (4 Bft) 100,00 %
10.02.2016 02:03 3,5 C 91 % 994,5 hPa 0,0 l/m 14,1 km/h (3 Bft) SW 217 0 min 0,000 mm 0,0 UV-I 0 W/m 2,2 C -2,2 C 20,9 km/h (4 Bft) 100,00 %
10.02.2016 02:04 3,5 C 91 % 994,5 hPa 0,0 l/m 13,9 km/h (3 Bft) S-SO 156 0 min 0,000 mm 0,0 UV-I 0 W/m 2,2 C -2,1 C 19,3 km/h (3 Bft) 95,83 %
10.02.2016 02:05 3,4 C 91 % 994,5 hPa 0,0 l/m 11,7 km/h (2 Bft) S 182 0 min 0,000 mm 0,0 UV-I 0 W/m 2,1 C -0,9 C 17,7 km/h (3 Bft) 96,15 %
10.02.2016 02:06 3,4 C 91 % 994,4 hPa 0,0 l/m 18,6 km/h (3 Bft) S-SW 209 0 min 0,000 mm 0,0 UV-I 0 W/m 2,1 C -4,6 C 29,0 km/h (5 Bft) 100,00 %
10.02.2016 02:07 3,4 C 91 % 994,4 hPa 0,0 l/m 13,9 km/h (3 Bft) S-SW 196 0 min 0,000 mm 0,0 UV-I 0 W/m 2,1 C -2,2 C 20,9 km/h (4 Bft) 100,00 %
10.02.2016 02:08 3,4 C 92 % 994,5 hPa 0,0 l/m 14,4 km/h (3 Bft) S-SW 195 0 min 0,000 mm 0,0 UV-I 0 W/m 2,2 C -2,5 C 19,3 km/h (3 Bft) 100,00 %
10.02.2016 02:09 3,4 C 92 % 994,5 hPa 0,0 l/m 13,3 km/h (3 Bft) S-SW 194 0 min 0,000 mm 0,0 UV-I 0 W/m 2,2 C -1,9 C 17,7 km/h (3 Bft) 100,00 %
10.02.2016 02:10 3,4 C 92 % 994,4 hPa 0,2 l/m 10,1 km/h (2 Bft) SW 225 0 min 0,000 mm 0,0 UV-I 0 W/m 2,2 C 0,2 C 12,9 km/h (3 Bft) 100,00 %
10.02.2016 02:11 3,3 C 92 % 994,5 hPa 0,0 l/m 10,2 km/h (2 Bft) S 191 0 min 0,000 mm 0,0 UV-I 0 W/m 2,1 C 0,0 C 12,9 km/h (3 Bft) 96,88 %
10.02.2016 02:12 3,3 C 92 % 994,5 hPa 0,0 l/m 15,3 km/h (3 Bft) W 263 0 min 0,000 mm 0,0 UV-I 0 W/m 2,1 C -3,1 C 19,3 km/h (3 Bft) 100,00 %
10.02.2016 02:13 3,3 C 92 % 994,5 hPa 0,0 l/m 14,9 km/h (3 Bft) SW 232 0 min 0,000 mm 0,0 UV-I 0 W/m 2,1 C -2,9 C 20,9 km/h (4 Bft) 100,00 %
10.02.2016 02:14 3,3 C 91 % 994,5 hPa 0,0 l/m 13,1 km/h (3 Bft) S-SW 207 0 min 0,000 mm 0,0 UV-I 0 W/m 2,0 C -1,9 C 17,7 km/h (3 Bft) 93,33 %
10.02.2016 02:15 3,3 C 91 % 994,5 hPa 0,0 l/m 11,6 km/h (2 Bft) S 177 0 min 0,000 mm 0,0 UV-I 0 W/m 2,0 C -0,9 C 17,7 km/h (3 Bft) 96,88 %
10.02.2016 02:16 3,3 C 91 % 994,5 hPa 0,0 l/m 17,3 km/h (3 Bft) S-SW 192 0 min 0,000 mm 0,0 UV-I 0 W/m 2,0 C -4,2 C 24,1 km/h (4 Bft) 100,00 %
10.02.2016 02:17 3,3 C 91 % 994,5 hPa 0,0 l/m 14,8 km/h (3 Bft) SW 225 0 min 0,000 mm 0,0 UV-I 0 W/m 2,0 C -2,9 C 22,5 km/h (4 Bft) 100,00 %
10.02.2016 02:18 3,2 C 91 % 994,4 hPa 0,0 l/m 10,5 km/h (2 Bft) SW 220 0 min 0,000 mm 0,0 UV-I 0 W/m 1,9 C -0,3 C 14,5 km/h (3 Bft) 100,00 %
10.02.2016 02:19 3,2 C 91 % 994,4 hPa 0,0 l/m 17,0 km/h (3 Bft) S-SW 208 0 min 0,000 mm 0,0 UV-I 0 W/m 1,9 C -4,1 C 20,9 km/h (4 Bft) 100,00 %
10.02.2016 02:20 3,2 C 91 % 994,4 hPa 0,0 l/m 16,1 km/h (3 Bft) W-SW 248 0 min 0,000 mm 0,0 UV-I 0 W/m 1,9 C -3,7 C 25,7 km/h (4 Bft) 100,00 %
10.02.2016 02:21 3,2 C 91 % 994,5 hPa 0,0 l/m 10,1 km/h (2 Bft) S-SW 209 0 min 0,000 mm 0,0 UV-I 0 W/m 1,9 C 0,0 C 14,5 km/h (3 Bft) 91,67 %
10.02.2016 02:22 3,2 C 92 % 994,5 hPa 0,2 l/m 13,4 km/h (3 Bft) S-SW 198 0 min 0,000 mm 0,0 UV-I 0 W/m 2,0 C -2,2 C 17,7 km/h (3 Bft) 100,00 %
10.02.2016 02:23 3,2 C 92 % 994,5 hPa 0,0 l/m 17,8 km/h (3 Bft) SW 224 0 min 0,000 mm 0,0 UV-I 0 W/m 2,0 C -4,5 C 27,4 km/h (4 Bft) 100,00 %
10.02.2016 02:24 3,2 C 91 % 994,5 hPa 0,0 l/m 11,9 km/h (2 Bft) S-SW 193 0 min 0,000 mm 0,0 UV-I 0 W/m 1,9 C -1,3 C 17,7 km/h (3 Bft) 96,88 %
10.02.2016 02:25 3,2 C 92 % 994,4 hPa 0,0 l/m 11,9 km/h (2 Bft) S-SW 199 0 min 0,000 mm 0,0 UV-I 0 W/m 2,0 C -1,3 C 16,1 km/h (3 Bft) 96,30 %
10.02.2016 02:26 3,2 C 92 % 994,5 hPa 0,0 l/m 9,0 km/h (2 Bft) S 190 0 min 0,000 mm 0,0 UV-I 0 W/m 2,0 C 0,9 C 9,7 km/h (2 Bft) 100,00 %
10.02.2016 02:27 3,2 C 92 % 994,4 hPa 0,0 l/m 12,2 km/h (2 Bft) S-SW 213 0 min 0,000 mm 0,0 UV-I 0 W/m 2,0 C -1,4 C 16,1 km/h (3 Bft) 100,00 %
10.02.2016 02:28 3,2 C 92 % 994,4 hPa 0,0 l/m 9,5 km/h (2 Bft) S-SO 151 0 min 0,000 mm 0,0 UV-I 0 W/m 2,0 C 0,5 C 12,9 km/h (3 Bft) 100,00 %
10.02.2016 02:29 3,2 C 92 % 994,4 hPa 0,0 l/m 11,0 km/h (2 Bft) SW 234 0 min 0,000 mm 0,0 UV-I 0 W/m 2,0 C -0,6 C 16,1 km/h (3 Bft) 96,30 %
10.02.2016 02:30 3,1 C 92 % 994,4 hPa 0,0 l/m 15,5 km/h (3 Bft) SW 220 0 min 0,000 mm 0,0 UV-I 0 W/m 1,9 C -3,5 C 19,3 km/h (3 Bft) 100,00 %
10.02.2016 02:31 3,2 C 92 % 994,4 hPa 0,0 l/m 12,6 km/h (3 Bft) S-SW 198 0 min 0,000 mm 0,0 UV-I 0 W/m 2,0 C -1,7 C 19,3 km/h (3 Bft) 100,00 %
10.02.2016 02:32 3,2 C 92 % 994,4 hPa 0,2 l/m 11,5 km/h (2 Bft) S-SW 213 0 min 0,000 mm 0,0 UV-I 0 W/m 2,0 C -1,0 C 14,5 km/h (3 Bft) 100,00 %
10.02.2016 02:33 3,2 C 92 % 994,3 hPa 0,0 l/m 11,6 km/h (2 Bft) S-SW 193 0 min 0,000 mm 0,0 UV-I 0 W/m 2,0 C -1,1 C 17,7 km/h (3 Bft) 100,00 %
10.02.2016 02:34 3,1 C 92 % 994,3 hPa 0,0 l/m 13,3 km/h (3 Bft) S-SW 200 0 min 0,000 mm 0,0 UV-I 0 W/m 1,9 C -2,2 C 17,7 km/h (3 Bft) 100,00 %
10.02.2016 02:35 3,2 C 92 % 994,3 hPa 0,0 l/m 11,7 km/h (2 Bft) S-SW 207 0 min 0,000 mm 0,0 UV-I 0 W/m 2,0 C -1,1 C 16,1 km/h (3 Bft) 100,00 %
10.02.2016 02:36 3,2 C 92 % 994,3 hPa 0,0 l/m 13,8 km/h (3 Bft) S-SW 198 0 min 0,000 mm 0,0 UV-I 0 W/m 2,0 C -2,4 C 22,5 km/h (4 Bft) 100,00 %
10.02.2016 02:37 3,1 C 92 % 994,3 hPa 0,0 l/m 11,0 km/h (2 Bft) S-SW 192 0 min 0,000 mm 0,0 UV-I 0 W/m 1,9 C -0,8 C 14,5 km/h (3 Bft) 100,00 %
10.02.2016 02:38 3,2 C 92 % 994,3 hPa 0,0 l/m 10,9 km/h (2 Bft) S-SW 202 0 min 0,000 mm 0,0 UV-I 0 W/m 2,0 C -0,6 C 16,1 km/h (3 Bft) 100,00 %
10.02.2016 02:39 3,1 C 92 % 994,2 hPa 0,0 l/m 10,8 km/h (2 Bft) S-SO 167 0 min 0,000 mm 0,0 UV-I 0 W/m 1,9 C -0,6 C 12,9 km/h (3 Bft) 100,00 %
10.02.2016 02:40 3,1 C 92 % 994,2 hPa 0,2 l/m 11,1 km/h (2 Bft) S-SW 208 0 min 0,000 mm 0,0 UV-I 0 W/m 1,9 C -0,8 C 16,1 km/h (3 Bft) 100,00 %
10.02.2016 02:41 3,1 C 92 % 994,2 hPa 0,0 l/m 9,7 km/h (2 Bft) S-SW 197 0 min 0,000 mm 0,0 UV-I 0 W/m 1,9 C 0,2 C 14,5 km/h (3 Bft) 93,33 %
10.02.2016 02:42 3,1 C 92 % 994,2 hPa 0,0 l/m 12,3 km/h (3 Bft) S-SW 213 0 min 0,000 mm 0,0 UV-I 0 W/m 1,9 C -1,6 C 19,3 km/h (3 Bft) 100,00 %
10.02.2016 02:43 3,1 C 92 % 994,3 hPa 0,0 l/m 10,8 km/h (2 Bft) SW 227 0 min 0,000 mm 0,0 UV-I 0 W/m 1,9 C -0,6 C 17,7 km/h (3 Bft) 100,00 %
10.02.2016 02:44 3,1 C 92 % 994,3 hPa 0,0 l/m 16,5 km/h (3 Bft) W-SW 257 0 min 0,000 mm 0,0 UV-I 0 W/m 1,9 C -4,0 C 22,5 km/h (4 Bft) 100,00 %
10.02.2016 02:45 3,1 C 92 % 994,3 hPa 0,0 l/m 11,3 km/h (2 Bft) S 175 0 min 0,000 mm 0,0 UV-I 0 W/m 1,9 C -1,0 C 17,7 km/h (3 Bft) 100,00 %
10.02.2016 02:46 3,1 C 92 % 994,3 hPa 0,0 l/m 10,9 km/h (2 Bft) SW 214 0 min 0,000 mm 0,0 UV-I 0 W/m 1,9 C -0,7 C 17,7 km/h (3 Bft) 100,00 %
10.02.2016 02:47 3,1 C 92 % 994,3 hPa 0,0 l/m 8,9 km/h (2 Bft) W-SW 254 0 min 0,000 mm 0,0 UV-I 0 W/m 1,9 C 0,8 C 20,9 km/h (4 Bft) 100,00 %
10.02.2016 02:48 3,1 C 92 % 994,3 hPa 0,0 l/m 13,7 km/h (3 Bft) W-SW 244 0 min 0,000 mm 0,0 UV-I 0 W/m 1,9 C -2,5 C 19,3 km/h (3 Bft) 100,00 %
10.02.2016 02:49 3,1 C 92 % 994,3 hPa 0,2 l/m 10,0 km/h (2 Bft) SW 226 0 min 0,000 mm 0,0 UV-I 0 W/m 1,9 C -0,0 C 14,5 km/h (3 Bft) 100,00 %
10.02.2016 02:50 3,1 C 92 % 994,3 hPa 0,0 l/m 8,2 km/h (2 Bft) W 261 0 min 0,000 mm 0,0 UV-I 0 W/m 1,9 C 1,4 C 12,9 km/h (3 Bft) 100,00 %
10.02.2016 02:51 3,1 C 92 % 994,3 hPa 0,0 l/m 10,7 km/h (2 Bft) SW 233 0 min 0,000 mm 0,0 UV-I 0 W/m 1,9 C -0,5 C 16,1 km/h (3 Bft) 100,00 %
10.02.2016 02:52 3,1 C 92 % 994,3 hPa 0,0 l/m 8,2 km/h (2 Bft) W-SW 255 0 min 0,000 mm 0,0 UV-I 0 W/m 1,9 C 1,4 C 12,9 km/h (3 Bft) 100,00 %
10.02.2016 02:53 3,0 C 92 % 994,3 hPa 0,0 l/m 11,0 km/h (2 Bft) SW 233 0 min 0,000 mm 0,0 UV-I 0 W/m 1,8 C -0,9 C 14,5 km/h (3 Bft) 96,55 %
10.02.2016 02:54 3,0 C 92 % 994,3 hPa 0,0 l/m 10,1 km/h (2 Bft) SW 226 0 min 0,000 mm 0,0 UV-I 0 W/m 1,8 C -0,2 C 14,5 km/h (3 Bft) 100,00 %
10.02.2016 02:55 3,0 C 92 % 994,4 hPa 0,0 l/m 12,7 km/h (3 Bft) SW 223 0 min 0,000 mm 0,0 UV-I 0 W/m 1,8 C -2,0 C 17,7 km/h (3 Bft) 91,30 %
10.02.2016 02:56 3,0 C 92 % 994,4 hPa 0,2 l/m 16,6 km/h (3 Bft) W-SW 254 0 min 0,000 mm 0,0 UV-I 0 W/m 1,8 C -4,2 C 24,1 km/h (4 Bft) 100,00 %
10.02.2016 02:57 2,9 C 92 % 994,4 hPa 0,0 l/m 11,2 km/h (2 Bft) W-SW 237 0 min 0,000 mm 0,0 UV-I 0 W/m 1,7 C -1,1 C 17,7 km/h (3 Bft) 100,00 %
10.02.2016 02:58 3,0 C 92 % 994,4 hPa 0,0 l/m 8,0 km/h (2 Bft) W-SW 252 0 min 0,000 mm 0,0 UV-I 0 W/m 1,8 C 1,5 C 11,3 km/h (2 Bft) 96,30 %
10.02.2016 02:59 2,9 C 92 % 994,4 hPa 0,0 l/m 8,4 km/h (2 Bft) SW 234 0 min 0,000 mm 0,0 UV-I 0 W/m 1,7 C 1,0 C 12,9 km/h (3 Bft) 100,00 %
10.02.2016 03:00 2,9 C 93 % 994,3 hPa 0,0 l/m 8,5 km/h (2 Bft) SW 221 0 min 0,000 mm 0,0 UV-I 0 W/m 1,9 C 1,0 C 12,9 km/h (3 Bft) 100,00 %
10.02.2016 03:01 2,9 C 93 % 994,3 hPa 0,0 l/m 6,6 km/h (2 Bft) SW 223 0 min 0,000 mm 0,0 UV-I 0 W/m 1,9 C 2,7 C 9,7 km/h (2 Bft) 100,00 %
10.02.2016 03:02 2,9 C 92 % 994,3 hPa 0,2 l/m 11,5 km/h (2 Bft) W-SW 242 0 min 0,000 mm 0,0 UV-I 0 W/m 1,7 C -1,3 C 19,3 km/h (3 Bft) 100,00 %
10.02.2016 03:03 2,9 C 92 % 994,3 hPa 0,0 l/m 7,3 km/h (2 Bft) SW 215 0 min 0,000 mm 0,0 UV-I 0 W/m 1,7 C 2,0 C 9,7 km/h (2 Bft) 100,00 %
10.02.2016 03:04 2,9 C 92 % 994,3 hPa 0,0 l/m 10,9 km/h (2 Bft) W-SW 238 0 min 0,000 mm 0,0 UV-I 0 W/m 1,7 C -0,9 C 14,5 km/h (3 Bft) 100,00 %
10.02.2016 03:05 2,8 C 92 % 994,3 hPa 0,0 l/m 15,9 km/h (3 Bft) SW 224 0 min 0,000 mm 0,0 UV-I 0 W/m 1,6 C -4,1 C 17,7 km/h (3 Bft) 100,00 %
10.02.2016 03:06 2,8 C 92 % 994,3 hPa 0,0 l/m 11,5 km/h (2 Bft) S-SW 207 0 min 0,000 mm 0,0 UV-I 0 W/m 1,6 C -1,4 C 17,7 km/h (3 Bft) 100,00 %
10.02.2016 03:07 2,8 C 92 % 994,3 hPa 0,0 l/m 11,1 km/h (2 Bft) S-SW 194 0 min 0,000 mm 0,0 UV-I 0 W/m 1,6 C -1,2 C 14,5 km/h (3 Bft) 100,00 %
10.02.2016 03:08 2,8 C 92 % 994,2 hPa 0,2 l/m 10,5 km/h (2 Bft) SW 217 0 min 0,000 mm 0,0 UV-I 0 W/m 1,6 C -0,7 C 14,5 km/h (3 Bft) 100,00 %
10.02.2016 03:09 2,8 C 92 % 994,2 hPa 0,0 l/m 14,8 km/h (3 Bft) SW 232 0 min 0,000 mm 0,0 UV-I 0 W/m 1,6 C -3,5 C 19,3 km/h (3 Bft) 100,00 %
10.02.2016 03:10 2,8 C 92 % 994,2 hPa 0,0 l/m 12,7 km/h (3 Bft) S-SW 205 0 min 0,000 mm 0,0 UV-I 0 W/m 1,6 C -2,2 C 17,7 km/h (3 Bft) 100,00 %
10.02.2016 03:11 2,8 C 92 % 994,2 hPa 0,0 l/m 12,3 km/h (3 Bft) W-SW 237 0 min 0,000 mm 0,0 UV-I 0 W/m 1,6 C -2,0 C 24,1 km/h (4 Bft) 100,00 %
10.02.2016 03:12 2,8 C 92 % 994,2 hPa 0,0 l/m 16,9 km/h (3 Bft) S-SW 206 0 min 0,000 mm 0,0 UV-I 0 W/m 1,6 C -4,6 C 25,7 km/h (4 Bft) 96,55 %
10.02.2016 03:13 2,7 C 92 % 994,2 hPa 0,0 l/m 13,8 km/h (3 Bft) S-SW 212 0 min 0,000 mm 0,0 UV-I 0 W/m 1,5 C -3,0 C 16,1 km/h (3 Bft) 100,00 %
10.02.2016 03:14 2,7 C 92 % 994,2 hPa 0,0 l/m 19,1 km/h (3 Bft) SW 219 0 min 0,000 mm 0,0 UV-I 0 W/m 1,5 C -5,7 C 29,0 km/h (5 Bft) 100,00 %
10.02.2016 03:15 2,7 C 92 % 994,2 hPa 0,0 l/m 20,3 km/h (4 Bft) W-SW 238 0 min 0,000 mm 0,0 UV-I 0 W/m 1,5 C -6,3 C 24,1 km/h (4 Bft) 100,00 %
10.02.2016 03:16 2,7 C 92 % 994,2 hPa 0,0 l/m 17,6 km/h (3 Bft) S-SO 164 0 min 0,000 mm 0,0 UV-I 0 W/m 1,5 C -5,1 C 25,7 km/h (4 Bft) 100,00 %
10.02.2016 03:17 2,7 C 92 % 994,2 hPa 0,0 l/m 16,3 km/h (3 Bft) SW 229 0 min 0,000 mm 0,0 UV-I 0 W/m 1,5 C -4,4 C 22,5 km/h (4 Bft) 100,00 %
10.02.2016 03:18 2,7 C 92 % 994,2 hPa 0,0 l/m 14,6 km/h (3 Bft) S-SW 196 0 min 0,000 mm 0,0 UV-I 0 W/m 1,5 C -3,5 C 22,5 km/h (4 Bft) 100,00 %
10.02.2016 03:19 2,7 C 92 % 994,1 hPa 0,2 l/m 12,4 km/h (3 Bft) SW 219 0 min 0,000 mm 0,0 UV-I 0 W/m 1,5 C -2,2 C 19,3 km/h (3 Bft) 95,65 %
10.02.2016 03:20 2,7 C 92 % 994,1 hPa 0,0 l/m 17,1 km/h (3 Bft) SW 233 0 min 0,000 mm 0,0 UV-I 0 W/m 1,5 C -4,8 C 22,5 km/h (4 Bft) 100,00 %
10.02.2016 03:21 2,6 C 92 % 994,1 hPa 0,0 l/m 9,1 km/h (2 Bft) S 179 0 min 0,000 mm 0,0 UV-I 0 W/m 1,4 C 0,1 C 16,1 km/h (3 Bft) 100,00 %
10.02.2016 03:22 2,6 C 92 % 994,1 hPa 0,0 l/m 9,9 km/h (2 Bft) S 184 0 min 0,000 mm 0,0 UV-I 0 W/m 1,4 C -0,5 C 14,5 km/h (3 Bft) 100,00 %
10.02.2016 03:23 2,6 C 93 % 994,1 hPa 0,2 l/m 11,8 km/h (2 Bft) SW 232 0 min 0,000 mm 0,0 UV-I 0 W/m 1,6 C -1,9 C 16,1 km/h (3 Bft) 96,55 %
10.02.2016 03:24 2,6 C 93 % 994,1 hPa 0,0 l/m 10,5 km/h (2 Bft) W-SW 239 0 min 0,000 mm 0,0 UV-I 0 W/m 1,6 C -1,0 C 14,5 km/h (3 Bft) 96,30 %
10.02.2016 03:25 2,6 C 93 % 994,1 hPa 0,0 l/m 10,3 km/h (2 Bft) W-SW 240 0 min 0,000 mm 0,0 UV-I 0 W/m 1,6 C -0,8 C 16,1 km/h (3 Bft) 100,00 %
10.02.2016 03:26 2,5 C 93 % 994,1 hPa 0,0 l/m 13,4 km/h (3 Bft) W-SW 253 0 min 0,000 mm 0,0 UV-I 0 W/m 1,5 C -3,0 C 19,3 km/h (3 Bft) 100,00 %
10.02.2016 03:27 2,5 C 93 % 994,1 hPa 0,0 l/m 7,6 km/h (2 Bft) SW 215 0 min 0,000 mm 0,0 UV-I 0 W/m 1,5 C 1,3 C 11,3 km/h (2 Bft) 100,00 %
10.02.2016 03:28 2,4 C 93 % 994,0 hPa 0,2 l/m 8,4 km/h (2 Bft) W-SW 238 0 min 0,000 mm 0,0 UV-I 0 W/m 1,4 C 0,5 C 12,9 km/h (3 Bft) 96,30 %
10.02.2016 03:29 2,4 C 93 % 994,0 hPa 0,0 l/m 12,1 km/h (2 Bft) W-SW 241 0 min 0,000 mm 0,0 UV-I 0 W/m 1,4 C -2,3 C 16,1 km/h (3 Bft) 100,00 %
10.02.2016 03:30 2,4 C 93 % 994,0 hPa 0,0 l/m 10,6 km/h (2 Bft) SW 226 0 min 0,000 mm 0,0 UV-I 0 W/m 1,4 C -1,3 C 16,1 km/h (3 Bft) 100,00 %
10.02.2016 03:31 2,3 C 93 % 994,0 hPa 0,0 l/m 9,1 km/h (2 Bft) S-SW 206 0 min 0,000 mm 0,0 UV-I 0 W/m 1,3 C -0,2 C 12,9 km/h (3 Bft) 100,00 %
10.02.2016 03:32 2,3 C 93 % 994,0 hPa 0,0 l/m 8,7 km/h (2 Bft) SW 221 0 min 0,000 mm 0,0 UV-I 0 W/m 1,3 C 0,1 C 12,9 km/h (3 Bft) 100,00 %
10.02.2016 03:33 2,3 C 93 % 994,0 hPa 0,0 l/m 14,3 km/h (3 Bft) S-SW 195 0 min 0,000 mm 0,0 UV-I 0 W/m 1,3 C -3,8 C 19,3 km/h (3 Bft) 100,00 %
10.02.2016 03:34 2,3 C 93 % 994,0 hPa 0,0 l/m 13,3 km/h (3 Bft) S 177 0 min 0,000 mm 0,0 UV-I 0 W/m 1,3 C -3,2 C 22,5 km/h (4 Bft) 100,00 %
10.02.2016 03:35 2,3 C 93 % 994,0 hPa 0,2 l/m 13,3 km/h (3 Bft) S 190 0 min 0,000 mm 0,0 UV-I 0 W/m 1,3 C -3,2 C 22,5 km/h (4 Bft) 91,30 %
10.02.2016 03:36 2,2 C 93 % 994,0 hPa 0,0 l/m 11,7 km/h (2 Bft) S 176 0 min 0,000 mm 0,0 UV-I 0 W/m 1,2 C -2,3 C 19,3 km/h (3 Bft) 95,83 %
10.02.2016 03:37 2,2 C 93 % 993,8 hPa 0,0 l/m 14,5 km/h (3 Bft) SW 217 0 min 0,000 mm 0,0 UV-I 0 W/m 1,2 C -4,0 C 22,5 km/h (4 Bft) 98,75 %
10.02.2016 03:38 2,2 C 93 % 993,8 hPa 0,0 l/m 16,3 km/h (3 Bft) SW 217 0 min 0,000 mm 0,0 UV-I 0 W/m 1,2 C -5,0 C 22,5 km/h (4 Bft) 95,45 %
10.02.2016 03:39 2,2 C 93 % 993,8 hPa 0,2 l/m 17,4 km/h (3 Bft) S-SO 155 0 min 0,000 mm 0,0 UV-I 0 W/m 1,2 C -5,6 C 22,5 km/h (4 Bft) 100,00 %
10.02.2016 03:40 2,2 C 93 % 993,8 hPa 0,0 l/m 15,8 km/h (3 Bft) S-SW 194 0 min 0,000 mm 0,0 UV-I 0 W/m 1,2 C -4,8 C 22,5 km/h (4 Bft) 93,33 %
10.02.2016 03:41 2,1 C 93 % 993,8 hPa 0,0 l/m 11,4 km/h (2 Bft) S-SW 192 0 min 0,000 mm 0,0 UV-I 0 W/m 1,1 C -2,2 C 14,5 km/h (3 Bft) 100,00 %
10.02.2016 03:42 2,1 C 93 % 993,8 hPa 0,2 l/m 11,1 km/h (2 Bft) S-SW 207 0 min 0,000 mm 0,0 UV-I 0 W/m 1,1 C -2,0 C 12,9 km/h (3 Bft) 96,15 %
10.02.2016 03:43 2,1 C 93 % 993,8 hPa 0,0 l/m 13,1 km/h (3 Bft) S 171 0 min 0,000 mm 0,0 UV-I 0 W/m 1,1 C -3,3 C 17,7 km/h (3 Bft) 96,15 %
10.02.2016 03:44 2,1 C 94 % 993,8 hPa 0,0 l/m 14,1 km/h (3 Bft) S 183 0 min 0,000 mm 0,0 UV-I 0 W/m 1,2 C -3,9 C 19,3 km/h (3 Bft) 100,00 %
10.02.2016 03:45 2,1 C 94 % 993,7 hPa 0,0 l/m 14,6 km/h (3 Bft) S 175 0 min 0,000 mm 0,0 UV-I 0 W/m 1,2 C -4,2 C 17,7 km/h (3 Bft) 93,33 %
10.02.2016 03:46 2,0 C 94 % 993,7 hPa 0,2 l/m 19,8 km/h (3 Bft) S-SW 210 0 min 0,000 mm 0,0 UV-I 0 W/m 1,1 C -7,0 C 30,6 km/h (5 Bft) 100,00 %
10.02.2016 03:47 2,0 C 94 % 993,7 hPa 0,0 l/m 11,9 km/h (2 Bft) S 188 0 min 0,000 mm 0,0 UV-I 0 W/m 1,1 C -2,6 C 14,5 km/h (3 Bft) 95,83 %
10.02.2016 03:48 1,9 C 94 % 993,7 hPa 0,0 l/m 13,9 km/h (3 Bft) S-SW 213 0 min 0,000 mm 0,0 UV-I 0 W/m 1,0 C -4,0 C 20,9 km/h (4 Bft) 100,00 %
10.02.2016 03:49 1,9 C 94 % 993,7 hPa 0,0 l/m 16,8 km/h (3 Bft) S-SW 195 0 min 0,000 mm 0,0 UV-I 0 W/m 1,0 C -5,7 C 19,3 km/h (3 Bft) 92,59 %
10.02.2016 03:50 1,9 C 94 % 993,7 hPa 0,0 l/m 19,6 km/h (3 Bft) SW 224 0 min 0,000 mm 0,0 UV-I 0 W/m 1,0 C -7,0 C 27,4 km/h (4 Bft) 92,86 %
10.02.2016 03:51 1,9 C 94 % 993,7 hPa 0,0 l/m 15,2 km/h (3 Bft) S-SW 194 0 min 0,000 mm 0,0 UV-I 0 W/m 1,0 C -4,8 C 20,9 km/h (4 Bft) 95,83 %
10.02.2016 03:52 2,0 C 94 % 993,7 hPa 0,0 l/m 13,2 km/h (3 Bft) S 180 0 min 0,000 mm 0,0 UV-I 0 W/m 1,1 C -3,5 C 19,3 km/h (3 Bft) 100,00 %
10.02.2016 03:53 2,0 C 94 % 993,7 hPa 0,0 l/m 9,7 km/h (2 Bft) S 175 0 min 0,000 mm 0,0 UV-I 0 W/m 1,1 C -1,0 C 16,1 km/h (3 Bft) 96,30 %
10.02.2016 03:54 2,0 C 94 % 993,7 hPa 0,0 l/m 12,7 km/h (3 Bft) W-SW 240 0 min 0,000 mm 0,0 UV-I 0 W/m 1,1 C -3,2 C 19,3 km/h (3 Bft) 92,31 %
10.02.2016 03:55 2,1 C 94 % 993,7 hPa 0,0 l/m 11,6 km/h (2 Bft) S 179 0 min 0,000 mm 0,0 UV-I 0 W/m 1,2 C -2,3 C 17,7 km/h (3 Bft) 96,30 %
10.02.2016 03:56 2,1 C 94 % 993,7 hPa 0,0 l/m 15,1 km/h (3 Bft) S 190 0 min 0,000 mm 0,0 UV-I 0 W/m 1,2 C -4,5 C 20,9 km/h (4 Bft) 92,86 %
10.02.2016 03:57 2,1 C 94 % 993,7 hPa 0,0 l/m 13,8 km/h (3 Bft) S-SW 196 0 min 0,000 mm 0,0 UV-I 0 W/m 1,2 C -3,7 C 24,1 km/h (4 Bft) 100,00 %
10.02.2016 03:58 2,1 C 94 % 993,7 hPa 0,0 l/m 13,6 km/h (3 Bft) W-SW 251 0 min 0,000 mm 0,0 UV-I 0 W/m 1,2 C -3,6 C 27,4 km/h (4 Bft) 88,46 %
10.02.2016 03:59 2,2 C 94 % 993,7 hPa 0,0 l/m 12,7 km/h (3 Bft) SW 223 0 min 0,000 mm 0,0 UV-I 0 W/m 1,3 C -2,9 C 20,9 km/h (4 Bft) 100,00 %
10.02.2016 04:00 2,2 C 94 % 993,7 hPa 0,0 l/m 12,7 km/h (3 Bft) S 186 0 min 0,000 mm 0,0 UV-I 0 W/m 1,3 C -2,9 C 19,3 km/h (3 Bft) 93,33 %
10.02.2016 04:03 2,3 C 94 % 993,8 hPa 0,0 l/m 16,9 km/h (3 Bft) SW 222 0 min 0,000 mm 0,0 UV-I 0 W/m 1,4 C -5,2 C 24,1 km/h (4 Bft) 97,67 %
10.02.2016 04:04 2,3 C 94 % 993,8 hPa 0,0 l/m 14,0 km/h (3 Bft) SW 231 0 min 0,000 mm 0,0 UV-I 0 W/m 1,4 C -3,6 C 19,3 km/h (3 Bft) 100,00 %
10.02.2016 04:05 2,4 C 94 % 993,8 hPa 0,0 l/m 16,8 km/h (3 Bft) S 179 0 min 0,000 mm 0,0 UV-I 0 W/m 1,5 C -5,0 C 29,0 km/h (5 Bft) 96,15 %
10.02.2016 04:06 2,4 C 94 % 993,8 hPa 0,0 l/m 12,2 km/h (2 Bft) SW 227 0 min 0,000 mm 0,0 UV-I 0 W/m 1,5 C -2,4 C 14,5 km/h (3 Bft) 100,00 %
10.02.2016 04:07 2,4 C 94 % 993,8 hPa 0,0 l/m 14,9 km/h (3 Bft) S-SW 205 0 min 0,000 mm 0,0 UV-I 0 W/m 1,5 C -4,0 C 22,5 km/h (4 Bft) 95,65 %
10.02.2016 04:08 2,5 C 94 % 993,8 hPa 0,2 l/m 15,4 km/h (3 Bft) W-SW 247 0 min 0,000 mm 0,0 UV-I 0 W/m 1,6 C -4,2 C 20,9 km/h (4 Bft) 100,00 %
10.02.2016 04:09 2,6 C 94 % 993,9 hPa 0,0 l/m 13,3 km/h (3 Bft) W-SW 246 0 min 0,000 mm 0,0 UV-I 0 W/m 1,7 C -2,8 C 24,1 km/h (4 Bft) 100,00 %
10.02.2016 04:10 2,6 C 94 % 993,9 hPa 0,0 l/m 12,7 km/h (3 Bft) SW 222 0 min 0,000 mm 0,0 UV-I 0 W/m 1,7 C -2,5 C 16,1 km/h (3 Bft) 96,30 %
10.02.2016 04:11 2,6 C 94 % 993,9 hPa 0,0 l/m 12,3 km/h (3 Bft) W-SW 238 0 min 0,000 mm 0,0 UV-I 0 W/m 1,7 C -2,2 C 19,3 km/h (3 Bft) 100,00 %
10.02.2016 04:12 2,6 C 93 % 993,9 hPa 0,0 l/m 15,3 km/h (3 Bft) W-SW 247 0 min 0,000 mm 0,0 UV-I 0 W/m 1,6 C -4,0 C 20,9 km/h (4 Bft) 96,67 %
10.02.2016 04:13 2,6 C 93 % 993,9 hPa 0,0 l/m 10,5 km/h (2 Bft) S 182 0 min 0,000 mm 0,0 UV-I 0 W/m 1,6 C -1,0 C 14,5 km/h (3 Bft) 100,00 %
10.02.2016 04:14 2,6 C 93 % 994,0 hPa 0,0 l/m 13,4 km/h (3 Bft) SW 220 0 min 0,000 mm 0,0 UV-I 0 W/m 1,6 C -2,9 C 19,3 km/h (3 Bft) 100,00 %
10.02.2016 04:15 2,6 C 93 % 993,9 hPa 0,0 l/m 12,7 km/h (3 Bft) SW 224 0 min 0,000 mm 0,0 UV-I 0 W/m 1,6 C -2,5 C 20,9 km/h (4 Bft) 95,65 %
10.02.2016 04:16 2,6 C 93 % 993,9 hPa 0,2 l/m 13,2 km/h (3 Bft) W-SW 238 0 min 0,000 mm 0,0 UV-I 0 W/m 1,6 C -2,8 C 20,9 km/h (4 Bft) 100,00 %
10.02.2016 04:17 2,6 C 93 % 994,0 hPa 0,0 l/m 15,2 km/h (3 Bft) SW 227 0 min 0,000 mm 0,0 UV-I 0 W/m 1,6 C -3,9 C 22,5 km/h (4 Bft) 100,00 %
10.02.2016 04:18 2,6 C 93 % 993,9 hPa 0,0 l/m 14,8 km/h (3 Bft) S-SW 209 0 min 0,000 mm 0,0 UV-I 0 W/m 1,6 C -3,7 C 22,5 km/h (4 Bft) 100,00 %
10.02.2016 04:19 2,6 C 93 % 993,9 hPa 0,0 l/m 13,6 km/h (3 Bft) SW 223 0 min 0,000 mm 0,0 UV-I 0 W/m 1,6 C -3,0 C 19,3 km/h (3 Bft) 95,65 %
10.02.2016 04:20 2,6 C 93 % 993,9 hPa 0,0 l/m 19,6 km/h (3 Bft) S 178 0 min 0,000 mm 0,0 UV-I 0 W/m 1,6 C -6,1 C 27,4 km/h (4 Bft) 100,00 %
10.02.2016 04:21 2,6 C 93 % 993,8 hPa 0,0 l/m 21,7 km/h (4 Bft) SW 215 0 min 0,000 mm 0,0 UV-I 0 W/m 1,6 C -7,0 C 35,4 km/h (5 Bft) 100,00 %
10.02.2016 04:22 2,6 C 93 % 993,8 hPa 0,0 l/m 22,5 km/h (4 Bft) SW 226 0 min 0,000 mm 0,0 UV-I 0 W/m 1,6 C -7,3 C 33,8 km/h (5 Bft) 100,00 %
10.02.2016 04:23 2,6 C 93 % 993,9 hPa 0,2 l/m 22,8 km/h (4 Bft) W-SW 252 0 min 0,000 mm 0,0 UV-I 0 W/m 1,6 C -7,4 C 32,2 km/h (5 Bft) 96,30 %
10.02.2016 04:24 2,6 C 93 % 993,9 hPa 0,0 l/m 24,7 km/h (4 Bft) SW 229 0 min 0,000 mm 0,0 UV-I 0 W/m 1,6 C -8,1 C 35,4 km/h (5 Bft) 100,00 %
10.02.2016 04:25 2,6 C 93 % 993,8 hPa 0,0 l/m 20,5 km/h (4 Bft) S-SW 213 0 min 0,000 mm 0,0 UV-I 0 W/m 1,6 C -6,5 C 25,7 km/h (4 Bft) 100,00 %
10.02.2016 04:26 2,6 C 93 % 993,9 hPa 0,0 l/m 30,3 km/h (5 Bft) S-SW 207 0 min 0,000 mm 0,0 UV-I 0 W/m 1,6 C -9,8 C 38,6 km/h (5 Bft) 100,00 %
10.02.2016 04:27 2,6 C 93 % 993,9 hPa 0,0 l/m 25,7 km/h (4 Bft) SW 228 0 min 0,000 mm 0,0 UV-I 0 W/m 1,6 C -8,4 C 35,4 km/h (5 Bft) 96,30 %
10.02.2016 04:28 2,6 C 93 % 993,9 hPa 0,2 l/m 24,1 km/h (4 Bft) SW 229 0 min 0,000 mm 0,0 UV-I 0 W/m 1,6 C -7,9 C 33,8 km/h (5 Bft) 100,00 %
10.02.2016 04:29 2,6 C 93 % 993,9 hPa 0,0 l/m 26,5 km/h (4 Bft) SW 227 0 min 0,000 mm 0,0 UV-I 0 W/m 1,6 C -8,7 C 33,8 km/h (5 Bft) 100,00 %
10.02.2016 04:30 2,5 C 93 % 993,9 hPa 0,0 l/m 24,9 km/h (4 Bft) W-SW 240 0 min 0,000 mm 0,0 UV-I 0 W/m 1,5 C -8,3 C 33,8 km/h (5 Bft) 100,00 %
10.02.2016 04:31 2,4 C 93 % 993,9 hPa 0,2 l/m 22,9 km/h (4 Bft) SW 234 0 min 0,000 mm 0,0 UV-I 0 W/m 1,4 C -7,7 C 32,2 km/h (5 Bft) 100,00 %
10.02.2016 04:32 2,4 C 93 % 993,9 hPa 0,0 l/m 15,5 km/h (3 Bft) W-SW 244 0 min 0,000 mm 0,0 UV-I 0 W/m 1,4 C -4,3 C 20,9 km/h (4 Bft) 96,15 %
10.02.2016 04:33 2,4 C 93 % 993,9 hPa 0,0 l/m 22,5 km/h (4 Bft) SW 236 0 min 0,000 mm 0,0 UV-I 0 W/m 1,4 C -7,6 C 33,8 km/h (5 Bft) 100,00 %
10.02.2016 04:34 2,3 C 93 % 993,9 hPa 0,2 l/m 18,7 km/h (3 Bft) W 268 0 min 0,000 mm 0,0 UV-I 0 W/m 1,3 C -6,1 C 25,7 km/h (4 Bft) 100,00 %
10.02.2016 04:35 2,3 C 93 % 994,1 hPa 0,0 l/m 13,9 km/h (3 Bft) SW 231 0 min 0,000 mm 0,0 UV-I 0 W/m 1,3 C -3,6 C 24,1 km/h (4 Bft) 100,00 %
10.02.2016 04:36 2,3 C 93 % 994,1 hPa 0,0 l/m 18,8 km/h (3 Bft) SW 216 0 min 0,000 mm 0,0 UV-I 0 W/m 1,3 C -6,1 C 22,5 km/h (4 Bft) 96,15 %
10.02.2016 04:37 2,2 C 93 % 994,1 hPa 0,2 l/m 18,5 km/h (3 Bft) S 184 0 min 0,000 mm 0,0 UV-I 0 W/m 1,2 C -6,1 C 22,5 km/h (4 Bft) 93,33 %
10.02.2016 04:38 2,2 C 93 % 994,1 hPa 0,0 l/m 18,7 km/h (3 Bft) W-NW 283 0 min 0,000 mm 0,0 UV-I 0 W/m 1,2 C -6,2 C 25,7 km/h (4 Bft) 100,00 %
10.02.2016 04:39 2,2 C 93 % 994,1 hPa 0,0 l/m 20,0 km/h (4 Bft) SW 224 0 min 0,000 mm 0,0 UV-I 0 W/m 1,2 C -6,8 C 35,4 km/h (5 Bft) 100,00 %
10.02.2016 04:40 2,2 C 93 % 994,0 hPa 0,2 l/m 23,3 km/h (4 Bft) S-SW 192 0 min 0,000 mm 0,0 UV-I 0 W/m 1,2 C -8,1 C 35,4 km/h (5 Bft) 100,00 %
10.02.2016 04:41 2,1 C 93 % 994,0 hPa 0,0 l/m 20,0 km/h (4 Bft) SW 215 0 min 0,000 mm 0,0 UV-I 0 W/m 1,1 C -6,9 C 25,7 km/h (4 Bft) 100,00 %
10.02.2016 04:42 2,1 C 93 % 994,0 hPa 0,2 l/m 18,0 km/h (3 Bft) SW 233 0 min 0,000 mm 0,0 UV-I 0 W/m 1,1 C -6,0 C 27,4 km/h (4 Bft) 96,67 %
10.02.2016 04:43 2,1 C 93 % 994,0 hPa 0,0 l/m 19,2 km/h (3 Bft) SW 222 0 min 0,000 mm 0,0 UV-I 0 W/m 1,1 C -6,6 C 27,4 km/h (4 Bft) 100,00 %
10.02.2016 04:44 2,0 C 93 % 994,0 hPa 0,0 l/m 22,2 km/h (4 Bft) S-SW 211 0 min 0,000 mm 0,0 UV-I 0 W/m 1,0 C -8,0 C 30,6 km/h (5 Bft) 100,00 %
10.02.2016 04:45 2,0 C 93 % 994,0 hPa 0,0 l/m 18,3 km/h (3 Bft) SW 236 0 min 0,000 mm 0,0 UV-I 0 W/m 1,0 C -6,3 C 25,7 km/h (4 Bft) 100,00 %
10.02.2016 04:46 1,9 C 93 % 994,1 hPa 0,2 l/m 15,2 km/h (3 Bft) S-SW 197 0 min 0,000 mm 0,0 UV-I 0 W/m 0,9 C -4,8 C 27,4 km/h (4 Bft) 95,83 %
10.02.2016 04:47 1,9 C 93 % 994,1 hPa 0,0 l/m 16,2 km/h (3 Bft) SW 235 0 min 0,000 mm 0,0 UV-I 0 W/m 0,9 C -5,3 C 24,1 km/h (4 Bft) 100,00 %
10.02.2016 04:48 1,9 C 94 % 994,1 hPa 0,0 l/m 15,2 km/h (3 Bft) SW 225 0 min 0,000 mm 0,0 UV-I 0 W/m 1,0 C -4,8 C 22,5 km/h (4 Bft) 100,00 %
10.02.2016 04:49 1,9 C 94 % 994,1 hPa 0,0 l/m 17,5 km/h (3 Bft) SW 229 0 min 0,000 mm 0,0 UV-I 0 W/m 1,0 C -6,0 C 22,5 km/h (4 Bft) 100,00 %
10.02.2016 04:50 1,9 C 94 % 994,1 hPa 0,2 l/m 18,5 km/h (3 Bft) S 173 0 min 0,000 mm 0,0 UV-I 0 W/m 1,0 C -6,5 C 32,2 km/h (5 Bft) 100,00 %
10.02.2016 04:51 1,9 C 94 % 994,1 hPa 0,0 l/m 17,8 km/h (3 Bft) SW 218 0 min 0,000 mm 0,0 UV-I 0 W/m 1,0 C -6,2 C 25,7 km/h (4 Bft) 90,91 %
10.02.2016 04:52 1,8 C 94 % 994,1 hPa 0,0 l/m 19,7 km/h (3 Bft) W-SW 238 0 min 0,000 mm 0,0 UV-I 0 W/m 0,9 C -7,2 C 25,7 km/h (4 Bft) 100,00 %
10.02.2016 04:53 1,8 C 94 % 994,1 hPa 0,0 l/m 17,6 km/h (3 Bft) SW 236 0 min 0,000 mm 0,0 UV-I 0 W/m 0,9 C -6,2 C 24,1 km/h (4 Bft) 97,56 %
10.02.2016 04:54 1,8 C 94 % 994,1 hPa 0,2 l/m 20,1 km/h (4 Bft) SW 232 0 min 0,000 mm 0,0 UV-I 0 W/m 0,9 C -7,4 C 25,7 km/h (4 Bft) 100,00 %
10.02.2016 04:55 1,8 C 94 % 994,1 hPa 0,0 l/m 20,0 km/h (4 Bft) SW 219 0 min 0,000 mm 0,0 UV-I 0 W/m 0,9 C -7,3 C 29,0 km/h (5 Bft) 100,00 %
10.02.2016 04:56 1,8 C 94 % 994,1 hPa 0,0 l/m 22,2 km/h (4 Bft) W-SW 247 0 min 0,000 mm 0,0 UV-I 0 W/m 0,9 C -8,2 C 30,6 km/h (5 Bft) 100,00 %
10.02.2016 04:57 1,8 C 94 % 994,1 hPa 0,0 l/m 17,6 km/h (3 Bft) SW 230 0 min 0,000 mm 0,0 UV-I 0 W/m 0,9 C -6,2 C 24,1 km/h (4 Bft) 100,00 %
10.02.2016 04:58 1,8 C 94 % 994,1 hPa 0,2 l/m 23,3 km/h (4 Bft) SW 227 0 min 0,000 mm 0,0 UV-I 0 W/m 0,9 C -8,7 C 27,4 km/h (4 Bft) 96,67 %
10.02.2016 04:59 1,7 C 94 % 994,1 hPa 0,0 l/m 16,8 km/h (3 Bft) SW 235 0 min 0,000 mm 0,0 UV-I 0 W/m 0,8 C -5,9 C 20,9 km/h (4 Bft) 100,00 %
10.02.2016 05:00 1,7 C 94 % 994,1 hPa 0,0 l/m 19,5 km/h (3 Bft) SW 218 0 min 0,000 mm 0,0 UV-I 0 W/m 0,8 C -7,2 C 27,4 km/h (4 Bft) 96,15 %
10.02.2016 05:01 1,7 C 94 % 994,1 hPa 0,0 l/m 18,8 km/h (3 Bft) S 191 0 min 0,000 mm 0,0 UV-I 0 W/m 0,8 C -6,9 C 25,7 km/h (4 Bft) 100,00 %
10.02.2016 05:02 1,7 C 94 % 994,0 hPa 0,0 l/m 18,7 km/h (3 Bft) SW 215 0 min 0,000 mm 0,0 UV-I 0 W/m 0,8 C -6,8 C 32,2 km/h (5 Bft) 100,00 %
10.02.2016 05:03 1,7 C 94 % 994,0 hPa 0,2 l/m 20,2 km/h (4 Bft) S-SW 212 0 min 0,000 mm 0,0 UV-I 0 W/m 0,8 C -7,5 C 27,4 km/h (4 Bft) 100,00 %
10.02.2016 05:04 1,7 C 94 % 994,0 hPa 0,0 l/m 22,0 km/h (4 Bft) W-SW 254 0 min 0,000 mm 0,0 UV-I 0 W/m 0,8 C -8,3 C 35,4 km/h (5 Bft) 100,00 %
10.02.2016 05:05 1,7 C 94 % 994,0 hPa 0,0 l/m 20,6 km/h (4 Bft) W-SW 254 0 min 0,000 mm 0,0 UV-I 0 W/m 0,8 C -7,7 C 25,7 km/h (4 Bft) 96,30 %
10.02.2016 05:06 1,7 C 94 % 994,0 hPa 0,0 l/m 15,3 km/h (3 Bft) W 261 0 min 0,000 mm 0,0 UV-I 0 W/m 0,8 C -5,1 C 19,3 km/h (3 Bft) 100,00 %
10.02.2016 05:07 1,7 C 94 % 994,0 hPa 0,2 l/m 21,5 km/h (4 Bft) W-SW 249 0 min 0,000 mm 0,0 UV-I 0 W/m 0,8 C -8,1 C 29,0 km/h (5 Bft) 100,00 %
10.02.2016 05:08 1,7 C 94 % 994,1 hPa 0,0 l/m 17,6 km/h (3 Bft) SW 215 0 min 0,000 mm 0,0 UV-I 0 W/m 0,8 C -6,3 C 24,1 km/h (4 Bft) 100,00 %
10.02.2016 05:09 1,7 C 94 % 994,1 hPa 0,0 l/m 17,6 km/h (3 Bft) W 265 0 min 0,000 mm 0,0 UV-I 0 W/m 0,8 C -6,3 C 24,1 km/h (4 Bft) 100,00 %
10.02.2016 05:10 1,7 C 94 % 994,1 hPa 0,0 l/m 17,3 km/h (3 Bft) W 262 0 min 0,000 mm 0,0 UV-I 0 W/m 0,8 C -6,2 C 25,7 km/h (4 Bft) 100,00 %
10.02.2016 05:11 1,7 C 94 % 994,2 hPa 0,0 l/m 18,3 km/h (3 Bft) W-SW 252 0 min 0,000 mm 0,0 UV-I 0 W/m 0,8 C -6,7 C 24,1 km/h (4 Bft) 100,00 %
10.02.2016 05:12 1,7 C 94 % 994,1 hPa 0,0 l/m 14,1 km/h (3 Bft) SW 234 0 min 0,000 mm 0,0 UV-I 0 W/m 0,8 C -4,4 C 19,3 km/h (3 Bft) 100,00 %
10.02.2016 05:13 1,8 C 94 % 994,1 hPa 0,0 l/m 19,1 km/h (3 Bft) SW 235 0 min 0,000 mm 0,0 UV-I 0 W/m 0,9 C -6,9 C 25,7 km/h (4 Bft) 100,00 %
10.02.2016 05:14 1,8 C 94 % 994,2 hPa 0,0 l/m 19,0 km/h (3 Bft) W-SW 240 0 min 0,000 mm 0,0 UV-I 0 W/m 0,9 C -6,9 C 24,1 km/h (4 Bft) 100,00 %
10.02.2016 05:15 1,8 C 94 % 994,2 hPa 0,0 l/m 15,1 km/h (3 Bft) W 264 0 min 0,000 mm 0,0 UV-I 0 W/m 0,9 C -4,9 C 19,3 km/h (3 Bft) 100,00 %
10.02.2016 05:16 1,8 C 94 % 994,2 hPa 0,2 l/m 12,7 km/h (3 Bft) W 268 0 min 0,000 mm 0,0 UV-I 0 W/m 0,9 C -3,4 C 19,3 km/h (3 Bft) 100,00 %
10.02.2016 05:17 1,8 C 94 % 994,3 hPa 0,0 l/m 15,0 km/h (3 Bft) SW 235 0 min 0,000 mm 0,0 UV-I 0 W/m 0,9 C -4,8 C 22,5 km/h (4 Bft) 100,00 %
10.02.2016 05:18 1,8 C 94 % 994,3 hPa 0,0 l/m 15,7 km/h (3 Bft) W-SW 250 0 min 0,000 mm 0,0 UV-I 0 W/m 0,9 C -5,2 C 20,9 km/h (4 Bft) 100,00 %
10.02.2016 05:19 1,8 C 94 % 994,3 hPa 0,0 l/m 16,9 km/h (3 Bft) W-SW 244 0 min 0,000 mm 0,0 UV-I 0 W/m 0,9 C -5,8 C 20,9 km/h (4 Bft) 100,00 %
10.02.2016 05:20 1,8 C 94 % 994,3 hPa 0,0 l/m 17,8 km/h (3 Bft) SW 234 0 min 0,000 mm 0,0 UV-I 0 W/m 0,9 C -6,3 C 27,4 km/h (4 Bft) 100,00 %
10.02.2016 05:21 1,8 C 95 % 994,3 hPa 0,0 l/m 15,9 km/h (3 Bft) SW 225 0 min 0,000 mm 0,0 UV-I 0 W/m 1,1 C -5,3 C 22,5 km/h (4 Bft) 100,00 %
10.02.2016 05:22 1,8 C 95 % 994,3 hPa 0,0 l/m 14,2 km/h (3 Bft) S-SW 202 0 min 0,000 mm 0,0 UV-I 0 W/m 1,1 C -4,3 C 19,3 km/h (3 Bft) 100,00 %
10.02.2016 05:23 1,9 C 94 % 994,3 hPa 0,0 l/m 21,7 km/h (4 Bft) W 261 0 min 0,000 mm 0,0 UV-I 0 W/m 1,0 C -7,9 C 27,4 km/h (4 Bft) 100,00 %
10.02.2016 05:24 1,9 C 94 % 994,3 hPa 0,0 l/m 19,6 km/h (3 Bft) W-SW 250 0 min 0,000 mm 0,0 UV-I 0 W/m 1,0 C -7,0 C 25,7 km/h (4 Bft) 100,00 %
10.02.2016 05:25 1,9 C 94 % 994,2 hPa 0,0 l/m 16,4 km/h (3 Bft) W 263 0 min 0,000 mm 0,0 UV-I 0 W/m 1,0 C -5,4 C 19,3 km/h (3 Bft) 100,00 %
10.02.2016 05:26 2,0 C 94 % 994,2 hPa 0,0 l/m 15,1 km/h (3 Bft) W 277 0 min 0,000 mm 0,0 UV-I 0 W/m 1,1 C -4,6 C 27,4 km/h (4 Bft) 99,04 %
10.02.2016 05:27 2,0 C 94 % 994,2 hPa 0,0 l/m 17,9 km/h (3 Bft) W 263 0 min 0,000 mm 0,0 UV-I 0 W/m 1,1 C -6,1 C 24,1 km/h (4 Bft) 100,00 %
10.02.2016 05:28 2,1 C 94 % 994,3 hPa 0,0 l/m 14,1 km/h (3 Bft) SW 236 0 min 0,000 mm 0,0 UV-I 0 W/m 1,2 C -3,9 C 19,3 km/h (3 Bft) 100,00 %
10.02.2016 05:29 2,1 C 94 % 994,2 hPa 0,0 l/m 12,6 km/h (3 Bft) W-SW 240 0 min 0,000 mm 0,0 UV-I 0 W/m 1,2 C -3,0 C 17,7 km/h (3 Bft) 100,00 %
10.02.2016 05:30 2,1 C 94 % 994,2 hPa 0,0 l/m 15,5 km/h (3 Bft) W-SW 242 0 min 0,000 mm 0,0 UV-I 0 W/m 1,2 C -4,7 C 22,5 km/h (4 Bft) 95,83 %
10.02.2016 05:31 2,2 C 93 % 994,3 hPa 0,0 l/m 15,8 km/h (3 Bft) W-SW 242 0 min 0,000 mm 0,0 UV-I 0 W/m 1,2 C -4,8 C 24,1 km/h (4 Bft) 85,71 %
10.02.2016 05:32 2,2 C 93 % 994,3 hPa 0,0 l/m 16,7 km/h (3 Bft) W 259 0 min 0,000 mm 0,0 UV-I 0 W/m 1,2 C -5,2 C 22,5 km/h (4 Bft) 100,00 %
10.02.2016 05:33 2,2 C 93 % 994,2 hPa 0,0 l/m 14,5 km/h (3 Bft) W-SW 255 0 min 0,000 mm 0,0 UV-I 0 W/m 1,2 C -4,0 C 24,1 km/h (4 Bft) 100,00 %
10.02.2016 05:34 2,2 C 93 % 994,1 hPa 0,0 l/m 20,4 km/h (4 Bft) W-SW 254 0 min 0,000 mm 0,0 UV-I 0 W/m 1,2 C -7,0 C 29,0 km/h (5 Bft) 92,59 %
10.02.2016 05:35 2,2 C 93 % 994,1 hPa 0,0 l/m 19,3 km/h (3 Bft) W-SW 250 0 min 0,000 mm 0,0 UV-I 0 W/m 1,2 C -6,5 C 27,4 km/h (4 Bft) 100,00 %
10.02.2016 05:36 2,3 C 93 % 994,1 hPa 0,0 l/m 27,6 km/h (4 Bft) W 260 0 min 0,000 mm 0,0 UV-I 0 W/m 1,3 C -9,5 C 40,2 km/h (6 Bft) 100,00 %
10.02.2016 05:37 2,3 C 93 % 994,1 hPa 0,0 l/m 15,9 km/h (3 Bft) W-SW 254 0 min 0,000 mm 0,0 UV-I 0 W/m 1,3 C -4,7 C 20,9 km/h (4 Bft) 100,00 %
10.02.2016 05:38 2,3 C 92 % 994,1 hPa 0,0 l/m 20,8 km/h (4 Bft) SW 233 0 min 0,000 mm 0,0 UV-I 0 W/m 1,1 C -7,0 C 33,8 km/h (5 Bft) 100,00 %
10.02.2016 05:39 2,3 C 92 % 994,1 hPa 0,0 l/m 16,0 km/h (3 Bft) W 261 0 min 0,000 mm 0,0 UV-I 0 W/m 1,1 C -4,7 C 22,5 km/h (4 Bft) 96,15 %
10.02.2016 05:40 2,3 C 92 % 994,2 hPa 0,0 l/m 16,1 km/h (3 Bft) SW 227 0 min 0,000 mm 0,0 UV-I 0 W/m 1,1 C -4,8 C 19,3 km/h (3 Bft) 96,30 %
10.02.2016 05:41 2,3 C 92 % 994,1 hPa 0,0 l/m 20,6 km/h (4 Bft) W 273 0 min 0,000 mm 0,0 UV-I 0 W/m 1,1 C -6,9 C 29,0 km/h (5 Bft) 100,00 %
10.02.2016 05:42 2,4 C 92 % 994,1 hPa 0,0 l/m 20,1 km/h (4 Bft) W 259 0 min 0,000 mm 0,0 UV-I 0 W/m 1,2 C -6,6 C 24,1 km/h (4 Bft) 96,15 %
10.02.2016 05:43 2,4 C 92 % 994,1 hPa 0,0 l/m 18,8 km/h (3 Bft) W-SW 248 0 min 0,000 mm 0,0 UV-I 0 W/m 1,2 C -6,0 C 25,7 km/h (4 Bft) 93,10 %
10.02.2016 05:44 2,4 C 91 % 994,1 hPa 0,0 l/m 19,3 km/h (3 Bft) W-SW 254 0 min 0,000 mm 0,0 UV-I 0 W/m 1,1 C -6,2 C 27,4 km/h (4 Bft) 93,33 %
10.02.2016 05:45 2,4 C 91 % 994,1 hPa 0,0 l/m 20,3 km/h (4 Bft) W-SW 242 0 min 0,000 mm 0,0 UV-I 0 W/m 1,1 C -6,7 C 30,6 km/h (5 Bft) 100,00 %
10.02.2016 05:46 2,4 C 91 % 994,1 hPa 0,0 l/m 19,3 km/h (3 Bft) S 184 0 min 0,000 mm 0,0 UV-I 0 W/m 1,1 C -6,2 C 22,5 km/h (4 Bft) 91,30 %
10.02.2016 05:47 2,4 C 91 % 994,1 hPa 0,0 l/m 14,7 km/h (3 Bft) W 259 0 min 0,000 mm 0,0 UV-I 0 W/m 1,1 C -3,9 C 19,3 km/h (3 Bft) 96,30 %
10.02.2016 05:48 2,4 C 91 % 994,1 hPa 0,0 l/m 13,9 km/h (3 Bft) W-SW 254 0 min 0,000 mm 0,0 UV-I 0 W/m 1,1 C -3,4 C 19,3 km/h (3 Bft) 100,00 %
10.02.2016 05:49 2,4 C 91 % 994,1 hPa 0,0 l/m 16,7 km/h (3 Bft) W-SW 242 0 min 0,000 mm 0,0 UV-I 0 W/m 1,1 C -5,0 C 24,1 km/h (4 Bft) 92,59 %
10.02.2016 05:50 2,4 C 91 % 994,1 hPa 0,0 l/m 20,4 km/h (4 Bft) W 269 0 min 0,000 mm 0,0 UV-I 0 W/m 1,1 C -6,7 C 27,4 km/h (4 Bft) 100,00 %
10.02.2016 05:51 2,4 C 91 % 994,1 hPa 0,0 l/m 17,1 km/h (3 Bft) W-SW 246 0 min 0,000 mm 0,0 UV-I 0 W/m 1,1 C -5,2 C 22,5 km/h (4 Bft) 96,30 %
10.02.2016 05:52 2,4 C 91 % 994,1 hPa 0,0 l/m 22,3 km/h (4 Bft) W 273 0 min 0,000 mm 0,0 UV-I 0 W/m 1,1 C -7,5 C 32,2 km/h (5 Bft) 96,15 %
10.02.2016 05:53 2,4 C 91 % 994,1 hPa 0,0 l/m 12,5 km/h (3 Bft) SW 231 0 min 0,000 mm 0,0 UV-I 0 W/m 1,1 C -2,6 C 17,7 km/h (3 Bft) 91,67 %
10.02.2016 05:54 2,4 C 91 % 994,1 hPa 0,0 l/m 20,0 km/h (4 Bft) W-SW 243 0 min 0,000 mm 0,0 UV-I 0 W/m 1,1 C -6,5 C 24,1 km/h (4 Bft) 100,00 %
10.02.2016 05:55 2,4 C 91 % 994,1 hPa 0,0 l/m 13,6 km/h (3 Bft) W 273 0 min 0,000 mm 0,0 UV-I 0 W/m 1,1 C -3,3 C 22,5 km/h (4 Bft) 96,30 %
10.02.2016 05:56 2,4 C 91 % 994,0 hPa 0,0 l/m 16,6 km/h (3 Bft) SW 229 0 min 0,000 mm 0,0 UV-I 0 W/m 1,1 C -4,9 C 22,5 km/h (4 Bft) 94,12 %
10.02.2016 05:57 2,4 C 91 % 994,0 hPa 0,0 l/m 13,3 km/h (3 Bft) SW 236 0 min 0,000 mm 0,0 UV-I 0 W/m 1,1 C -3,1 C 17,7 km/h (3 Bft) 96,30 %
10.02.2016 05:58 2,4 C 91 % 994,0 hPa 0,0 l/m 19,1 km/h (3 Bft) W-SW 250 0 min 0,000 mm 0,0 UV-I 0 W/m 1,1 C -6,1 C 24,1 km/h (4 Bft) 96,15 %
10.02.2016 05:59 2,4 C 91 % 994,0 hPa 0,0 l/m 18,9 km/h (3 Bft) W-SW 257 0 min 0,000 mm 0,0 UV-I 0 W/m 1,1 C -6,0 C 25,7 km/h (4 Bft) 98,47 %
10.02.2016 06:00 2,4 C 91 % 994,0 hPa 0,0 l/m 15,3 km/h (3 Bft) SW 236 0 min 0,000 mm 0,0 UV-I 0 W/m 1,1 C -4,2 C 19,3 km/h (3 Bft) 97,73 %
10.02.2016 06:01 2,4 C 91 % 994,0 hPa 0,0 l/m 19,9 km/h (4 Bft) SW 228 0 min 0,000 mm 0,0 UV-I 0 W/m 1,1 C -6,5 C 32,2 km/h (5 Bft) 96,30 %
10.02.2016 06:02 2,4 C 91 % 994,0 hPa 0,2 l/m 18,5 km/h (3 Bft) W 267 0 min 0,000 mm 0,0 UV-I 0 W/m 1,1 C -5,9 C 27,4 km/h (4 Bft) 86,67 %
10.02.2016 06:03 2,4 C 91 % 993,9 hPa 0,0 l/m 16,1 km/h (3 Bft) W-SW 257 0 min 0,000 mm 0,0 UV-I 0 W/m 1,1 C -4,7 C 22,5 km/h (4 Bft) 96,55 %
10.02.2016 06:04 2,4 C 91 % 993,9 hPa 0,0 l/m 16,7 km/h (3 Bft) W-SW 249 0 min 0,000 mm 0,0 UV-I 0 W/m 1,1 C -5,0 C 27,4 km/h (4 Bft) 100,00 %
10.02.2016 06:05 2,4 C 91 % 993,9 hPa 0,0 l/m 17,4 km/h (3 Bft) W-SW 252 0 min 0,000 mm 0,0 UV-I 0 W/m 1,1 C -5,3 C 22,5 km/h (4 Bft) 92,86 %
10.02.2016 06:06 2,5 C 91 % 993,9 hPa 0,0 l/m 16,0 km/h (3 Bft) W 260 0 min 0,000 mm 0,0 UV-I 0 W/m 1,2 C -4,5 C 20,9 km/h (4 Bft) 100,00 %
10.02.2016 06:07 2,5 C 91 % 993,9 hPa 0,0 l/m 16,8 km/h (3 Bft) SW 227 0 min 0,000 mm 0,0 UV-I 0 W/m 1,2 C -4,9 C 24,1 km/h (4 Bft) 96,15 %
10.02.2016 06:08 2,5 C 91 % 993,9 hPa 0,0 l/m 15,9 km/h (3 Bft) SW 236 0 min 0,000 mm 0,0 UV-I 0 W/m 1,2 C -4,4 C 24,1 km/h (4 Bft) 100,00 %
10.02.2016 06:09 2,5 C 90 % 994,0 hPa 0,0 l/m 13,9 km/h (3 Bft) W-SW 243 0 min 0,000 mm 0,0 UV-I 0 W/m 1,0 C -3,3 C 20,9 km/h (4 Bft) 96,15 %
10.02.2016 06:10 2,5 C 90 % 993,9 hPa 0,0 l/m 16,2 km/h (3 Bft) W 277 0 min 0,000 mm 0,0 UV-I 0 W/m 1,0 C -4,6 C 20,9 km/h (4 Bft) 100,00 %
10.02.2016 06:11 2,5 C 90 % 993,9 hPa 0,0 l/m 19,4 km/h (3 Bft) SW 236 0 min 0,000 mm 0,0 UV-I 0 W/m 1,0 C -6,1 C 30,6 km/h (5 Bft) 96,15 %
10.02.2016 06:12 2,5 C 90 % 993,9 hPa 0,0 l/m 19,8 km/h (3 Bft) SW 219 0 min 0,000 mm 0,0 UV-I 0 W/m 1,0 C -6,3 C 27,4 km/h (4 Bft) 95,83 %
10.02.2016 06:13 2,5 C 90 % 993,9 hPa 0,0 l/m 18,1 km/h (3 Bft) SW 232 0 min 0,000 mm 0,0 UV-I 0 W/m 1,0 C -5,5 C 25,7 km/h (4 Bft) 100,00 %
10.02.2016 06:14 2,5 C 90 % 993,9 hPa 0,0 l/m 15,6 km/h (3 Bft) W-SW 254 0 min 0,000 mm 0,0 UV-I 0 W/m 1,0 C -4,3 C 22,5 km/h (4 Bft) 98,32 %
10.02.2016 06:15 2,5 C 90 % 994,0 hPa 0,0 l/m 16,6 km/h (3 Bft) W-SW 240 0 min 0,000 mm 0,0 UV-I 0 W/m 1,0 C -4,8 C 25,7 km/h (4 Bft) 97,56 %
10.02.2016 06:16 2,6 C 90 % 994,0 hPa 0,0 l/m 16,0 km/h (3 Bft) SW 230 0 min 0,000 mm 0,0 UV-I 0 W/m 1,1 C -4,4 C 22,5 km/h (4 Bft) 95,83 %
10.02.2016 06:17 2,6 C 90 % 994,0 hPa 0,0 l/m 14,8 km/h (3 Bft) W 268 0 min 0,000 mm 0,0 UV-I 0 W/m 1,1 C -3,7 C 19,3 km/h (3 Bft) 95,65 %
10.02.2016 06:18 2,6 C 90 % 993,9 hPa 0,0 l/m 18,8 km/h (3 Bft) S-SW 209 0 min 0,000 mm 0,0 UV-I 0 W/m 1,1 C -5,7 C 29,0 km/h (5 Bft) 100,00 %
10.02.2016 06:19 2,6 C 90 % 993,9 hPa 0,0 l/m 18,2 km/h (3 Bft) W-SW 252 0 min 0,000 mm 0,0 UV-I 0 W/m 1,1 C -5,5 C 22,5 km/h (4 Bft) 100,00 %
10.02.2016 06:20 2,6 C 90 % 994,0 hPa 0,0 l/m 15,0 km/h (3 Bft) SW 215 0 min 0,000 mm 0,0 UV-I 0 W/m 1,1 C -3,8 C 25,7 km/h (4 Bft) 100,00 %
10.02.2016 06:21 2,6 C 90 % 993,9 hPa 0,0 l/m 19,7 km/h (3 Bft) W-SW 246 0 min 0,000 mm 0,0 UV-I 0 W/m 1,1 C -6,1 C 24,1 km/h (4 Bft) 100,00 %
10.02.2016 06:22 2,6 C 90 % 993,9 hPa 0,0 l/m 19,2 km/h (3 Bft) W-SW 248 0 min 0,000 mm 0,0 UV-I 0 W/m 1,1 C -5,9 C 22,5 km/h (4 Bft) 100,00 %
10.02.2016 06:23 2,6 C 90 % 994,0 hPa 0,0 l/m 17,8 km/h (3 Bft) SW 219 0 min 0,000 mm 0,0 UV-I 0 W/m 1,1 C -5,3 C 22,5 km/h (4 Bft) 100,00 %
10.02.2016 06:24 2,6 C 90 % 994,0 hPa 0,0 l/m 15,2 km/h (3 Bft) SW 215 0 min 0,000 mm 0,0 UV-I 0 W/m 1,1 C -3,9 C 20,9 km/h (4 Bft) 100,00 %
10.02.2016 06:25 2,6 C 90 % 994,0 hPa 0,0 l/m 14,9 km/h (3 Bft) SW 214 0 min 0,000 mm 0,0 UV-I 0 W/m 1,1 C -3,8 C 20,9 km/h (4 Bft) 83,33 %
10.02.2016 06:26 2,6 C 90 % 994,0 hPa 0,0 l/m 18,2 km/h (3 Bft) SW 234 0 min 0,000 mm 0,0 UV-I 0 W/m 1,1 C -5,5 C 25,7 km/h (4 Bft) 92,86 %
10.02.2016 06:27 2,6 C 89 % 994,0 hPa 0,0 l/m 20,4 km/h (4 Bft) W-SW 246 0 min 0,000 mm 0,0 UV-I 0 W/m 1,0 C -6,4 C 27,4 km/h (4 Bft) 100,00 %
10.02.2016 06:28 2,6 C 89 % 994,0 hPa 0,0 l/m 14,2 km/h (3 Bft) W-SW 250 0 min 0,000 mm 0,0 UV-I 0 W/m 1,0 C -3,4 C 17,7 km/h (3 Bft) 92,86 %
10.02.2016 06:29 2,6 C 89 % 994,0 hPa 0,0 l/m 17,0 km/h (3 Bft) W 267 0 min 0,000 mm 0,0 UV-I 0 W/m 1,0 C -4,9 C 22,5 km/h (4 Bft) 100,00 %
10.02.2016 06:30 2,6 C 89 % 994,0 hPa 0,0 l/m 20,1 km/h (4 Bft) W 261 0 min 0,000 mm 0,0 UV-I 0 W/m 1,0 C -6,3 C 27,4 km/h (4 Bft) 100,00 %
10.02.2016 06:31 2,6 C 89 % 994,0 hPa 0,0 l/m 21,3 km/h (4 Bft) W-SW 255 0 min 0,000 mm 0,0 UV-I 0 W/m 1,0 C -6,8 C 27,4 km/h (4 Bft) 100,00 %
10.02.2016 06:32 2,6 C 89 % 994,0 hPa 0,0 l/m 24,0 km/h (4 Bft) W-SW 244 0 min 0,000 mm 0,0 UV-I 0 W/m 1,0 C -7,8 C 30,6 km/h (5 Bft) 100,00 %
10.02.2016 06:33 2,6 C 89 % 994,1 hPa 0,0 l/m 18,7 km/h (3 Bft) W-SW 254 0 min 0,000 mm 0,0 UV-I 0 W/m 1,0 C -5,7 C 24,1 km/h (4 Bft) 100,00 %
10.02.2016 06:34 2,6 C 89 % 994,1 hPa 0,0 l/m 18,8 km/h (3 Bft) W 262 0 min 0,000 mm 0,0 UV-I 0 W/m 1,0 C -5,7 C 27,4 km/h (4 Bft) 91,30 %
10.02.2016 06:35 2,6 C 89 % 994,1 hPa 0,0 l/m 26,3 km/h (4 Bft) W-SW 243 0 min 0,000 mm 0,0 UV-I 0 W/m 1,0 C -8,6 C 37,0 km/h (5 Bft) 100,00 %
10.02.2016 06:36 2,6 C 89 % 994,1 hPa 0,0 l/m 19,8 km/h (3 Bft) W-SW 250 0 min 0,000 mm 0,0 UV-I 0 W/m 1,0 C -6,2 C 25,7 km/h (4 Bft) 100,00 %
10.02.2016 06:37 2,6 C 89 % 994,1 hPa 0,0 l/m 20,0 km/h (4 Bft) W 261 0 min 0,000 mm 0,0 UV-I 0 W/m 1,0 C -6,3 C 30,6 km/h (5 Bft) 100,00 %
10.02.2016 06:38 2,6 C 89 % 994,1 hPa 0,0 l/m 20,0 km/h (4 Bft) W 266 0 min 0,000 mm 0,0 UV-I 0 W/m 1,0 C -6,3 C 25,7 km/h (4 Bft) 100,00 %
10.02.2016 06:39 2,6 C 89 % 994,1 hPa 0,0 l/m 20,1 km/h (4 Bft) W-SW 252 0 min 0,000 mm 0,0 UV-I 0 W/m 1,0 C -6,3 C 24,1 km/h (4 Bft) 100,00 %
10.02.2016 06:40 2,6 C 89 % 994,2 hPa 0,0 l/m 16,5 km/h (3 Bft) W 259 0 min 0,000 mm 0,0 UV-I 0 W/m 1,0 C -4,6 C 24,1 km/h (4 Bft) 100,00 %
10.02.2016 06:41 2,6 C 89 % 994,1 hPa 0,0 l/m 17,9 km/h (3 Bft) W-SW 243 0 min 0,000 mm 0,0 UV-I 0 W/m 1,0 C -5,3 C 24,1 km/h (4 Bft) 100,00 %
10.02.2016 06:42 2,6 C 89 % 994,1 hPa 0,0 l/m 14,6 km/h (3 Bft) W 259 0 min 0,000 mm 0,0 UV-I 0 W/m 1,0 C -3,6 C 19,3 km/h (3 Bft) 100,00 %
10.02.2016 06:43 2,6 C 89 % 994,2 hPa 0,0 l/m 18,0 km/h (3 Bft) SW 233 0 min 0,000 mm 0,0 UV-I 0 W/m 1,0 C -5,4 C 22,5 km/h (4 Bft) 100,00 %
10.02.2016 06:45 2,6 C 89 % 994,1 hPa 0,0 l/m 17,7 km/h (3 Bft) W-SW 247 0 min 0,000 mm 0,0 UV-I 0 W/m 1,0 C -5,2 C 27,4 km/h (4 Bft) 97,37 %
10.02.2016 06:46 2,6 C 89 % 994,1 hPa 0,0 l/m 13,7 km/h (3 Bft) SW 227 0 min 0,000 mm 0,0 UV-I 0 W/m 1,0 C -3,1 C 14,5 km/h (3 Bft) 100,00 %
10.02.2016 06:47 2,6 C 89 % 994,2 hPa 0,0 l/m 21,1 km/h (4 Bft) W 277 0 min 0,000 mm 0,0 UV-I 0 W/m 1,0 C -6,7 C 32,2 km/h (5 Bft) 100,00 %
10.02.2016 06:48 2,6 C 89 % 994,1 hPa 0,0 l/m 20,6 km/h (4 Bft) W-SW 251 0 min 0,000 mm 0,0 UV-I 0 W/m 1,0 C -6,5 C 30,6 km/h (5 Bft) 95,83 %
10.02.2016 06:49 2,6 C 89 % 994,2 hPa 0,0 l/m 16,0 km/h (3 Bft) W-SW 237 0 min 0,000 mm 0,0 UV-I 0 W/m 1,0 C -4,4 C 29,0 km/h (5 Bft) 100,00 %
10.02.2016 06:50 2,6 C 89 % 994,2 hPa 0,0 l/m 26,4 km/h (4 Bft) W-SW 248 0 min 0,000 mm 0,0 UV-I 0 W/m 1,0 C -8,7 C 33,8 km/h (5 Bft) 100,00 %
10.02.2016 06:51 2,6 C 89 % 994,2 hPa 0,0 l/m 19,6 km/h (3 Bft) SW 236 0 min 0,000 mm 0,0 UV-I 0 W/m 1,0 C -6,1 C 25,7 km/h (4 Bft) 96,55 %
10.02.2016 06:52 2,6 C 89 % 994,3 hPa 0,0 l/m 16,6 km/h (3 Bft) SW 235 0 min 0,000 mm 0,0 UV-I 0 W/m 1,0 C -4,7 C 25,7 km/h (4 Bft) 93,33 %
10.02.2016 06:53 2,6 C 89 % 994,4 hPa 0,0 l/m 20,3 km/h (4 Bft) W 266 0 min 0,000 mm 0,0 UV-I 0 W/m 1,0 C -6,4 C 25,7 km/h (4 Bft) 93,33 %
10.02.2016 06:54 2,6 C 89 % 994,4 hPa 0,0 l/m 20,1 km/h (4 Bft) W-SW 250 0 min 0,000 mm 0,0 UV-I 0 W/m 1,0 C -6,3 C 24,1 km/h (4 Bft) 97,56 %
10.02.2016 06:55 2,6 C 89 % 994,4 hPa 0,0 l/m 16,9 km/h (3 Bft) W-SW 250 0 min 0,000 mm 0,0 UV-I 0 W/m 1,0 C -4,8 C 24,1 km/h (4 Bft) 100,00 %
10.02.2016 06:56 2,5 C 89 % 994,4 hPa 0,0 l/m 16,6 km/h (3 Bft) W-SW 252 0 min 0,000 mm 0,0 UV-I 0 W/m 0,9 C -4,8 C 22,5 km/h (4 Bft) 98,38 %
10.02.2016 06:57 2,5 C 89 % 994,4 hPa 0,0 l/m 14,4 km/h (3 Bft) W-SW 257 0 min 0,000 mm 0,0 UV-I 0 W/m 0,9 C -3,6 C 20,9 km/h (4 Bft) 100,00 %
10.02.2016 06:58 2,5 C 89 % 994,4 hPa 0,0 l/m 20,0 km/h (4 Bft) W-SW 256 0 min 0,000 mm 0,0 UV-I 0 W/m 0,9 C -6,4 C 27,4 km/h (4 Bft) 100,00 %
10.02.2016 06:59 2,5 C 89 % 994,4 hPa 0,0 l/m 18,3 km/h (3 Bft) W 271 0 min 0,000 mm 0,0 UV-I 0 W/m 0,9 C -5,6 C 22,5 km/h (4 Bft) 100,00 %
10.02.2016 07:00 2,5 C 90 % 994,4 hPa 0,0 l/m 15,5 km/h (3 Bft) W 269 0 min 0,025 mm 0,0 UV-I 0 W/m 1,0 C -4,2 C 20,9 km/h (4 Bft) 100,00 %
10.02.2016 07:01 2,4 C 90 % 994,4 hPa 0,0 l/m 16,1 km/h (3 Bft) SW 234 0 min 0,000 mm 0,0 UV-I 0 W/m 0,9 C -4,7 C 20,9 km/h (4 Bft) 100,00 %
10.02.2016 07:02 2,4 C 90 % 994,4 hPa 0,0 l/m 16,2 km/h (3 Bft) W-SW 248 0 min 0,000 mm 0,0 UV-I 0 W/m 0,9 C -4,7 C 22,5 km/h (4 Bft) 100,00 %
10.02.2016 07:03 2,4 C 90 % 994,4 hPa 0,0 l/m 20,4 km/h (4 Bft) W 269 0 min 0,000 mm 0,0 UV-I 0 W/m 0,9 C -6,7 C 29,0 km/h (5 Bft) 100,00 %
10.02.2016 07:04 2,4 C 90 % 994,3 hPa 0,0 l/m 21,3 km/h (4 Bft) W-SW 257 0 min 0,000 mm 0,0 UV-I 0 W/m 0,9 C -7,1 C 35,4 km/h (5 Bft) 100,00 %
10.02.2016 07:05 2,4 C 90 % 994,3 hPa 0,0 l/m 19,5 km/h (3 Bft) W-SW 251 0 min 0,000 mm 0,0 UV-I 0 W/m 0,9 C -6,3 C 24,1 km/h (4 Bft) 96,15 %
10.02.2016 07:06 2,4 C 90 % 994,3 hPa 0,0 l/m 12,6 km/h (3 Bft) W 263 0 min 0,000 mm 0,0 UV-I 0 W/m 0,9 C -2,6 C 22,5 km/h (4 Bft) 100,00 %
10.02.2016 07:07 2,4 C 90 % 994,3 hPa 0,0 l/m 22,4 km/h (4 Bft) SW 220 0 min 0,000 mm 0,0 UV-I 0 W/m 0,9 C -7,5 C 27,4 km/h (4 Bft) 100,00 %
10.02.2016 07:08 2,3 C 90 % 994,3 hPa 0,0 l/m 15,9 km/h (3 Bft) SW 229 0 min 0,000 mm 0,0 UV-I 0 W/m 0,8 C -4,7 C 24,1 km/h (4 Bft) 96,15 %
10.02.2016 07:09 2,3 C 90 % 994,3 hPa 0,0 l/m 19,0 km/h (3 Bft) W-SW 246 0 min 0,000 mm 0,0 UV-I 0 W/m 0,8 C -6,2 C 24,1 km/h (4 Bft) 96,67 %
10.02.2016 07:10 2,3 C 90 % 994,3 hPa 0,0 l/m 19,0 km/h (3 Bft) W-SW 250 0 min 0,000 mm 0,0 UV-I 0 W/m 0,8 C -6,2 C 24,1 km/h (4 Bft) 100,00 %
10.02.2016 07:11 2,3 C 90 % 994,3 hPa 0,0 l/m 19,4 km/h (3 Bft) W 261 0 min 0,000 mm 0,0 UV-I 0 W/m 0,8 C -6,4 C 24,1 km/h (4 Bft) 96,67 %
10.02.2016 07:12 2,3 C 90 % 994,3 hPa 0,0 l/m 15,2 km/h (3 Bft) SW 233 0 min 0,000 mm 0,0 UV-I 0 W/m 0,8 C -4,3 C 22,5 km/h (4 Bft) 100,00 %
10.02.2016 07:13 2,3 C 91 % 994,3 hPa 0,0 l/m 17,7 km/h (3 Bft) W-SW 253 0 min 0,000 mm 0,0 UV-I 0 W/m 1,0 C -5,6 C 24,1 km/h (4 Bft) 100,00 %
10.02.2016 07:14 2,3 C 91 % 994,3 hPa 0,0 l/m 16,9 km/h (3 Bft) W-SW 243 0 min 0,000 mm 0,0 UV-I 0 W/m 1,0 C -5,2 C 22,5 km/h (4 Bft) 100,00 %
10.02.2016 07:15 2,2 C 91 % 994,3 hPa 0,0 l/m 17,7 km/h (3 Bft) W-SW 245 0 min 0,000 mm 0,0 UV-I 0 W/m 0,9 C -5,7 C 27,4 km/h (4 Bft) 100,00 %
10.02.2016 07:16 2,2 C 91 % 994,3 hPa 0,0 l/m 16,6 km/h (3 Bft) W-SW 246 0 min 0,000 mm 0,0 UV-I 0 W/m 0,9 C -5,2 C 20,9 km/h (4 Bft) 100,00 %
10.02.2016 07:17 2,2 C 91 % 994,3 hPa 0,0 l/m 16,8 km/h (3 Bft) SW 217 0 min 0,000 mm 0,0 UV-I 0 W/m 0,9 C -5,3 C 20,9 km/h (4 Bft) 100,00 %
10.02.2016 07:18 2,2 C 91 % 994,4 hPa 0,0 l/m 15,5 km/h (3 Bft) W-SW 249 0 min 0,000 mm 0,0 UV-I 0 W/m 0,9 C -4,6 C 19,3 km/h (3 Bft) 100,00 %
10.02.2016 07:19 2,2 C 91 % 994,3 hPa 0,0 l/m 14,2 km/h (3 Bft) SW 221 0 min 0,000 mm 0,0 UV-I 0 W/m 0,9 C -3,9 C 19,3 km/h (3 Bft) 96,67 %
10.02.2016 07:20 2,2 C 91 % 994,3 hPa 0,2 l/m 18,1 km/h (3 Bft) SW 223 0 min 0,000 mm 0,0 UV-I 0 W/m 0,9 C -5,9 C 24,1 km/h (4 Bft) 100,00 %
10.02.2016 07:21 2,2 C 91 % 994,3 hPa 0,0 l/m 19,5 km/h (3 Bft) W 263 0 min 0,000 mm 0,0 UV-I 0 W/m 0,9 C -6,6 C 24,1 km/h (4 Bft) 96,15 %
10.02.2016 07:22 2,2 C 91 % 994,3 hPa 0,0 l/m 17,8 km/h (3 Bft) W-SW 242 0 min 0,000 mm 0,0 UV-I 0 W/m 0,9 C -5,8 C 22,5 km/h (4 Bft) 100,00 %
10.02.2016 07:23 2,2 C 91 % 994,4 hPa 0,0 l/m 14,2 km/h (3 Bft) SW 223 0 min 0,000 mm 0,0 UV-I 0 W/m 0,9 C -3,9 C 20,9 km/h (4 Bft) 100,00 %
10.02.2016 07:24 2,2 C 91 % 994,4 hPa 0,0 l/m 14,3 km/h (3 Bft) W 269 0 min 0,000 mm 0,0 UV-I 0 W/m 0,9 C -3,9 C 19,3 km/h (3 Bft) 100,00 %
10.02.2016 07:25 2,2 C 91 % 994,3 hPa 0,0 l/m 17,5 km/h (3 Bft) W 263 0 min 0,000 mm 0,0 UV-I 0 W/m 0,9 C -5,6 C 24,1 km/h (4 Bft) 100,00 %
10.02.2016 07:26 2,2 C 92 % 994,3 hPa 0,0 l/m 20,1 km/h (4 Bft) W-SW 248 0 min 0,000 mm 0,0 UV-I 0 W/m 1,0 C -6,8 C 27,4 km/h (4 Bft) 100,00 %
10.02.2016 07:27 2,2 C 92 % 994,4 hPa 0,0 l/m 15,0 km/h (3 Bft) SW 220 0 min 0,000 mm 0,0 UV-I 0 W/m 1,0 C -4,3 C 19,3 km/h (3 Bft) 100,00 %
10.02.2016 07:28 2,2 C 92 % 994,4 hPa 0,0 l/m 18,2 km/h (3 Bft) SW 217 0 min 0,000 mm 0,0 UV-I 0 W/m 1,0 C -6,0 C 24,1 km/h (4 Bft) 95,83 %
10.02.2016 07:29 2,2 C 91 % 994,4 hPa 0,0 l/m 17,7 km/h (3 Bft) W-SW 240 0 min 0,000 mm 0,0 UV-I 0 W/m 0,9 C -5,7 C 24,1 km/h (4 Bft) 100,00 %
10.02.2016 07:30 2,2 C 92 % 994,4 hPa 0,0 l/m 19,2 km/h (3 Bft) W-NW 282 0 min 0,000 mm 0,0 UV-I 0 W/m 1,0 C -6,4 C 25,7 km/h (4 Bft) 100,00 %
10.02.2016 07:31 2,1 C 92 % 994,4 hPa 0,0 l/m 15,5 km/h (3 Bft) W-SW 246 0 min 0,000 mm 0,0 UV-I 0 W/m 0,9 C -4,7 C 22,5 km/h (4 Bft) 95,65 %
10.02.2016 07:32 2,1 C 92 % 994,4 hPa 0,0 l/m 17,5 km/h (3 Bft) SW 224 0 min 0,000 mm 0,0 UV-I 0 W/m 0,9 C -5,8 C 24,1 km/h (4 Bft) 100,00 %
10.02.2016 07:33 2,1 C 92 % 994,4 hPa 0,0 l/m 15,1 km/h (3 Bft) W 271 0 min 0,000 mm 0,0 UV-I 0 W/m 0,9 C -4,5 C 22,5 km/h (4 Bft) 100,00 %
10.02.2016 07:34 2,1 C 92 % 994,3 hPa 0,0 l/m 15,2 km/h (3 Bft) W 259 0 min 0,000 mm 0,0 UV-I 0 W/m 0,9 C -4,5 C 24,1 km/h (4 Bft) 100,00 %
10.02.2016 07:35 2,1 C 92 % 994,3 hPa 0,0 l/m 19,0 km/h (3 Bft) W-SW 252 0 min 0,000 mm 0,0 UV-I 0 W/m 0,9 C -6,5 C 24,1 km/h (4 Bft) 100,00 %
10.02.2016 07:36 2,1 C 92 % 994,3 hPa 0,0 l/m 15,2 km/h (3 Bft) SW 233 0 min 0,000 mm 0,0 UV-I 0 W/m 0,9 C -4,5 C 20,9 km/h (4 Bft) 96,30 %
10.02.2016 07:37 2,1 C 92 % 994,4 hPa 0,0 l/m 19,4 km/h (3 Bft) W 263 0 min 0,000 mm 0,0 UV-I 0 W/m 0,9 C -6,7 C 25,7 km/h (4 Bft) 100,00 %
10.02.2016 07:38 2,1 C 92 % 994,4 hPa 0,0 l/m 15,1 km/h (3 Bft) SW 216 0 min 0,000 mm 0,0 UV-I 1 W/m 0,9 C -4,5 C 20,9 km/h (4 Bft) 100,00 %
10.02.2016 07:39 2,1 C 92 % 994,4 hPa 0,0 l/m 18,1 km/h (3 Bft) W-SW 251 0 min 0,000 mm 0,0 UV-I 5 W/m 0,9 C -6,0 C 25,7 km/h (4 Bft) 100,00 %
10.02.2016 07:40 2,1 C 92 % 994,5 hPa 0,0 l/m 17,8 km/h (3 Bft) W-SW 255 0 min 0,000 mm 0,0 UV-I 5 W/m 0,9 C -5,9 C 24,1 km/h (4 Bft) 100,00 %
10.02.2016 07:41 2,1 C 92 % 994,5 hPa 0,0 l/m 12,9 km/h (3 Bft) SW 229 0 min 0,000 mm 0,0 UV-I 5 W/m 0,9 C -3,2 C 17,7 km/h (3 Bft) 100,00 %
10.02.2016 07:42 2,1 C 92 % 994,6 hPa 0,0 l/m 16,5 km/h (3 Bft) S-SW 205 0 min 0,000 mm 0,0 UV-I 5 W/m 0,9 C -5,3 C 20,9 km/h (4 Bft) 95,83 %
10.02.2016 07:43 2,1 C 92 % 994,6 hPa 0,0 l/m 12,2 km/h (2 Bft) W-SW 237 0 min 0,000 mm 0,0 UV-I 5 W/m 0,9 C -2,7 C 16,1 km/h (3 Bft) 100,00 %
10.02.2016 07:44 2,1 C 92 % 994,6 hPa 0,0 l/m 14,8 km/h (3 Bft) W 265 0 min 0,000 mm 0,0 UV-I 5 W/m 0,9 C -4,3 C 20,9 km/h (4 Bft) 100,00 %
10.02.2016 07:45 2,0 C 92 % 994,6 hPa 0,0 l/m 12,7 km/h (3 Bft) W-SW 249 0 min 0,000 mm 0,0 UV-I 5 W/m 0,8 C -3,2 C 19,3 km/h (3 Bft) 100,00 %
10.02.2016 07:46 2,0 C 92 % 994,6 hPa 0,0 l/m 15,4 km/h (3 Bft) W-SW 242 0 min 0,000 mm 0,0 UV-I 5 W/m 0,8 C -4,8 C 19,3 km/h (3 Bft) 95,83 %
10.02.2016 07:47 2,0 C 93 % 994,6 hPa 0,0 l/m 15,4 km/h (3 Bft) W-SW 248 0 min 0,000 mm 0,0 UV-I 5 W/m 1,0 C -4,8 C 24,1 km/h (4 Bft) 100,00 %
10.02.2016 07:48 2,0 C 93 % 994,6 hPa 0,0 l/m 17,5 km/h (3 Bft) W-SW 238 0 min 0,000 mm 0,0 UV-I 5 W/m 1,0 C -5,9 C 25,7 km/h (4 Bft) 100,00 %
10.02.2016 07:49 2,0 C 93 % 994,6 hPa 0,0 l/m 13,8 km/h (3 Bft) W-SW 243 0 min 0,000 mm 0,0 UV-I 5 W/m 1,0 C -3,9 C 19,3 km/h (3 Bft) 88,89 %
10.02.2016 07:50 2,0 C 93 % 994,6 hPa 0,0 l/m 17,1 km/h (3 Bft) W-SW 254 0 min 0,000 mm 0,0 UV-I 5 W/m 1,0 C -5,7 C 22,5 km/h (4 Bft) 100,00 %
10.02.2016 07:51 2,0 C 93 % 994,6 hPa 0,0 l/m 11,7 km/h (2 Bft) SW 227 0 min 0,000 mm 0,0 UV-I 6 W/m 1,0 C -2,5 C 17,7 km/h (3 Bft) 91,67 %
10.02.2016 07:52 2,0 C 93 % 994,6 hPa 0,0 l/m 12,8 km/h (3 Bft) W-SW 243 0 min 0,000 mm 0,0 UV-I 7 W/m 1,0 C -3,2 C 17,7 km/h (3 Bft) 100,00 %
10.02.2016 07:53 1,9 C 93 % 994,6 hPa 0,2 l/m 13,4 km/h (3 Bft) W-SW 248 0 min 0,000 mm 0,0 UV-I 7 W/m 0,9 C -3,7 C 17,7 km/h (3 Bft) 96,67 %
10.02.2016 07:54 1,9 C 93 % 994,7 hPa 0,0 l/m 12,7 km/h (3 Bft) SW 236 0 min 0,000 mm 0,0 UV-I 7 W/m 0,9 C -3,3 C 19,3 km/h (3 Bft) 100,00 %
10.02.2016 07:55 1,9 C 93 % 994,7 hPa 0,0 l/m 12,2 km/h (2 Bft) S-SW 200 0 min 0,000 mm 0,0 UV-I 7 W/m 0,9 C -2,9 C 16,1 km/h (3 Bft) 96,97 %
10.02.2016 07:56 1,9 C 93 % 994,7 hPa 0,0 l/m 18,2 km/h (3 Bft) W-SW 250 0 min 0,000 mm 0,0 UV-I 7 W/m 0,9 C -6,4 C 22,5 km/h (4 Bft) 96,55 %
10.02.2016 07:57 1,9 C 93 % 994,6 hPa 0,0 l/m 13,5 km/h (3 Bft) W-SW 255 0 min 0,000 mm 0,0 UV-I 7 W/m 0,9 C -3,8 C 20,9 km/h (4 Bft) 98,47 %
10.02.2016 07:58 1,9 C 93 % 994,6 hPa 0,0 l/m 17,6 km/h (3 Bft) W-SW 257 0 min 0,000 mm 0,0 UV-I 7 W/m 0,9 C -6,1 C 20,9 km/h (4 Bft) 97,37 %
10.02.2016 07:59 1,9 C 93 % 994,7 hPa 0,0 l/m 14,7 km/h (3 Bft) SW 223 0 min 0,000 mm 0,0 UV-I 9 W/m 0,9 C -4,5 C 19,3 km/h (3 Bft) 100,00 %
10.02.2016 08:00 1,9 C 93 % 994,7 hPa 0,0 l/m 8,0 km/h (2 Bft) W-SW 240 0 min 0,000 mm 0,0 UV-I 9 W/m 0,9 C 0,3 C 12,9 km/h (3 Bft) 91,30 %
10.02.2016 08:01 1,9 C 93 % 994,7 hPa 0,0 l/m 9,8 km/h (2 Bft) W-SW 246 0 min 0,000 mm 0,0 UV-I 9 W/m 0,9 C -1,2 C 12,9 km/h (3 Bft) 100,00 %
10.02.2016 08:02 1,9 C 93 % 994,7 hPa 0,0 l/m 11,8 km/h (2 Bft) SW 227 0 min 0,000 mm 0,0 UV-I 9 W/m 0,9 C -2,7 C 16,1 km/h (3 Bft) 96,15 %
10.02.2016 08:03 1,9 C 93 % 994,6 hPa 0,0 l/m 11,3 km/h (2 Bft) W-SW 246 0 min 0,000 mm 0,0 UV-I 9 W/m 0,9 C -2,3 C 16,1 km/h (3 Bft) 100,00 %
10.02.2016 08:04 1,9 C 93 % 994,6 hPa 0,0 l/m 14,2 km/h (3 Bft) W 265 0 min 0,000 mm 0,0 UV-I 9 W/m 0,9 C -4,2 C 17,7 km/h (3 Bft) 96,15 %
10.02.2016 08:05 1,9 C 94 % 994,6 hPa 0,0 l/m 13,4 km/h (3 Bft) W 275 0 min 0,000 mm 0,0 UV-I 11 W/m 1,0 C -3,7 C 24,1 km/h (4 Bft) 92,59 %
10.02.2016 08:06 1,9 C 94 % 994,6 hPa 0,0 l/m 12,7 km/h (3 Bft) W-SW 257 0 min 0,000 mm 0,0 UV-I 11 W/m 1,0 C -3,3 C 17,7 km/h (3 Bft) 100,00 %
10.02.2016 08:07 1,8 C 94 % 994,6 hPa 0,0 l/m 13,0 km/h (3 Bft) W-SW 246 0 min 0,000 mm 0,0 UV-I 11 W/m 0,9 C -3,6 C 17,7 km/h (3 Bft) 96,15 %
10.02.2016 08:08 1,8 C 94 % 994,6 hPa 0,0 l/m 15,6 km/h (3 Bft) W-SW 252 0 min 0,000 mm 0,0 UV-I 11 W/m 0,9 C -5,1 C 20,9 km/h (4 Bft) 96,30 %
10.02.2016 08:09 1,8 C 94 % 994,5 hPa 0,0 l/m 12,6 km/h (3 Bft) SW 231 0 min 0,000 mm 0,0 UV-I 11 W/m 0,9 C -3,3 C 19,3 km/h (3 Bft) 96,15 %
10.02.2016 08:10 1,8 C 94 % 994,6 hPa 0,0 l/m 12,0 km/h (2 Bft) W-SW 245 0 min 0,000 mm 0,0 UV-I 11 W/m 0,9 C -2,9 C 19,3 km/h (3 Bft) 100,00 %
10.02.2016 08:11 1,8 C 94 % 994,5 hPa 0,0 l/m 10,1 km/h (2 Bft) W-SW 250 0 min 0,000 mm 0,0 UV-I 12 W/m 0,9 C -1,5 C 14,5 km/h (3 Bft) 95,65 %
10.02.2016 08:12 1,8 C 94 % 994,5 hPa 0,0 l/m 12,5 km/h (3 Bft) SW 236 0 min 0,000 mm 0,0 UV-I 12 W/m 0,9 C -3,3 C 19,3 km/h (3 Bft) 100,00 %
10.02.2016 08:13 1,8 C 94 % 994,6 hPa 0,0 l/m 11,5 km/h (2 Bft) S-SW 210 0 min 0,000 mm 0,0 UV-I 12 W/m 0,9 C -2,6 C 14,5 km/h (3 Bft) 95,65 %
10.02.2016 08:14 1,8 C 94 % 994,7 hPa 0,0 l/m 13,0 km/h (3 Bft) S-SW 213 0 min 0,000 mm 0,0 UV-I 12 W/m 0,9 C -3,6 C 20,9 km/h (4 Bft) 96,30 %
10.02.2016 08:15 1,8 C 94 % 994,7 hPa 0,0 l/m 16,5 km/h (3 Bft) W 265 0 min 0,000 mm 0,0 UV-I 12 W/m 0,9 C -5,6 C 20,9 km/h (4 Bft) 95,65 %
10.02.2016 08:16 1,8 C 94 % 994,7 hPa 0,0 l/m 13,2 km/h (3 Bft) W 275 0 min 0,000 mm 0,0 UV-I 12 W/m 0,9 C -3,7 C 19,3 km/h (3 Bft) 96,30 %
10.02.2016 08:17 1,8 C 94 % 994,8 hPa 0,0 l/m 12,7 km/h (3 Bft) SW 233 0 min 0,000 mm 0,0 UV-I 12 W/m 0,9 C -3,4 C 17,7 km/h (3 Bft) 100,00 %
10.02.2016 08:18 1,8 C 94 % 994,7 hPa 0,0 l/m 13,0 km/h (3 Bft) SW 235 0 min 0,000 mm 0,0 UV-I 14 W/m 0,9 C -3,6 C 16,1 km/h (3 Bft) 96,30 %
10.02.2016 08:19 1,8 C 94 % 994,8 hPa 0,0 l/m 18,3 km/h (3 Bft) SW 229 0 min 0,000 mm 0,0 UV-I 14 W/m 0,9 C -6,5 C 24,1 km/h (4 Bft) 96,55 %
10.02.2016 08:20 1,8 C 94 % 994,8 hPa 0,0 l/m 15,4 km/h (3 Bft) W-SW 239 0 min 0,000 mm 0,0 UV-I 14 W/m 0,9 C -5,0 C 22,5 km/h (4 Bft) 91,67 %
10.02.2016 08:21 1,8 C 94 % 994,8 hPa 0,0 l/m 14,6 km/h (3 Bft) W-SW 244 0 min 0,000 mm 0,0 UV-I 14 W/m 0,9 C -4,6 C 20,9 km/h (4 Bft) 96,30 %
10.02.2016 08:22 1,8 C 94 % 994,8 hPa 0,0 l/m 16,7 km/h (3 Bft) SW 235 0 min 0,000 mm 0,0 UV-I 15 W/m 0,9 C -5,7 C 20,9 km/h (4 Bft) 95,65 %
10.02.2016 08:23 1,8 C 94 % 994,8 hPa 0,0 l/m 11,1 km/h (2 Bft) SW 217 0 min 0,000 mm 0,0 UV-I 16 W/m 0,9 C -2,3 C 17,7 km/h (3 Bft) 96,55 %
10.02.2016 08:24 1,8 C 94 % 994,8 hPa 0,0 l/m 10,9 km/h (2 Bft) W 269 0 min 0,000 mm 0,0 UV-I 16 W/m 0,9 C -2,1 C 14,5 km/h (3 Bft) 100,00 %
10.02.2016 08:25 1,8 C 94 % 994,8 hPa 0,0 l/m 13,2 km/h (3 Bft) SW 221 0 min 0,000 mm 0,0 UV-I 16 W/m 0,9 C -3,7 C 19,3 km/h (3 Bft) 100,00 %
10.02.2016 08:26 1,8 C 94 % 994,8 hPa 0,0 l/m 14,8 km/h (3 Bft) SW 233 0 min 0,000 mm 0,0 UV-I 16 W/m 0,9 C -4,7 C 22,5 km/h (4 Bft) 96,55 %
10.02.2016 08:27 1,8 C 94 % 994,8 hPa 0,0 l/m 14,2 km/h (3 Bft) SW 234 0 min 0,000 mm 0,0 UV-I 17 W/m 0,9 C -4,3 C 17,7 km/h (3 Bft) 100,00 %
10.02.2016 08:28 1,8 C 94 % 994,8 hPa 0,0 l/m 12,0 km/h (2 Bft) W-NW 287 0 min 0,000 mm 0,0 UV-I 18 W/m 0,9 C -2,9 C 16,1 km/h (3 Bft) 100,00 %
10.02.2016 08:29 1,8 C 94 % 994,9 hPa 0,0 l/m 10,9 km/h (2 Bft) W-SW 240 0 min 0,000 mm 0,0 UV-I 18 W/m 0,9 C -2,1 C 14,5 km/h (3 Bft) 98,30 %
10.02.2016 08:32 1,8 C 94 % 995,0 hPa 0,0 l/m 8,4 km/h (2 Bft) W-SW 244 0 min 0,000 mm 0,0 UV-I 17 W/m 0,9 C -0,1 C 11,3 km/h (2 Bft) 96,77 %
10.02.2016 08:33 1,8 C 94 % 995,0 hPa 0,0 l/m 12,6 km/h (3 Bft) SW 221 0 min 0,000 mm 0,0 UV-I 18 W/m 0,9 C -3,3 C 17,7 km/h (3 Bft) 100,00 %
10.02.2016 08:34 1,8 C 94 % 995,0 hPa 0,0 l/m 12,5 km/h (3 Bft) W-SW 248 0 min 0,000 mm 0,0 UV-I 19 W/m 0,9 C -3,3 C 16,1 km/h (3 Bft) 100,00 %
10.02.2016 08:35 1,8 C 94 % 995,0 hPa 0,0 l/m 11,9 km/h (2 Bft) W-SW 254 0 min 0,000 mm 0,0 UV-I 19 W/m 0,9 C -2,9 C 17,7 km/h (3 Bft) 100,00 %
10.02.2016 08:36 1,8 C 94 % 995,0 hPa 0,0 l/m 12,3 km/h (3 Bft) W-SW 250 0 min 0,000 mm 0,0 UV-I 19 W/m 0,9 C -3,1 C 14,5 km/h (3 Bft) 92,31 %
10.02.2016 08:37 1,8 C 94 % 995,0 hPa 0,0 l/m 9,9 km/h (2 Bft) SW 233 0 min 0,000 mm 0,0 UV-I 19 W/m 0,9 C -1,4 C 14,5 km/h (3 Bft) 100,00 %
10.02.2016 08:38 1,8 C 94 % 995,0 hPa 0,0 l/m 14,8 km/h (3 Bft) SW 229 0 min 0,000 mm 0,0 UV-I 19 W/m 0,9 C -4,7 C 20,9 km/h (4 Bft) 100,00 %
10.02.2016 08:39 1,8 C 94 % 995,0 hPa 0,0 l/m 13,5 km/h (3 Bft) W-SW 252 0 min 0,000 mm 0,0 UV-I 19 W/m 0,9 C -3,9 C 17,7 km/h (3 Bft) 100,00 %
10.02.2016 08:40 1,8 C 94 % 995,0 hPa 0,0 l/m 12,3 km/h (3 Bft) W-SW 257 0 min 0,000 mm 0,0 UV-I 21 W/m 0,9 C -3,1 C 19,3 km/h (3 Bft) 92,31 %
10.02.2016 08:41 1,8 C 94 % 995,0 hPa 0,0 l/m 15,3 km/h (3 Bft) W-SW 257 0 min 0,000 mm 0,0 UV-I 21 W/m 0,9 C -5,0 C 22,5 km/h (4 Bft) 100,00 %
10.02.2016 08:45 1,8 C 94 % 995,1 hPa 0,2 l/m 14,5 km/h (3 Bft) W-SW 247 0 min 0,000 mm 0,0 UV-I 22 W/m 0,9 C -4,5 C 25,7 km/h (4 Bft) 92,98 %
10.02.2016 08:50 1,8 C 94 % 995,1 hPa 0,0 l/m 11,3 km/h (2 Bft) W-SW 247 0 min 0,000 mm 0,0 UV-I 25 W/m 0,9 C -2,4 C 19,3 km/h (3 Bft) 98,25 %
10.02.2016 08:52 1,8 C 95 % 995,1 hPa 0,0 l/m 15,3 km/h (3 Bft) W 263 0 min 0,000 mm 0,0 UV-I 25 W/m 1,1 C -5,0 C 17,7 km/h (3 Bft) 99,19 %
10.02.2016 08:53 1,8 C 95 % 995,1 hPa 0,0 l/m 11,9 km/h (2 Bft) W 259 0 min 0,000 mm 0,0 UV-I 30 W/m 1,1 C -2,9 C 14,5 km/h (3 Bft) 100,00 %
10.02.2016 08:55 1,8 C 95 % 995,1 hPa 0,0 l/m 14,5 km/h (3 Bft) W-SW 247 0 min 0,000 mm 0,0 UV-I 31 W/m 1,1 C -4,5 C 25,7 km/h (4 Bft) 97,37 %
10.02.2016 08:56 1,8 C 95 % 995,0 hPa 0,0 l/m 15,3 km/h (3 Bft) W-SW 246 0 min 0,000 mm 0,0 UV-I 34 W/m 1,1 C -5,0 C 17,7 km/h (3 Bft) 100,00 %
10.02.2016 08:57 1,8 C 94 % 995,1 hPa 0,0 l/m 15,7 km/h (3 Bft) W-SW 246 0 min 0,000 mm 0,0 UV-I 36 W/m 0,9 C -5,2 C 20,9 km/h (4 Bft) 100,00 %
10.02.2016 08:58 1,8 C 94 % 995,1 hPa 0,0 l/m 18,7 km/h (3 Bft) W-SW 241 0 min 0,000 mm 0,0 UV-I 37 W/m 0,9 C -6,7 C 24,1 km/h (4 Bft) 100,00 %
10.02.2016 08:59 1,8 C 94 % 995,0 hPa 0,0 l/m 13,5 km/h (3 Bft) W-SW 239 0 min 0,000 mm 0,0 UV-I 37 W/m 0,9 C -3,9 C 16,1 km/h (3 Bft) 100,00 %
10.02.2016 09:00 1,8 C 95 % 995,0 hPa 0,0 l/m 9,7 km/h (2 Bft) SW 227 0 min 0,026 mm 0,0 UV-I 37 W/m 1,1 C -1,2 C 19,3 km/h (3 Bft) 100,00 %
10.02.2016 09:01 1,8 C 94 % 995,1 hPa 0,0 l/m 8,9 km/h (2 Bft) SW 231 0 min 0,000 mm 0,0 UV-I 37 W/m 0,9 C -0,6 C 12,9 km/h (3 Bft) 100,00 %
10.02.2016 09:02 1,8 C 94 % 995,0 hPa 0,0 l/m 9,3 km/h (2 Bft) W-SW 248 0 min 0,000 mm 0,0 UV-I 37 W/m 0,9 C -0,9 C 16,1 km/h (3 Bft) 100,00 %
10.02.2016 09:03 1,8 C 94 % 995,0 hPa 0,0 l/m 11,5 km/h (2 Bft) W 261 0 min 0,000 mm 0,0 UV-I 37 W/m 0,9 C -2,6 C 16,1 km/h (3 Bft) 100,00 %
10.02.2016 09:04 1,8 C 94 % 995,0 hPa 0,0 l/m 10,7 km/h (2 Bft) W 260 0 min 0,000 mm 0,0 UV-I 37 W/m 0,9 C -2,0 C 16,1 km/h (3 Bft) 100,00 %
10.02.2016 09:05 1,8 C 94 % 995,0 hPa 0,0 l/m 16,2 km/h (3 Bft) W-SW 245 0 min 0,000 mm 0,0 UV-I 37 W/m 0,9 C -5,5 C 22,5 km/h (4 Bft) 91,67 %
10.02.2016 09:06 1,8 C 95 % 995,0 hPa 0,0 l/m 17,5 km/h (3 Bft) SW 234 0 min 0,000 mm 0,0 UV-I 37 W/m 1,1 C -6,1 C 24,1 km/h (4 Bft) 100,00 %
10.02.2016 09:07 1,8 C 94 % 995,0 hPa 0,0 l/m 15,7 km/h (3 Bft) W 262 0 min 0,000 mm 0,0 UV-I 37 W/m 0,9 C -5,2 C 20,9 km/h (4 Bft) 100,00 %
10.02.2016 09:08 1,8 C 94 % 995,0 hPa 0,0 l/m 17,5 km/h (3 Bft) SW 228 0 min 0,000 mm 0,0 UV-I 37 W/m 0,9 C -6,1 C 19,3 km/h (3 Bft) 100,00 %
10.02.2016 09:09 1,8 C 94 % 995,0 hPa 0,0 l/m 12,0 km/h (2 Bft) SW 223 0 min 0,000 mm 0,0 UV-I 37 W/m 0,9 C -2,9 C 19,3 km/h (3 Bft) 100,00 %
10.02.2016 09:10 1,8 C 94 % 995,1 hPa 0,0 l/m 14,6 km/h (3 Bft) W-SW 248 0 min 0,000 mm 0,0 UV-I 36 W/m 0,9 C -4,6 C 20,9 km/h (4 Bft) 100,00 %
10.02.2016 09:11 1,8 C 94 % 995,1 hPa 0,0 l/m 14,3 km/h (3 Bft) W-SW 250 0 min 0,000 mm 0,0 UV-I 35 W/m 0,9 C -4,4 C 17,7 km/h (3 Bft) 100,00 %
10.02.2016 09:12 1,8 C 94 % 995,1 hPa 0,0 l/m 17,1 km/h (3 Bft) W-SW 245 0 min 0,000 mm 0,0 UV-I 33 W/m 0,9 C -5,9 C 20,9 km/h (4 Bft) 96,67 %
10.02.2016 09:13 1,8 C 94 % 995,2 hPa 0,0 l/m 10,3 km/h (2 Bft) W-SW 244 0 min 0,000 mm 0,0 UV-I 33 W/m 0,9 C -1,7 C 14,5 km/h (3 Bft) 100,00 %
10.02.2016 09:14 1,9 C 94 % 995,2 hPa 0,0 l/m 11,3 km/h (2 Bft) W-SW 238 0 min 0,000 mm 0,0 UV-I 32 W/m 1,0 C -2,3 C 17,7 km/h (3 Bft) 100,00 %
10.02.2016 09:15 1,9 C 94 % 995,2 hPa 0,0 l/m 15,4 km/h (3 Bft) W-SW 248 0 min 0,000 mm 0,0 UV-I 33 W/m 1,0 C -4,9 C 19,3 km/h (3 Bft) 100,00 %
10.02.2016 09:16 1,9 C 94 % 995,2 hPa 0,0 l/m 13,5 km/h (3 Bft) W 264 0 min 0,000 mm 0,0 UV-I 33 W/m 1,0 C -3,8 C 17,7 km/h (3 Bft) 100,00 %
10.02.2016 09:17 1,9 C 95 % 995,3 hPa 0,0 l/m 10,1 km/h (2 Bft) SW 229 0 min 0,000 mm 0,0 UV-I 35 W/m 1,2 C -1,4 C 14,5 km/h (3 Bft) 100,00 %
10.02.2016 09:18 1,9 C 95 % 995,3 hPa 0,0 l/m 8,7 km/h (2 Bft) W-SW 244 0 min 0,000 mm 0,0 UV-I 37 W/m 1,2 C -0,3 C 16,1 km/h (3 Bft) 100,00 %
10.02.2016 09:19 1,9 C 95 % 995,3 hPa 0,0 l/m 13,1 km/h (3 Bft) SW 231 0 min 0,000 mm 0,0 UV-I 37 W/m 1,2 C -3,5 C 16,1 km/h (3 Bft) 96,15 %
10.02.2016 09:20 1,9 C 95 % 995,3 hPa 0,0 l/m 12,3 km/h (3 Bft) W 260 0 min 0,000 mm 0,0 UV-I 35 W/m 1,2 C -3,0 C 16,1 km/h (3 Bft) 91,67 %
10.02.2016 09:21 1,9 C 94 % 995,3 hPa 0,0 l/m 13,1 km/h (3 Bft) W-SW 244 0 min 0,000 mm 0,0 UV-I 33 W/m 1,0 C -3,5 C 19,3 km/h (3 Bft) 100,00 %
10.02.2016 09:22 1,9 C 94 % 995,3 hPa 0,0 l/m 11,9 km/h (2 Bft) W-SW 257 0 min 0,000 mm 0,0 UV-I 32 W/m 1,0 C -2,7 C 16,1 km/h (3 Bft) 100,00 %
10.02.2016 09:23 1,9 C 95 % 995,3 hPa 0,0 l/m 15,2 km/h (3 Bft) W 266 0 min 0,000 mm 0,0 UV-I 32 W/m 1,2 C -4,8 C 19,3 km/h (3 Bft) 100,00 %
10.02.2016 09:24 1,9 C 94 % 995,3 hPa 0,0 l/m 12,9 km/h (3 Bft) W-SW 254 0 min 0,000 mm 0,0 UV-I 29 W/m 1,0 C -3,4 C 19,3 km/h (3 Bft) 100,00 %
10.02.2016 09:25 1,9 C 94 % 995,3 hPa 0,0 l/m 11,1 km/h (2 Bft) SW 226 0 min 0,000 mm 0,0 UV-I 32 W/m 1,0 C -2,2 C 14,5 km/h (3 Bft) 100,00 %
10.02.2016 09:26 1,9 C 94 % 995,3 hPa 0,0 l/m 11,5 km/h (2 Bft) SW 236 0 min 0,000 mm 0,0 UV-I 34 W/m 1,0 C -2,5 C 17,7 km/h (3 Bft) 100,00 %
10.02.2016 09:27 1,9 C 94 % 995,3 hPa 0,0 l/m 11,7 km/h (2 Bft) W 261 0 min 0,000 mm 0,0 UV-I 34 W/m 1,0 C -2,6 C 16,1 km/h (3 Bft) 100,00 %
10.02.2016 09:28 1,9 C 95 % 995,3 hPa 0,0 l/m 17,8 km/h (3 Bft) W-SW 246 0 min 0,000 mm 0,0 UV-I 32 W/m 1,2 C -6,2 C 22,5 km/h (4 Bft) 96,15 %
10.02.2016 09:29 1,9 C 94 % 995,4 hPa 0,0 l/m 15,8 km/h (3 Bft) W-SW 255 0 min 0,000 mm 0,0 UV-I 30 W/m 1,0 C -5,1 C 20,9 km/h (4 Bft) 100,00 %
10.02.2016 09:30 1,9 C 95 % 995,4 hPa 0,0 l/m 14,9 km/h (3 Bft) W-SW 252 0 min 0,000 mm 0,0 UV-I 30 W/m 1,2 C -4,6 C 20,9 km/h (4 Bft) 100,00 %
10.02.2016 09:31 1,9 C 95 % 995,3 hPa 0,0 l/m 16,7 km/h (3 Bft) W-SW 250 0 min 0,000 mm 0,0 UV-I 29 W/m 1,2 C -5,6 C 22,5 km/h (4 Bft) 100,00 %
10.02.2016 09:32 1,9 C 95 % 995,4 hPa 0,0 l/m 10,9 km/h (2 Bft) W 260 0 min 0,000 mm 0,0 UV-I 28 W/m 1,2 C -2,0 C 17,7 km/h (3 Bft) 100,00 %
10.02.2016 09:33 1,9 C 95 % 995,4 hPa 0,0 l/m 11,4 km/h (2 Bft) W-SW 252 0 min 0,000 mm 0,0 UV-I 28 W/m 1,2 C -2,4 C 16,1 km/h (3 Bft) 100,00 %
10.02.2016 09:34 1,9 C 95 % 995,4 hPa 0,0 l/m 10,1 km/h (2 Bft) W-SW 251 0 min 0,000 mm 0,0 UV-I 31 W/m 1,2 C -1,4 C 16,1 km/h (3 Bft) 100,00 %
10.02.2016 09:35 1,9 C 95 % 995,4 hPa 0,0 l/m 10,5 km/h (2 Bft) W-SW 247 0 min 0,000 mm 0,0 UV-I 32 W/m 1,2 C -1,7 C 17,7 km/h (3 Bft) 95,83 %
10.02.2016 09:36 1,9 C 95 % 995,4 hPa 0,0 l/m 13,1 km/h (3 Bft) W-SW 256 0 min 0,000 mm 0,0 UV-I 30 W/m 1,2 C -3,5 C 16,1 km/h (3 Bft) 100,00 %
10.02.2016 09:37 1,9 C 95 % 995,4 hPa 0,0 l/m 11,3 km/h (2 Bft) W-SW 248 0 min 0,000 mm 0,0 UV-I 28 W/m 1,2 C -2,3 C 16,1 km/h (3 Bft) 100,00 %
10.02.2016 09:38 1,9 C 95 % 995,4 hPa 0,0 l/m 13,9 km/h (3 Bft) W-SW 252 0 min 0,000 mm 0,0 UV-I 28 W/m 1,2 C -4,0 C 19,3 km/h (3 Bft) 96,55 %
10.02.2016 09:39 1,9 C 95 % 995,4 hPa 0,0 l/m 9,9 km/h (2 Bft) W-SW 256 0 min 0,000 mm 0,0 UV-I 31 W/m 1,2 C -1,3 C 12,9 km/h (3 Bft) 100,00 %
10.02.2016 09:40 1,9 C 95 % 995,4 hPa 0,0 l/m 13,8 km/h (3 Bft) W-SW 239 0 min 0,000 mm 0,0 UV-I 32 W/m 1,2 C -4,0 C 17,7 km/h (3 Bft) 95,65 %
10.02.2016 09:41 1,9 C 95 % 995,4 hPa 0,0 l/m 9,0 km/h (2 Bft) W-SW 238 0 min 0,000 mm 0,0 UV-I 31 W/m 1,2 C -0,5 C 14,5 km/h (3 Bft) 100,00 %
10.02.2016 09:42 1,9 C 95 % 995,4 hPa 0,2 l/m 13,2 km/h (3 Bft) W 259 0 min 0,000 mm 0,0 UV-I 34 W/m 1,2 C -3,6 C 17,7 km/h (3 Bft) 100,00 %
10.02.2016 09:43 1,9 C 95 % 995,4 hPa 0,0 l/m 14,2 km/h (3 Bft) W-SW 251 0 min 0,000 mm 0,0 UV-I 32 W/m 1,2 C -4,2 C 19,3 km/h (3 Bft) 96,30 %
10.02.2016 09:44 1,9 C 95 % 995,4 hPa 0,0 l/m 12,7 km/h (3 Bft) SW 223 0 min 0,000 mm 0,0 UV-I 32 W/m 1,2 C -3,3 C 19,3 km/h (3 Bft) 100,00 %
10.02.2016 09:45 1,9 C 95 % 995,4 hPa 0,0 l/m 15,3 km/h (3 Bft) W 278 0 min 0,000 mm 0,0 UV-I 33 W/m 1,2 C -4,8 C 19,3 km/h (3 Bft) 94,44 %
10.02.2016 09:46 1,9 C 95 % 995,4 hPa 0,0 l/m 16,0 km/h (3 Bft) W 259 0 min 0,000 mm 0,0 UV-I 32 W/m 1,2 C -5,2 C 19,3 km/h (3 Bft) 100,00 %
10.02.2016 09:47 1,9 C 95 % 995,4 hPa 0,0 l/m 14,9 km/h (3 Bft) W-SW 240 0 min 0,000 mm 0,0 UV-I 31 W/m 1,2 C -4,6 C 24,1 km/h (4 Bft) 95,65 %
10.02.2016 09:48 1,9 C 95 % 995,4 hPa 0,0 l/m 15,1 km/h (3 Bft) W-SW 240 0 min 0,000 mm 0,0 UV-I 38 W/m 1,2 C -4,7 C 24,1 km/h (4 Bft) 100,00 %
10.02.2016 09:49 1,9 C 95 % 995,5 hPa 0,0 l/m 12,4 km/h (3 Bft) W-SW 252 0 min 0,000 mm 0,0 UV-I 40 W/m 1,2 C -3,1 C 17,7 km/h (3 Bft) 91,30 %
10.02.2016 09:50 1,9 C 95 % 995,4 hPa 0,0 l/m 14,8 km/h (3 Bft) W 272 0 min 0,000 mm 0,0 UV-I 37 W/m 1,2 C -4,6 C 17,7 km/h (3 Bft) 100,00 %
10.02.2016 09:51 1,9 C 95 % 995,5 hPa 0,0 l/m 9,0 km/h (2 Bft) W-SW 241 0 min 0,000 mm 0,0 UV-I 33 W/m 1,2 C -0,5 C 12,9 km/h (3 Bft) 100,00 %
10.02.2016 09:52 1,9 C 95 % 995,6 hPa 0,0 l/m 11,3 km/h (2 Bft) W 267 0 min 0,000 mm 0,0 UV-I 35 W/m 1,2 C -2,3 C 17,7 km/h (3 Bft) 96,30 %
10.02.2016 09:53 1,9 C 95 % 995,6 hPa 0,0 l/m 12,0 km/h (2 Bft) SW 234 0 min 0,000 mm 0,0 UV-I 33 W/m 1,2 C -2,8 C 19,3 km/h (3 Bft) 100,00 %
10.02.2016 09:54 1,9 C 95 % 995,6 hPa 0,0 l/m 14,3 km/h (3 Bft) W-SW 240 0 min 0,000 mm 0,0 UV-I 35 W/m 1,2 C -4,3 C 17,7 km/h (3 Bft) 100,00 %
10.02.2016 09:55 1,9 C 95 % 995,6 hPa 0,0 l/m 12,1 km/h (2 Bft) W-SW 248 0 min 0,000 mm 0,0 UV-I 37 W/m 1,2 C -2,9 C 20,9 km/h (4 Bft) 100,00 %
10.02.2016 09:56 1,9 C 95 % 995,7 hPa 0,0 l/m 13,6 km/h (3 Bft) W-NW 294 0 min 0,000 mm 0,0 UV-I 34 W/m 1,2 C -3,9 C 17,7 km/h (3 Bft) 100,00 %
10.02.2016 09:57 1,9 C 95 % 995,6 hPa 0,0 l/m 12,4 km/h (3 Bft) W-SW 255 0 min 0,000 mm 0,0 UV-I 36 W/m 1,2 C -3,1 C 16,1 km/h (3 Bft) 96,15 %
10.02.2016 09:58 1,9 C 95 % 995,7 hPa 0,0 l/m 10,8 km/h (2 Bft) W 259 0 min 0,000 mm 0,0 UV-I 39 W/m 1,2 C -2,0 C 16,1 km/h (3 Bft) 100,00 %
10.02.2016 09:59 1,9 C 95 % 995,7 hPa 0,0 l/m 14,0 km/h (3 Bft) W-SW 249 0 min 0,000 mm 0,0 UV-I 40 W/m 1,2 C -4,1 C 19,3 km/h (3 Bft) 96,77 %
10.02.2016 10:00 1,9 C 95 % 995,7 hPa 0,0 l/m 14,8 km/h (3 Bft) W 273 0 min 0,000 mm 0,0 UV-I 44 W/m 1,2 C -4,6 C 19,3 km/h (3 Bft) 95,83 %
10.02.2016 10:01 1,9 C 95 % 995,7 hPa 0,0 l/m 11,7 km/h (2 Bft) W 273 0 min 0,025 mm 0,0 UV-I 44 W/m 1,2 C -2,6 C 19,3 km/h (3 Bft) 100,00 %
10.02.2016 10:02 1,9 C 95 % 995,7 hPa 0,0 l/m 10,3 km/h (2 Bft) W-SW 255 0 min 0,000 mm 0,0 UV-I 37 W/m 1,2 C -1,6 C 12,9 km/h (3 Bft) 95,83 %
10.02.2016 10:03 1,9 C 95 % 995,7 hPa 0,0 l/m 10,3 km/h (2 Bft) W-SW 249 0 min 0,000 mm 0,0 UV-I 38 W/m 1,2 C -1,6 C 14,5 km/h (3 Bft) 100,00 %
10.02.2016 10:04 1,9 C 95 % 995,7 hPa 0,0 l/m 13,3 km/h (3 Bft) W-SW 257 0 min 0,000 mm 0,0 UV-I 38 W/m 1,2 C -3,7 C 17,7 km/h (3 Bft) 91,67 %
10.02.2016 10:05 1,9 C 95 % 995,7 hPa 0,0 l/m 15,6 km/h (3 Bft) SW 223 0 min 0,000 mm 0,0 UV-I 35 W/m 1,2 C -5,0 C 19,3 km/h (3 Bft) 100,00 %
10.02.2016 10:06 2,0 C 95 % 995,7 hPa 0,0 l/m 11,3 km/h (2 Bft) SW 227 0 min 0,000 mm 0,0 UV-I 34 W/m 1,3 C -2,2 C 14,5 km/h (3 Bft) 93,33 %
10.02.2016 10:07 2,0 C 95 % 995,7 hPa 0,0 l/m 9,1 km/h (2 Bft) W 259 0 min 0,000 mm 0,0 UV-I 34 W/m 1,3 C -0,5 C 16,1 km/h (3 Bft) 100,00 %
10.02.2016 10:08 2,0 C 95 % 995,7 hPa 0,0 l/m 6,9 km/h (2 Bft) W 261 0 min 0,000 mm 0,0 UV-I 34 W/m 1,3 C 1,5 C 9,7 km/h (2 Bft) 93,10 %
10.02.2016 10:09 2,0 C 95 % 995,7 hPa 0,0 l/m 7,1 km/h (2 Bft) W 277 0 min 0,000 mm 0,0 UV-I 35 W/m 1,3 C 1,3 C 11,3 km/h (2 Bft) 100,00 %
10.02.2016 10:10 2,0 C 95 % 995,7 hPa 0,0 l/m 12,5 km/h (3 Bft) W 269 0 min 0,000 mm 0,0 UV-I 35 W/m 1,3 C -3,0 C 16,1 km/h (3 Bft) 96,88 %
10.02.2016 10:11 2,0 C 95 % 995,7 hPa 0,0 l/m 14,4 km/h (3 Bft) W 281 0 min 0,000 mm 0,0 UV-I 37 W/m 1,3 C -4,2 C 17,7 km/h (3 Bft) 96,30 %
10.02.2016 10:12 2,0 C 95 % 995,8 hPa 0,0 l/m 13,2 km/h (3 Bft) W-SW 257 0 min 0,000 mm 0,0 UV-I 39 W/m 1,3 C -3,5 C 16,1 km/h (3 Bft) 100,00 %
10.02.2016 10:13 2,0 C 95 % 995,8 hPa 0,0 l/m 10,0 km/h (2 Bft) W-SW 240 0 min 0,000 mm 0,0 UV-I 42 W/m 1,3 C -1,2 C 14,5 km/h (3 Bft) 92,59 %
10.02.2016 10:14 2,0 C 95 % 995,8 hPa 0,0 l/m 12,5 km/h (3 Bft) W 280 0 min 0,000 mm 0,0 UV-I 44 W/m 1,3 C -3,0 C 17,7 km/h (3 Bft) 100,00 %
10.02.2016 10:15 2,0 C 95 % 995,7 hPa 0,0 l/m 5,0 km/h (1 Bft) W 281 0 min 0,000 mm 0,0 UV-I 47 W/m 1,3 C 2,0 C 9,7 km/h (2 Bft) 91,67 %
10.02.2016 10:16 2,0 C 95 % 995,7 hPa 0,0 l/m 10,1 km/h (2 Bft) W-SW 248 0 min 0,000 mm 0,0 UV-I 47 W/m 1,3 C -1,3 C 14,5 km/h (3 Bft) 96,15 %
10.02.2016 10:17 2,1 C 95 % 995,8 hPa 0,0 l/m 18,7 km/h (3 Bft) W-SW 253 0 min 0,000 mm 0,0 UV-I 51 W/m 1,4 C -6,3 C 25,7 km/h (4 Bft) 100,00 %
10.02.2016 10:18 2,1 C 95 % 995,8 hPa 0,0 l/m 13,4 km/h (3 Bft) W-SW 244 0 min 0,000 mm 0,0 UV-I 52 W/m 1,4 C -3,5 C 20,9 km/h (4 Bft) 92,86 %
10.02.2016 10:19 2,1 C 95 % 995,8 hPa 0,0 l/m 15,8 km/h (3 Bft) W-SW 248 0 min 0,000 mm 0,0 UV-I 54 W/m 1,4 C -4,9 C 22,5 km/h (4 Bft) 95,83 %
10.02.2016 10:20 2,1 C 95 % 995,8 hPa 0,0 l/m 11,7 km/h (2 Bft) W-SW 243 0 min 0,000 mm 0,0 UV-I 54 W/m 1,4 C -2,4 C 16,1 km/h (3 Bft) 96,15 %
10.02.2016 10:21 2,1 C 95 % 995,8 hPa 0,0 l/m 9,5 km/h (2 Bft) W 261 0 min 0,000 mm 0,0 UV-I 59 W/m 1,4 C -0,7 C 12,9 km/h (3 Bft) 100,00 %
10.02.2016 10:22 2,1 C 94 % 995,9 hPa 0,0 l/m 14,7 km/h (3 Bft) W 259 0 min 0,000 mm 0,0 UV-I 63 W/m 1,2 C -4,3 C 19,3 km/h (3 Bft) 98,31 %
10.02.2016 10:23 2,2 C 94 % 995,9 hPa 0,0 l/m 17,1 km/h (3 Bft) W 267 0 min 0,000 mm 0,0 UV-I 66 W/m 1,3 C -5,4 C 20,9 km/h (4 Bft) 95,45 %
10.02.2016 10:24 2,2 C 94 % 995,9 hPa 0,0 l/m 14,2 km/h (3 Bft) W 277 0 min 0,000 mm 0,0 UV-I 61 W/m 1,3 C -3,9 C 25,7 km/h (4 Bft) 100,00 %
10.02.2016 10:25 2,2 C 94 % 995,9 hPa 0,0 l/m 11,9 km/h (2 Bft) W-SW 244 0 min 0,000 mm 0,0 UV-I 60 W/m 1,3 C -2,4 C 16,1 km/h (3 Bft) 96,30 %
10.02.2016 10:26 2,2 C 94 % 996,0 hPa 0,0 l/m 11,8 km/h (2 Bft) W 265 0 min 0,000 mm 0,0 UV-I 63 W/m 1,3 C -2,3 C 16,1 km/h (3 Bft) 100,00 %
10.02.2016 10:27 2,2 C 94 % 996,0 hPa 0,0 l/m 10,5 km/h (2 Bft) W-SW 256 0 min 0,000 mm 0,0 UV-I 65 W/m 1,3 C -1,4 C 12,9 km/h (3 Bft) 96,15 %
10.02.2016 10:28 2,2 C 94 % 995,9 hPa 0,0 l/m 17,6 km/h (3 Bft) W-SW 238 0 min 0,000 mm 0,0 UV-I 60 W/m 1,3 C -5,7 C 22,5 km/h (4 Bft) 100,00 %
10.02.2016 10:29 2,2 C 94 % 996,0 hPa 0,0 l/m 16,9 km/h (3 Bft) SW 236 0 min 0,000 mm 0,0 UV-I 56 W/m 1,3 C -5,3 C 20,9 km/h (4 Bft) 96,55 %
10.02.2016 10:30 2,2 C 94 % 995,9 hPa 0,0 l/m 17,8 km/h (3 Bft) W 259 0 min 0,000 mm 0,0 UV-I 54 W/m 1,3 C -5,8 C 25,7 km/h (4 Bft) 100,00 %
10.02.2016 10:31 2,2 C 93 % 996,0 hPa 0,0 l/m 21,0 km/h (4 Bft) W 259 0 min 0,000 mm 0,0 UV-I 54 W/m 1,2 C -7,2 C 27,4 km/h (4 Bft) 100,00 %
10.02.2016 10:32 2,3 C 93 % 996,0 hPa 0,0 l/m 14,6 km/h (3 Bft) W-SW 258 0 min 0,000 mm 0,0 UV-I 54 W/m 1,3 C -4,0 C 19,3 km/h (3 Bft) 100,00 %
10.02.2016 10:33 2,3 C 93 % 996,0 hPa 0,0 l/m 21,7 km/h (4 Bft) SW 234 0 min 0,000 mm 0,0 UV-I 58 W/m 1,3 C -7,4 C 30,6 km/h (5 Bft) 100,00 %
10.02.2016 10:34 2,3 C 93 % 996,0 hPa 0,0 l/m 21,1 km/h (4 Bft) W 265 0 min 0,000 mm 0,0 UV-I 60 W/m 1,3 C -7,1 C 29,0 km/h (5 Bft) 91,67 %
10.02.2016 10:35 2,3 C 93 % 996,0 hPa 0,0 l/m 17,8 km/h (3 Bft) W-NW 283 0 min 0,000 mm 0,0 UV-I 63 W/m 1,3 C -5,7 C 24,1 km/h (4 Bft) 100,00 %
10.02.2016 10:36 2,3 C 93 % 996,0 hPa 0,0 l/m 15,0 km/h (3 Bft) W-SW 238 0 min 0,000 mm 0,0 UV-I 65 W/m 1,3 C -4,2 C 20,9 km/h (4 Bft) 93,33 %
10.02.2016 10:37 2,3 C 93 % 996,1 hPa 0,0 l/m 15,9 km/h (3 Bft) W 266 0 min 0,000 mm 0,0 UV-I 64 W/m 1,3 C -4,7 C 20,9 km/h (4 Bft) 100,00 %
10.02.2016 10:38 2,3 C 93 % 996,1 hPa 0,0 l/m 13,9 km/h (3 Bft) W-SW 253 0 min 0,000 mm 0,0 UV-I 68 W/m 1,3 C -3,6 C 20,9 km/h (4 Bft) 100,00 %
10.02.2016 10:39 2,3 C 93 % 996,1 hPa 0,0 l/m 14,8 km/h (3 Bft) W-SW 258 0 min 0,000 mm 0,0 UV-I 67 W/m 1,3 C -4,1 C 29,0 km/h (5 Bft) 100,00 %
10.02.2016 10:40 2,3 C 93 % 996,1 hPa 0,0 l/m 19,4 km/h (3 Bft) W-SW 248 0 min 0,000 mm 0,0 UV-I 68 W/m 1,3 C -6,4 C 25,7 km/h (4 Bft) 100,00 %
10.02.2016 10:41 2,3 C 93 % 996,0 hPa 0,0 l/m 15,1 km/h (3 Bft) W-SW 253 0 min 0,000 mm 0,0 UV-I 67 W/m 1,3 C -4,3 C 17,7 km/h (3 Bft) 100,00 %
10.02.2016 10:42 2,3 C 93 % 996,1 hPa 0,0 l/m 12,3 km/h (3 Bft) W 277 0 min 0,000 mm 0,0 UV-I 68 W/m 1,3 C -2,6 C 17,7 km/h (3 Bft) 100,00 %
10.02.2016 10:43 2,3 C 93 % 996,1 hPa 0,0 l/m 16,2 km/h (3 Bft) W 266 0 min 0,000 mm 0,0 UV-I 73 W/m 1,3 C -4,8 C 25,7 km/h (4 Bft) 95,65 %
10.02.2016 10:44 2,3 C 93 % 996,1 hPa 0,0 l/m 19,9 km/h (4 Bft) SW 233 0 min 0,000 mm 0,0 UV-I 72 W/m 1,3 C -6,6 C 33,8 km/h (5 Bft) 98,31 %
10.02.2016 10:45 2,3 C 93 % 996,1 hPa 0,0 l/m 16,3 km/h (3 Bft) W-SW 240 0 min 0,000 mm 0,0 UV-I 75 W/m 1,3 C -4,9 C 24,1 km/h (4 Bft) 100,00 %
10.02.2016 10:46 2,3 C 92 % 996,1 hPa 0,0 l/m 14,1 km/h (3 Bft) S-SW 205 0 min 0,000 mm 0,0 UV-I 71 W/m 1,1 C -3,7 C 16,1 km/h (3 Bft) 100,00 %
10.02.2016 10:47 2,3 C 93 % 996,1 hPa 0,0 l/m 12,8 km/h (3 Bft) W 279 0 min 0,000 mm 0,0 UV-I 76 W/m 1,3 C -2,9 C 17,7 km/h (3 Bft) 95,83 %
10.02.2016 10:48 2,3 C 93 % 996,1 hPa 0,0 l/m 13,8 km/h (3 Bft) S-SW 212 0 min 0,000 mm 0,0 UV-I 74 W/m 1,3 C -3,5 C 27,4 km/h (4 Bft) 96,55 %
10.02.2016 10:49 2,3 C 93 % 996,0 hPa 0,0 l/m 14,1 km/h (3 Bft) W-SW 253 0 min 0,000 mm 0,0 UV-I 74 W/m 1,3 C -3,7 C 20,9 km/h (4 Bft) 100,00 %
10.02.2016 10:50 2,3 C 93 % 996,1 hPa 0,0 l/m 9,5 km/h (2 Bft) W-SW 244 0 min 0,000 mm 0,0 UV-I 74 W/m 1,3 C -0,5 C 12,9 km/h (3 Bft) 100,00 %
10.02.2016 10:51 2,3 C 93 % 996,1 hPa 0,0 l/m 12,8 km/h (3 Bft) W 264 0 min 0,000 mm 0,0 UV-I 72 W/m 1,3 C -2,9 C 16,1 km/h (3 Bft) 100,00 %
10.02.2016 10:52 2,4 C 93 % 996,0 hPa 0,0 l/m 15,4 km/h (3 Bft) W-SW 252 0 min 0,000 mm 0,0 UV-I 80 W/m 1,4 C -4,3 C 20,9 km/h (4 Bft) 100,00 %
10.02.2016 10:53 2,4 C 93 % 996,1 hPa 0,0 l/m 11,3 km/h (2 Bft) W 268 0 min 0,000 mm 0,0 UV-I 77 W/m 1,4 C -1,8 C 20,9 km/h (4 Bft) 100,00 %
10.02.2016 10:54 2,3 C 93 % 996,1 hPa 0,0 l/m 16,5 km/h (3 Bft) W-NW 288 0 min 0,000 mm 0,0 UV-I 74 W/m 1,3 C -5,0 C 27,4 km/h (4 Bft) 100,00 %
10.02.2016 10:55 2,3 C 93 % 996,0 hPa 0,0 l/m 23,7 km/h (4 Bft) W 270 0 min 0,000 mm 0,0 UV-I 69 W/m 1,3 C -8,1 C 30,6 km/h (5 Bft) 100,00 %
10.02.2016 10:56 2,3 C 92 % 996,2 hPa 0,0 l/m 20,5 km/h (4 Bft) W-SW 245 0 min 0,000 mm 0,0 UV-I 67 W/m 1,1 C -6,9 C 29,0 km/h (5 Bft) 100,00 %
10.02.2016 10:57 2,3 C 92 % 996,2 hPa 0,0 l/m 18,4 km/h (3 Bft) W-SW 257 0 min 0,000 mm 0,0 UV-I 66 W/m 1,1 C -5,9 C 27,4 km/h (4 Bft) 100,00 %
10.02.2016 10:58 2,3 C 92 % 996,2 hPa 0,0 l/m 13,7 km/h (3 Bft) W 260 0 min 0,000 mm 0,0 UV-I 73 W/m 1,1 C -3,4 C 20,9 km/h (4 Bft) 100,00 %
10.02.2016 10:59 2,3 C 92 % 996,2 hPa 0,0 l/m 18,3 km/h (3 Bft) W 261 0 min 0,000 mm 0,0 UV-I 76 W/m 1,1 C -5,9 C 25,7 km/h (4 Bft) 100,00 %
10.02.2016 11:00 2,3 C 92 % 996,2 hPa 0,0 l/m 13,0 km/h (3 Bft) W-SW 240 0 min 0,025 mm 0,0 UV-I 76 W/m 1,1 C -3,0 C 20,9 km/h (4 Bft) 100,00 %
10.02.2016 11:01 2,3 C 92 % 996,1 hPa 0,0 l/m 16,6 km/h (3 Bft) W-SW 237 0 min 0,000 mm 0,0 UV-I 76 W/m 1,1 C -5,1 C 27,4 km/h (4 Bft) 100,00 %
10.02.2016 11:02 2,3 C 92 % 996,1 hPa 0,0 l/m 15,0 km/h (3 Bft) W 271 0 min 0,000 mm 0,0 UV-I 68 W/m 1,1 C -4,2 C 20,9 km/h (4 Bft) 91,30 %
10.02.2016 11:03 2,3 C 92 % 996,1 hPa 0,0 l/m 21,4 km/h (4 Bft) W 269 0 min 0,000 mm 0,0 UV-I 72 W/m 1,1 C -7,2 C 30,6 km/h (5 Bft) 96,30 %
10.02.2016 11:04 2,3 C 92 % 996,1 hPa 0,0 l/m 17,1 km/h (3 Bft) W-SW 252 0 min 0,000 mm 0,0 UV-I 77 W/m 1,1 C -5,3 C 24,1 km/h (4 Bft) 93,33 %
10.02.2016 11:05 2,3 C 92 % 996,1 hPa 0,0 l/m 20,2 km/h (4 Bft) W-SW 238 0 min 0,000 mm 0,0 UV-I 78 W/m 1,1 C -6,7 C 27,4 km/h (4 Bft) 100,00 %
10.02.2016 11:06 2,3 C 92 % 996,1 hPa 0,0 l/m 18,6 km/h (3 Bft) W-NW 293 0 min 0,000 mm 0,0 UV-I 82 W/m 1,1 C -6,0 C 25,7 km/h (4 Bft) 100,00 %
10.02.2016 11:07 2,3 C 92 % 996,1 hPa 0,0 l/m 18,3 km/h (3 Bft) W 263 0 min 0,000 mm 0,0 UV-I 84 W/m 1,1 C -5,9 C 25,7 km/h (4 Bft) 100,00 %
10.02.2016 11:08 2,3 C 92 % 996,2 hPa 0,0 l/m 13,4 km/h (3 Bft) SW 234 0 min 0,000 mm 0,0 UV-I 86 W/m 1,1 C -3,3 C 22,5 km/h (4 Bft) 100,00 %
10.02.2016 11:09 2,3 C 92 % 996,2 hPa 0,0 l/m 16,1 km/h (3 Bft) W 265 0 min 0,000 mm 0,0 UV-I 88 W/m 1,1 C -4,8 C 20,9 km/h (4 Bft) 100,00 %
10.02.2016 11:10 2,3 C 92 % 996,2 hPa 0,0 l/m 22,9 km/h (4 Bft) W 264 0 min 0,000 mm 0,0 UV-I 90 W/m 1,1 C -7,8 C 30,6 km/h (5 Bft) 100,00 %
10.02.2016 11:11 2,3 C 92 % 996,2 hPa 0,0 l/m 22,3 km/h (4 Bft) SW 234 0 min 0,000 mm 0,0 UV-I 89 W/m 1,1 C -7,6 C 30,6 km/h (5 Bft) 100,00 %
10.02.2016 11:12 2,3 C 92 % 996,3 hPa 0,0 l/m 15,9 km/h (3 Bft) W 263 0 min 0,000 mm 0,0 UV-I 91 W/m 1,1 C -4,7 C 19,3 km/h (3 Bft) 100,00 %
10.02.2016 11:13 2,3 C 92 % 996,3 hPa 0,0 l/m 14,1 km/h (3 Bft) W 271 0 min 0,000 mm 0,0 UV-I 89 W/m 1,1 C -3,7 C 19,3 km/h (3 Bft) 96,15 %
10.02.2016 11:14 2,3 C 92 % 996,3 hPa 0,0 l/m 19,5 km/h (3 Bft) W-NW 284 0 min 0,000 mm 0,0 UV-I 94 W/m 1,1 C -6,4 C 29,0 km/h (5 Bft) 98,36 %
10.02.2016 11:15 2,3 C 92 % 996,3 hPa 0,0 l/m 16,5 km/h (3 Bft) W 262 0 min 0,000 mm 0,0 UV-I 89 W/m 1,1 C -5,0 C 24,1 km/h (4 Bft) 100,00 %
10.02.2016 11:16 2,3 C 92 % 996,4 hPa 0,0 l/m 17,8 km/h (3 Bft) W-SW 258 0 min 0,000 mm 0,0 UV-I 88 W/m 1,1 C -5,7 C 25,7 km/h (4 Bft) 100,00 %
10.02.2016 11:17 2,3 C 92 % 996,3 hPa 0,0 l/m 23,9 km/h (4 Bft) SW 234 0 min 0,000 mm 0,0 UV-I 88 W/m 1,1 C -8,2 C 29,0 km/h (5 Bft) 100,00 %
10.02.2016 11:18 2,3 C 91 % 996,3 hPa 0,0 l/m 22,3 km/h (4 Bft) W-SW 244 0 min 0,000 mm 0,0 UV-I 80 W/m 1,0 C -7,6 C 27,4 km/h (4 Bft) 93,33 %
10.02.2016 11:19 2,4 C 91 % 996,4 hPa 0,0 l/m 19,7 km/h (3 Bft) W 261 0 min 0,000 mm 0,0 UV-I 77 W/m 1,1 C -6,4 C 29,0 km/h (5 Bft) 100,00 %
10.02.2016 11:20 2,4 C 91 % 996,4 hPa 0,0 l/m 22,0 km/h (4 Bft) W-SW 252 0 min 0,000 mm 0,0 UV-I 83 W/m 1,1 C -7,4 C 27,4 km/h (4 Bft) 100,00 %
10.02.2016 11:21 2,4 C 91 % 996,4 hPa 0,0 l/m 15,9 km/h (3 Bft) W 271 0 min 0,000 mm 0,0 UV-I 77 W/m 1,1 C -4,6 C 20,9 km/h (4 Bft) 100,00 %
10.02.2016 11:22 2,4 C 91 % 996,4 hPa 0,0 l/m 13,8 km/h (3 Bft) W 268 0 min 0,000 mm 0,0 UV-I 76 W/m 1,1 C -3,4 C 19,3 km/h (3 Bft) 100,00 %
10.02.2016 11:23 2,3 C 91 % 996,5 hPa 0,0 l/m 16,8 km/h (3 Bft) SW 223 0 min 0,000 mm 0,0 UV-I 83 W/m 1,0 C -5,2 C 22,5 km/h (4 Bft) 100,00 %
10.02.2016 11:24 2,4 C 91 % 996,4 hPa 0,0 l/m 19,5 km/h (3 Bft) W 269 0 min 0,000 mm 0,0 UV-I 74 W/m 1,1 C -6,3 C 25,7 km/h (4 Bft) 100,00 %
10.02.2016 11:25 2,4 C 92 % 996,5 hPa 0,0 l/m 9,6 km/h (2 Bft) W 262 0 min 0,000 mm 0,0 UV-I 78 W/m 1,2 C -0,5 C 14,5 km/h (3 Bft) 100,00 %
10.02.2016 11:26 2,4 C 92 % 996,5 hPa 0,0 l/m 13,8 km/h (3 Bft) W-NW 284 0 min 0,000 mm 0,0 UV-I 86 W/m 1,2 C -3,4 C 17,7 km/h (3 Bft) 100,00 %
10.02.2016 11:27 2,4 C 92 % 996,5 hPa 0,0 l/m 11,7 km/h (2 Bft) W-SW 248 0 min 0,000 mm 0,0 UV-I 86 W/m 1,2 C -2,0 C 16,1 km/h (3 Bft) 100,00 %
10.02.2016 11:28 2,4 C 92 % 996,5 hPa 0,0 l/m 12,1 km/h (2 Bft) W 264 0 min 0,000 mm 0,0 UV-I 78 W/m 1,2 C -2,3 C 19,3 km/h (3 Bft) 100,00 %
10.02.2016 11:29 2,4 C 92 % 996,5 hPa 0,0 l/m 22,4 km/h (4 Bft) W-SW 242 0 min 0,000 mm 0,0 UV-I 76 W/m 1,2 C -7,5 C 29,0 km/h (5 Bft) 100,00 %
10.02.2016 11:30 2,4 C 92 % 996,5 hPa 0,0 l/m 14,8 km/h (3 Bft) W-NW 290 0 min 0,000 mm 0,0 UV-I 72 W/m 1,2 C -4,0 C 22,5 km/h (4 Bft) 100,00 %
10.02.2016 11:31 2,4 C 92 % 996,5 hPa 0,0 l/m 11,1 km/h (2 Bft) W-SW 237 0 min 0,000 mm 0,0 UV-I 74 W/m 1,2 C -1,6 C 16,1 km/h (3 Bft) 100,00 %
10.02.2016 11:32 2,4 C 92 % 996,5 hPa 0,0 l/m 14,7 km/h (3 Bft) W 265 0 min 0,000 mm 0,0 UV-I 79 W/m 1,2 C -3,9 C 19,3 km/h (3 Bft) 100,00 %
10.02.2016 11:33 2,4 C 92 % 996,5 hPa 0,0 l/m 22,5 km/h (4 Bft) W 261 0 min 0,000 mm 0,0 UV-I 76 W/m 1,2 C -7,6 C 29,0 km/h (5 Bft) 100,00 %
10.02.2016 11:34 2,4 C 92 % 996,4 hPa 0,0 l/m 21,8 km/h (4 Bft) W-SW 244 0 min 0,000 mm 0,0 UV-I 75 W/m 1,2 C -7,3 C 30,6 km/h (5 Bft) 100,00 %
10.02.2016 11:35 2,4 C 91 % 996,4 hPa 0,0 l/m 15,8 km/h (3 Bft) W-SW 246 0 min 0,000 mm 0,0 UV-I 84 W/m 1,1 C -4,5 C 20,9 km/h (4 Bft) 100,00 %
10.02.2016 11:36 2,4 C 92 % 996,5 hPa 0,0 l/m 13,9 km/h (3 Bft) W-NW 290 0 min 0,000 mm 0,0 UV-I 78 W/m 1,2 C -3,4 C 29,0 km/h (5 Bft) 100,00 %
10.02.2016 11:37 2,4 C 91 % 996,5 hPa 0,0 l/m 18,8 km/h (3 Bft) W 266 0 min 0,000 mm 0,0 UV-I 76 W/m 1,1 C -6,0 C 27,4 km/h (4 Bft) 100,00 %
10.02.2016 11:38 2,3 C 91 % 996,5 hPa 0,0 l/m 24,8 km/h (4 Bft) W-SW 249 0 min 0,000 mm 0,0 UV-I 67 W/m 1,0 C -8,5 C 32,2 km/h (5 Bft) 100,00 %
10.02.2016 11:39 2,4 C 91 % 996,6 hPa 0,0 l/m 21,5 km/h (4 Bft) W-SW 243 0 min 0,000 mm 0,0 UV-I 59 W/m 1,1 C -7,2 C 29,0 km/h (5 Bft) 100,00 %
10.02.2016 11:40 2,4 C 91 % 996,6 hPa 0,0 l/m 17,3 km/h (3 Bft) W-SW 256 0 min 0,000 mm 0,0 UV-I 64 W/m 1,1 C -5,3 C 24,1 km/h (4 Bft) 100,00 %
10.02.2016 11:41 2,4 C 91 % 996,6 hPa 0,0 l/m 17,1 km/h (3 Bft) W 270 0 min 0,000 mm 0,0 UV-I 64 W/m 1,1 C -5,2 C 25,7 km/h (4 Bft) 100,00 %
10.02.2016 11:42 2,4 C 91 % 996,6 hPa 0,0 l/m 14,7 km/h (3 Bft) W 263 0 min 0,000 mm 0,0 UV-I 66 W/m 1,1 C -3,9 C 22,5 km/h (4 Bft) 100,00 %
10.02.2016 11:43 2,4 C 91 % 996,6 hPa 0,0 l/m 13,8 km/h (3 Bft) W-SW 240 0 min 0,000 mm 0,0 UV-I 69 W/m 1,1 C -3,4 C 20,9 km/h (4 Bft) 100,00 %
10.02.2016 11:44 2,4 C 92 % 996,6 hPa 0,0 l/m 14,8 km/h (3 Bft) W-SW 239 0 min 0,000 mm 0,0 UV-I 75 W/m 1,2 C -4,0 C 22,5 km/h (4 Bft) 100,00 %
10.02.2016 11:45 2,4 C 92 % 996,6 hPa 0,0 l/m 17,1 km/h (3 Bft) W 277 0 min 0,000 mm 0,0 UV-I 79 W/m 1,2 C -5,2 C 22,5 km/h (4 Bft) 100,00 %
10.02.2016 11:46 2,4 C 91 % 996,6 hPa 0,0 l/m 16,4 km/h (3 Bft) W 277 0 min 0,000 mm 0,0 UV-I 74 W/m 1,1 C -4,8 C 25,7 km/h (4 Bft) 95,83 %
10.02.2016 11:47 2,4 C 91 % 996,6 hPa 0,0 l/m 15,4 km/h (3 Bft) W-SW 257 0 min 0,000 mm 0,0 UV-I 75 W/m 1,1 C -4,3 C 19,3 km/h (3 Bft) 100,00 %
10.02.2016 11:48 2,4 C 92 % 996,6 hPa 0,0 l/m 15,6 km/h (3 Bft) W 271 0 min 0,000 mm 0,0 UV-I 87 W/m 1,2 C -4,4 C 25,7 km/h (4 Bft) 100,00 %
10.02.2016 11:49 2,4 C 92 % 996,6 hPa 0,0 l/m 16,4 km/h (3 Bft) W 275 0 min 0,000 mm 0,0 UV-I 80 W/m 1,2 C -4,8 C 30,6 km/h (5 Bft) 100,00 %
10.02.2016 11:50 2,4 C 91 % 996,6 hPa 0,0 l/m 19,4 km/h (3 Bft) W-SW 255 0 min 0,000 mm 0,0 UV-I 77 W/m 1,1 C -6,3 C 27,4 km/h (4 Bft) 95,83 %
10.02.2016 11:51 2,4 C 91 % 996,6 hPa 0,0 l/m 12,0 km/h (2 Bft) W 269 0 min 0,000 mm 0,0 UV-I 81 W/m 1,1 C -2,2 C 19,3 km/h (3 Bft) 100,00 %
10.02.2016 11:52 2,4 C 91 % 996,6 hPa 0,0 l/m 17,8 km/h (3 Bft) W 269 0 min 0,000 mm 0,0 UV-I 74 W/m 1,1 C -5,5 C 27,4 km/h (4 Bft) 100,00 %
10.02.2016 11:53 2,4 C 91 % 996,6 hPa 0,0 l/m 17,1 km/h (3 Bft) W-NW 294 0 min 0,000 mm 0,0 UV-I 68 W/m 1,1 C -5,2 C 22,5 km/h (4 Bft) 100,00 %
10.02.2016 11:54 2,4 C 91 % 996,6 hPa 0,0 l/m 15,7 km/h (3 Bft) W-SW 238 0 min 0,000 mm 0,0 UV-I 67 W/m 1,1 C -4,5 C 29,0 km/h (5 Bft) 100,00 %
10.02.2016 11:55 2,4 C 91 % 996,6 hPa 0,0 l/m 17,5 km/h (3 Bft) W-SW 254 0 min 0,000 mm 0,0 UV-I 64 W/m 1,1 C -5,4 C 24,1 km/h (4 Bft) 100,00 %
10.02.2016 11:56 2,4 C 91 % 996,6 hPa 0,0 l/m 15,6 km/h (3 Bft) W 267 0 min 0,000 mm 0,0 UV-I 67 W/m 1,1 C -4,4 C 22,5 km/h (4 Bft) 100,00 %
10.02.2016 11:57 2,4 C 91 % 996,6 hPa 0,0 l/m 14,5 km/h (3 Bft) W 278 0 min 0,000 mm 0,0 UV-I 62 W/m 1,1 C -3,8 C 19,3 km/h (3 Bft) 100,00 %
10.02.2016 11:58 2,4 C 91 % 996,6 hPa 0,0 l/m 13,8 km/h (3 Bft) W 265 0 min 0,000 mm 0,0 UV-I 66 W/m 1,1 C -3,4 C 20,9 km/h (4 Bft) 100,00 %
10.02.2016 11:59 2,4 C 91 % 996,6 hPa 0,0 l/m 13,5 km/h (3 Bft) W 271 0 min 0,000 mm 0,0 UV-I 72 W/m 1,1 C -3,2 C 16,1 km/h (3 Bft) 100,00 %
10.02.2016 12:00 2,4 C 91 % 996,7 hPa 0,0 l/m 19,6 km/h (3 Bft) W-SW 241 0 min 0,051 mm 0,0 UV-I 80 W/m 1,1 C -6,4 C 25,7 km/h (4 Bft) 95,83 %
10.02.2016 12:01 2,4 C 91 % 996,6 hPa 0,0 l/m 14,3 km/h (3 Bft) W 261 0 min 0,000 mm 0,0 UV-I 77 W/m 1,1 C -3,7 C 22,5 km/h (4 Bft) 100,00 %
10.02.2016 12:02 2,4 C 91 % 996,7 hPa 0,0 l/m 12,6 km/h (3 Bft) W-SW 257 0 min 0,000 mm 0,0 UV-I 83 W/m 1,1 C -2,6 C 20,9 km/h (4 Bft) 93,33 %
10.02.2016 12:03 2,4 C 91 % 996,7 hPa 0,0 l/m 10,5 km/h (2 Bft) W 264 0 min 0,000 mm 0,0 UV-I 83 W/m 1,1 C -1,2 C 17,7 km/h (3 Bft) 100,00 %
10.02.2016 12:04 2,4 C 91 % 996,7 hPa 0,0 l/m 16,2 km/h (3 Bft) W-SW 256 0 min 0,000 mm 0,0 UV-I 78 W/m 1,1 C -4,7 C 29,0 km/h (5 Bft) 91,30 %
10.02.2016 12:05 2,4 C 90 % 996,7 hPa 0,0 l/m 16,9 km/h (3 Bft) W-SW 248 0 min 0,000 mm 0,0 UV-I 71 W/m 0,9 C -5,1 C 22,5 km/h (4 Bft) 100,00 %
10.02.2016 12:06 2,4 C 90 % 996,6 hPa 0,0 l/m 14,0 km/h (3 Bft) W 261 0 min 0,000 mm 0,0 UV-I 71 W/m 0,9 C -3,5 C 17,7 km/h (3 Bft) 95,65 %
10.02.2016 12:07 2,4 C 90 % 996,7 hPa 0,0 l/m 14,9 km/h (3 Bft) W-SW 257 0 min 0,000 mm 0,0 UV-I 69 W/m 0,9 C -4,0 C 20,9 km/h (4 Bft) 96,30 %
10.02.2016 12:08 2,4 C 90 % 996,7 hPa 0,0 l/m 13,4 km/h (3 Bft) W 279 0 min 0,000 mm 0,0 UV-I 67 W/m 0,9 C -3,1 C 25,7 km/h (4 Bft) 100,00 %
10.02.2016 12:09 2,4 C 90 % 996,6 hPa 0,0 l/m 14,6 km/h (3 Bft) W 262 0 min 0,000 mm 0,0 UV-I 70 W/m 0,9 C -3,8 C 22,5 km/h (4 Bft) 100,00 %
10.02.2016 12:10 2,4 C 90 % 996,7 hPa 0,0 l/m 16,1 km/h (3 Bft) W-SW 244 0 min 0,000 mm 0,0 UV-I 69 W/m 0,9 C -4,7 C 27,4 km/h (4 Bft) 96,15 %
10.02.2016 12:11 2,4 C 90 % 996,7 hPa 0,0 l/m 21,6 km/h (4 Bft) W-SW 252 0 min 0,000 mm 0,0 UV-I 67 W/m 0,9 C -7,2 C 29,0 km/h (5 Bft) 96,67 %
10.02.2016 12:12 2,4 C 90 % 996,7 hPa 0,0 l/m 20,2 km/h (4 Bft) W-SW 249 0 min 0,000 mm 0,0 UV-I 69 W/m 0,9 C -6,6 C 24,1 km/h (4 Bft) 92,86 %
10.02.2016 12:13 2,4 C 90 % 996,7 hPa 0,0 l/m 16,3 km/h (3 Bft) W-SW 245 0 min 0,000 mm 0,0 UV-I 64 W/m 0,9 C -4,8 C 24,1 km/h (4 Bft) 96,67 %
10.02.2016 12:14 2,4 C 89 % 996,7 hPa 0,0 l/m 19,8 km/h (3 Bft) W-SW 253 0 min 0,000 mm 0,0 UV-I 59 W/m 0,8 C -6,4 C 29,0 km/h (5 Bft) 100,00 %
10.02.2016 12:15 2,4 C 89 % 996,7 hPa 0,0 l/m 14,9 km/h (3 Bft) W-SW 248 0 min 0,000 mm 0,0 UV-I 58 W/m 0,8 C -4,0 C 20,9 km/h (4 Bft) 91,67 %
10.02.2016 12:16 2,4 C 89 % 996,7 hPa 0,0 l/m 13,4 km/h (3 Bft) W-SW 254 0 min 0,000 mm 0,0 UV-I 61 W/m 0,8 C -3,1 C 17,7 km/h (3 Bft) 95,65 %
10.02.2016 12:17 2,4 C 89 % 996,7 hPa 0,0 l/m 18,7 km/h (3 Bft) W-SW 246 0 min 0,000 mm 0,0 UV-I 55 W/m 0,8 C -6,0 C 27,4 km/h (4 Bft) 95,83 %
10.02.2016 12:18 2,4 C 89 % 996,7 hPa 0,0 l/m 14,2 km/h (3 Bft) W-NW 288 0 min 0,000 mm 0,0 UV-I 54 W/m 0,8 C -3,6 C 17,7 km/h (3 Bft) 92,86 %
10.02.2016 12:19 2,5 C 89 % 996,7 hPa 0,0 l/m 14,7 km/h (3 Bft) W 269 0 min 0,000 mm 0,0 UV-I 55 W/m 0,9 C -3,8 C 22,5 km/h (4 Bft) 100,00 %
10.02.2016 12:20 2,5 C 89 % 996,8 hPa 0,0 l/m 23,3 km/h (4 Bft) W 279 0 min 0,000 mm 0,0 UV-I 58 W/m 0,9 C -7,7 C 29,0 km/h (5 Bft) 96,55 %
10.02.2016 12:21 2,5 C 89 % 996,7 hPa 0,0 l/m 12,6 km/h (3 Bft) W 272 0 min 0,000 mm 0,0 UV-I 56 W/m 0,9 C -2,5 C 16,1 km/h (3 Bft) 100,00 %
10.02.2016 12:22 2,5 C 89 % 996,7 hPa 0,0 l/m 15,7 km/h (3 Bft) N-NW 341 0 min 0,000 mm 0,0 UV-I 57 W/m 0,9 C -4,3 C 20,9 km/h (4 Bft) 93,33 %
10.02.2016 12:23 2,5 C 89 % 996,7 hPa 0,0 l/m 14,8 km/h (3 Bft) W 276 0 min 0,000 mm 0,0 UV-I 51 W/m 0,9 C -3,8 C 24,1 km/h (4 Bft) 100,00 %
10.02.2016 12:24 2,5 C 89 % 996,8 hPa 0,0 l/m 13,1 km/h (3 Bft) W-SW 251 0 min 0,000 mm 0,0 UV-I 53 W/m 0,9 C -2,8 C 17,7 km/h (3 Bft) 92,31 %
10.02.2016 12:25 2,5 C 89 % 996,8 hPa 0,0 l/m 10,6 km/h (2 Bft) W-NW 290 0 min 0,000 mm 0,0 UV-I 60 W/m 0,9 C -1,1 C 19,3 km/h (3 Bft) 96,30 %
10.02.2016 12:26 2,6 C 89 % 996,7 hPa 0,0 l/m 16,1 km/h (3 Bft) W 267 0 min 0,000 mm 0,0 UV-I 60 W/m 1,0 C -4,4 C 24,1 km/h (4 Bft) 100,00 %
10.02.2016 12:27 2,6 C 89 % 996,7 hPa 0,0 l/m 20,9 km/h (4 Bft) W-SW 238 0 min 0,000 mm 0,0 UV-I 62 W/m 1,0 C -6,7 C 27,4 km/h (4 Bft) 96,15 %
10.02.2016 12:28 2,6 C 88 % 996,7 hPa 0,0 l/m 18,3 km/h (3 Bft) W 263 0 min 0,000 mm 0,0 UV-I 56 W/m 0,8 C -5,5 C 24,1 km/h (4 Bft) 100,00 %
10.02.2016 12:29 2,6 C 88 % 996,7 hPa 0,0 l/m 12,5 km/h (3 Bft) W-SW 252 0 min 0,000 mm 0,0 UV-I 54 W/m 0,8 C -2,3 C 19,3 km/h (3 Bft) 95,65 %
10.02.2016 12:30 2,6 C 88 % 996,7 hPa 0,0 l/m 18,4 km/h (3 Bft) SW 235 0 min 0,000 mm 0,0 UV-I 59 W/m 0,8 C -5,6 C 27,4 km/h (4 Bft) 100,00 %
10.02.2016 12:31 2,6 C 88 % 996,6 hPa 0,0 l/m 15,9 km/h (3 Bft) W 267 0 min 0,000 mm 0,0 UV-I 56 W/m 0,8 C -4,3 C 22,5 km/h (4 Bft) 91,30 %
10.02.2016 12:32 2,6 C 88 % 996,7 hPa 0,0 l/m 15,7 km/h (3 Bft) W 264 0 min 0,000 mm 0,0 UV-I 65 W/m 0,8 C -4,2 C 22,5 km/h (4 Bft) 95,83 %
10.02.2016 12:33 2,6 C 88 % 996,7 hPa 0,0 l/m 19,0 km/h (3 Bft) W 267 0 min 0,000 mm 0,0 UV-I 61 W/m 0,8 C -5,8 C 25,7 km/h (4 Bft) 100,00 %
10.02.2016 12:34 2,6 C 88 % 996,7 hPa 0,0 l/m 13,0 km/h (3 Bft) W-SW 248 0 min 0,000 mm 0,0 UV-I 58 W/m 0,8 C -2,7 C 19,3 km/h (3 Bft) 96,30 %
10.02.2016 12:35 2,6 C 88 % 996,7 hPa 0,0 l/m 13,5 km/h (3 Bft) W-SW 257 0 min 0,000 mm 0,0 UV-I 62 W/m 0,8 C -3,0 C 19,3 km/h (3 Bft) 100,00 %
10.02.2016 12:36 2,7 C 88 % 996,8 hPa 0,0 l/m 17,2 km/h (3 Bft) W 265 0 min 0,000 mm 0,0 UV-I 67 W/m 0,9 C -4,9 C 24,1 km/h (4 Bft) 100,00 %
10.02.2016 12:37 2,7 C 88 % 996,7 hPa 0,0 l/m 18,4 km/h (3 Bft) W-SW 246 0 min 0,000 mm 0,0 UV-I 85 W/m 0,9 C -5,4 C 25,7 km/h (4 Bft) 100,00 %
10.02.2016 12:38 2,7 C 88 % 996,8 hPa 0,0 l/m 14,1 km/h (3 Bft) W 273 0 min 0,000 mm 0,0 UV-I 110 W/m 0,9 C -3,2 C 22,5 km/h (4 Bft) 100,00 %
10.02.2016 12:39 2,7 C 88 % 996,8 hPa 0,0 l/m 17,5 km/h (3 Bft) SW 236 0 min 0,000 mm 0,0 UV-I 122 W/m 0,9 C -5,0 C 22,5 km/h (4 Bft) 100,00 %
10.02.2016 12:40 2,7 C 88 % 996,8 hPa 0,0 l/m 14,0 km/h (3 Bft) W-NW 287 0 min 0,000 mm 0,0 UV-I 130 W/m 0,9 C -3,1 C 17,7 km/h (3 Bft) 100,00 %
10.02.2016 12:41 2,7 C 88 % 996,7 hPa 0,0 l/m 15,4 km/h (3 Bft) W 267 0 min 0,000 mm 0,0 UV-I 136 W/m 0,9 C -3,9 C 20,9 km/h (4 Bft) 96,15 %
10.02.2016 12:42 2,8 C 88 % 996,7 hPa 0,0 l/m 14,2 km/h (3 Bft) W-NW 284 0 min 0,000 mm 0,0 UV-I 141 W/m 1,0 C -3,1 C 22,5 km/h (4 Bft) 100,00 %
10.02.2016 12:43 2,8 C 87 % 996,7 hPa 0,0 l/m 16,9 km/h (3 Bft) W-SW 256 0 min 0,000 mm 0,0 UV-I 139 W/m 0,9 C -4,6 C 20,9 km/h (4 Bft) 100,00 %
10.02.2016 12:44 2,8 C 87 % 996,7 hPa 0,0 l/m 11,5 km/h (2 Bft) W 266 0 min 0,000 mm 0,0 UV-I 136 W/m 0,9 C -1,4 C 22,5 km/h (4 Bft) 95,83 %
10.02.2016 12:45 2,8 C 87 % 996,7 hPa 0,0 l/m 15,7 km/h (3 Bft) W 265 0 min 0,000 mm 0,0 UV-I 135 W/m 0,9 C -4,0 C 22,5 km/h (4 Bft) 100,00 %
10.02.2016 12:46 2,8 C 87 % 996,7 hPa 0,0 l/m 18,6 km/h (3 Bft) W-SW 238 0 min 0,000 mm 0,0 UV-I 135 W/m 0,9 C -5,4 C 24,1 km/h (4 Bft) 96,15 %
10.02.2016 12:47 2,8 C 86 % 996,7 hPa 0,0 l/m 12,2 km/h (2 Bft) W-SW 257 0 min 0,000 mm 0,0 UV-I 134 W/m 0,7 C -1,9 C 24,1 km/h (4 Bft) 100,00 %
10.02.2016 12:48 2,8 C 87 % 996,7 hPa 0,0 l/m 10,4 km/h (2 Bft) W-SW 258 0 min 0,000 mm 0,0 UV-I 134 W/m 0,9 C -0,7 C 14,5 km/h (3 Bft) 100,00 %
10.02.2016 12:49 2,9 C 87 % 996,7 hPa 0,0 l/m 15,1 km/h (3 Bft) SW 225 0 min 0,000 mm 0,0 UV-I 131 W/m 1,0 C -3,5 C 20,9 km/h (4 Bft) 100,00 %
10.02.2016 12:50 2,9 C 87 % 996,7 hPa 0,0 l/m 13,7 km/h (3 Bft) SW 227 0 min 0,000 mm 0,0 UV-I 131 W/m 1,0 C -2,7 C 19,3 km/h (3 Bft) 100,00 %
10.02.2016 12:51 2,9 C 87 % 996,7 hPa 0,0 l/m 16,8 km/h (3 Bft) W 271 0 min 0,000 mm 0,0 UV-I 131 W/m 1,0 C -4,4 C 32,2 km/h (5 Bft) 100,00 %
10.02.2016 12:52 2,9 C 86 % 996,7 hPa 0,0 l/m 19,8 km/h (3 Bft) SW 227 0 min 0,000 mm 0,0 UV-I 132 W/m 0,8 C -5,8 C 29,0 km/h (5 Bft) 92,86 %
10.02.2016 12:53 2,9 C 86 % 996,7 hPa 0,0 l/m 19,2 km/h (3 Bft) W 268 0 min 0,000 mm 0,0 UV-I 132 W/m 0,8 C -5,5 C 27,4 km/h (4 Bft) 100,00 %
10.02.2016 12:54 2,9 C 86 % 996,8 hPa 0,0 l/m 18,4 km/h (3 Bft) W 277 0 min 0,000 mm 0,0 UV-I 132 W/m 0,8 C -5,2 C 24,1 km/h (4 Bft) 100,00 %
10.02.2016 12:55 2,9 C 86 % 996,7 hPa 0,0 l/m 16,9 km/h (3 Bft) W 266 0 min 0,000 mm 0,0 UV-I 134 W/m 0,8 C -4,5 C 20,9 km/h (4 Bft) 100,00 %
10.02.2016 12:56 2,9 C 86 % 996,7 hPa 0,0 l/m 23,9 km/h (4 Bft) W 264 0 min 0,000 mm 0,0 UV-I 136 W/m 0,8 C -7,4 C 32,2 km/h (5 Bft) 100,00 %
10.02.2016 12:57 3,0 C 86 % 996,7 hPa 0,0 l/m 16,1 km/h (3 Bft) SW 236 0 min 0,000 mm 0,0 UV-I 137 W/m 0,9 C -3,9 C 24,1 km/h (4 Bft) 95,83 %
10.02.2016 12:58 3,0 C 86 % 996,7 hPa 0,0 l/m 19,6 km/h (3 Bft) W-SW 244 0 min 0,000 mm 0,0 UV-I 140 W/m 0,9 C -5,6 C 24,1 km/h (4 Bft) 100,00 %
10.02.2016 12:59 3,0 C 85 % 996,7 hPa 0,0 l/m 21,1 km/h (4 Bft) W 261 0 min 0,000 mm 0,0 UV-I 144 W/m 0,7 C -6,2 C 27,4 km/h (4 Bft) 100,00 %
10.02.2016 13:00 3,0 C 85 % 996,7 hPa 0,0 l/m 14,6 km/h (3 Bft) W-SW 258 0 min 0,051 mm 0,0 UV-I 150 W/m 0,7 C -3,1 C 20,9 km/h (4 Bft) 100,00 %
10.02.2016 13:01 3,1 C 86 % 996,7 hPa 0,0 l/m 18,6 km/h (3 Bft) W-SW 246 0 min 0,000 mm 0,1 UV-I 157 W/m 1,0 C -5,0 C 24,1 km/h (4 Bft) 96,30 %
10.02.2016 13:02 3,1 C 86 % 996,7 hPa 0,0 l/m 15,5 km/h (3 Bft) W-SW 244 0 min 0,000 mm 0,5 UV-I 162 W/m 1,0 C -3,5 C 19,3 km/h (3 Bft) 100,00 %
10.02.2016 13:03 3,1 C 86 % 996,7 hPa 0,0 l/m 25,2 km/h (4 Bft) SW 236 0 min 0,000 mm 0,5 UV-I 171 W/m 1,0 C -7,6 C 35,4 km/h (5 Bft) 100,00 %
10.02.2016 13:04 3,1 C 86 % 996,7 hPa 0,0 l/m 20,8 km/h (4 Bft) W 274 0 min 0,000 mm 0,5 UV-I 178 W/m 1,0 C -6,0 C 29,0 km/h (5 Bft) 100,00 %
10.02.2016 13:05 3,1 C 86 % 996,8 hPa 0,0 l/m 20,6 km/h (4 Bft) SW 223 0 min 0,000 mm 0,5 UV-I 183 W/m 1,0 C -5,9 C 29,0 km/h (5 Bft) 100,00 %
10.02.2016 13:06 3,1 C 85 % 996,8 hPa 0,0 l/m 20,4 km/h (4 Bft) W 261 0 min 0,000 mm 0,5 UV-I 185 W/m 0,8 C -5,8 C 33,8 km/h (5 Bft) 100,00 %
10.02.2016 13:07 3,1 C 85 % 996,8 hPa 0,0 l/m 13,5 km/h (3 Bft) W-NW 287 0 min 0,000 mm 0,5 UV-I 185 W/m 0,8 C -2,4 C 20,9 km/h (4 Bft) 100,00 %
10.02.2016 13:08 3,2 C 85 % 996,8 hPa 0,0 l/m 18,7 km/h (3 Bft) W-NW 292 0 min 0,000 mm 0,5 UV-I 185 W/m 0,9 C -4,9 C 25,7 km/h (4 Bft) 100,00 %
10.02.2016 13:09 3,2 C 86 % 996,8 hPa 0,0 l/m 19,5 km/h (3 Bft) W 259 0 min 0,000 mm 0,5 UV-I 185 W/m 1,1 C -5,3 C 24,1 km/h (4 Bft) 100,00 %
10.02.2016 13:10 3,2 C 85 % 996,9 hPa 0,0 l/m 20,5 km/h (4 Bft) SW 221 0 min 0,000 mm 0,5 UV-I 186 W/m 0,9 C -5,7 C 25,7 km/h (4 Bft) 100,00 %
10.02.2016 13:11 3,2 C 86 % 996,8 hPa 0,0 l/m 13,4 km/h (3 Bft) W-SW 252 0 min 0,000 mm 0,5 UV-I 186 W/m 1,1 C -2,2 C 22,5 km/h (4 Bft) 100,00 %
10.02.2016 13:12 3,2 C 85 % 996,9 hPa 0,0 l/m 18,6 km/h (3 Bft) W-NW 284 0 min 0,000 mm 0,5 UV-I 188 W/m 0,9 C -4,9 C 22,5 km/h (4 Bft) 96,67 %
10.02.2016 13:13 3,3 C 85 % 996,9 hPa 0,0 l/m 15,4 km/h (3 Bft) W-SW 251 0 min 0,000 mm 0,5 UV-I 186 W/m 1,0 C -3,2 C 22,5 km/h (4 Bft) 95,65 %
10.02.2016 13:14 3,3 C 85 % 996,8 hPa 0,0 l/m 14,9 km/h (3 Bft) SW 230 0 min 0,000 mm 0,5 UV-I 187 W/m 1,0 C -2,9 C 20,9 km/h (4 Bft) 95,83 %
10.02.2016 13:15 3,3 C 85 % 996,8 hPa 0,0 l/m 13,4 km/h (3 Bft) W-SW 242 0 min 0,000 mm 0,5 UV-I 190 W/m 1,0 C -2,1 C 17,7 km/h (3 Bft) 100,00 %
10.02.2016 13:16 3,3 C 85 % 996,9 hPa 0,0 l/m 14,8 km/h (3 Bft) W 267 0 min 0,000 mm 0,5 UV-I 188 W/m 1,0 C -2,9 C 19,3 km/h (3 Bft) 95,83 %
10.02.2016 13:17 3,3 C 85 % 996,9 hPa 0,0 l/m 20,4 km/h (4 Bft) W 268 0 min 0,000 mm 0,6 UV-I 192 W/m 1,0 C -5,5 C 33,8 km/h (5 Bft) 96,15 %
10.02.2016 13:18 3,3 C 84 % 996,8 hPa 0,0 l/m 16,8 km/h (3 Bft) W-SW 254 0 min 0,000 mm 0,6 UV-I 195 W/m 0,9 C -3,9 C 30,6 km/h (5 Bft) 100,00 %
10.02.2016 13:19 3,3 C 85 % 996,9 hPa 0,0 l/m 11,7 km/h (2 Bft) W-SW 247 0 min 0,000 mm 0,6 UV-I 194 W/m 1,0 C -1,0 C 14,5 km/h (3 Bft) 100,00 %
10.02.2016 13:20 3,3 C 85 % 996,9 hPa 0,0 l/m 8,5 km/h (2 Bft) W 259 0 min 0,000 mm 0,6 UV-I 192 W/m 1,0 C 1,4 C 12,9 km/h (3 Bft) 96,30 %
10.02.2016 13:21 3,4 C 84 % 997,0 hPa 0,0 l/m 16,4 km/h (3 Bft) W 260 0 min 0,000 mm 0,5 UV-I 190 W/m 1,0 C -3,6 C 20,9 km/h (4 Bft) 100,00 %
10.02.2016 13:22 3,4 C 84 % 997,0 hPa 0,0 l/m 15,9 km/h (3 Bft) W-SW 254 0 min 0,000 mm 0,5 UV-I 186 W/m 1,0 C -3,3 C 24,1 km/h (4 Bft) 100,00 %
10.02.2016 13:23 3,4 C 84 % 996,9 hPa 0,0 l/m 20,2 km/h (4 Bft) W 265 0 min 0,000 mm 0,5 UV-I 181 W/m 1,0 C -5,3 C 30,6 km/h (5 Bft) 100,00 %
10.02.2016 13:24 3,4 C 84 % 997,0 hPa 0,0 l/m 18,6 km/h (3 Bft) W 281 0 min 0,000 mm 0,5 UV-I 173 W/m 1,0 C -4,6 C 25,7 km/h (4 Bft) 100,00 %
10.02.2016 13:25 3,4 C 84 % 996,9 hPa 0,0 l/m 11,7 km/h (2 Bft) W-SW 240 0 min 0,000 mm 0,5 UV-I 168 W/m 1,0 C -0,9 C 17,7 km/h (3 Bft) 100,00 %
10.02.2016 13:26 3,4 C 85 % 997,0 hPa 0,0 l/m 11,3 km/h (2 Bft) W-SW 246 0 min 0,000 mm 0,5 UV-I 175 W/m 1,1 C -0,6 C 14,5 km/h (3 Bft) 96,15 %
10.02.2016 13:27 3,4 C 85 % 997,0 hPa 0,0 l/m 12,3 km/h (3 Bft) W 267 0 min 0,000 mm 0,5 UV-I 180 W/m 1,1 C -1,3 C 17,7 km/h (3 Bft) 93,33 %
10.02.2016 13:28 3,4 C 85 % 997,1 hPa 0,0 l/m 14,9 km/h (3 Bft) W 276 0 min 0,000 mm 0,5 UV-I 167 W/m 1,1 C -2,8 C 17,7 km/h (3 Bft) 100,00 %
10.02.2016 13:29 3,4 C 84 % 997,0 hPa 0,0 l/m 9,6 km/h (2 Bft) SW 227 0 min 0,000 mm 0,0 UV-I 160 W/m 1,0 C 0,6 C 16,1 km/h (3 Bft) 100,00 %
10.02.2016 13:30 3,4 C 84 % 997,1 hPa 0,0 l/m 14,1 km/h (3 Bft) W 259 0 min 0,000 mm 0,0 UV-I 159 W/m 1,0 C -2,4 C 19,3 km/h (3 Bft) 100,00 %
10.02.2016 13:31 3,5 C 85 % 997,1 hPa 0,0 l/m 16,5 km/h (3 Bft) W 259 0 min 0,000 mm 0,2 UV-I 164 W/m 1,2 C -3,5 C 22,5 km/h (4 Bft) 100,00 %
10.02.2016 13:32 3,5 C 84 % 997,1 hPa 0,0 l/m 17,4 km/h (3 Bft) W 273 0 min 0,000 mm 0,5 UV-I 172 W/m 1,1 C -4,0 C 27,4 km/h (4 Bft) 100,00 %
10.02.2016 13:33 3,5 C 85 % 997,1 hPa 0,0 l/m 14,9 km/h (3 Bft) W 277 0 min 0,000 mm 0,5 UV-I 177 W/m 1,2 C -2,7 C 17,7 km/h (3 Bft) 100,00 %
10.02.2016 13:34 3,5 C 85 % 997,1 hPa 0,0 l/m 16,3 km/h (3 Bft) W-SW 257 0 min 0,000 mm 0,5 UV-I 183 W/m 1,2 C -3,4 C 22,5 km/h (4 Bft) 100,00 %
10.02.2016 13:35 3,5 C 85 % 997,1 hPa 0,0 l/m 17,9 km/h (3 Bft) W-SW 243 0 min 0,000 mm 0,5 UV-I 186 W/m 1,2 C -4,2 C 25,7 km/h (4 Bft) 100,00 %
10.02.2016 13:36 3,6 C 85 % 997,1 hPa 0,0 l/m 10,6 km/h (2 Bft) W 271 0 min 0,000 mm 0,5 UV-I 168 W/m 1,3 C 0,1 C 12,9 km/h (3 Bft) 100,00 %
10.02.2016 13:37 3,6 C 85 % 997,1 hPa 0,0 l/m 14,2 km/h (3 Bft) W 267 0 min 0,000 mm 0,0 UV-I 140 W/m 1,3 C -2,2 C 22,5 km/h (4 Bft) 100,00 %
10.02.2016 13:38 3,5 C 84 % 997,1 hPa 0,0 l/m 19,2 km/h (3 Bft) W-SW 257 0 min 0,000 mm 0,0 UV-I 131 W/m 1,1 C -4,8 C 25,7 km/h (4 Bft) 100,00 %
10.02.2016 13:39 3,6 C 84 % 997,0 hPa 0,0 l/m 18,7 km/h (3 Bft) W-SW 256 0 min 0,000 mm 0,0 UV-I 128 W/m 1,2 C -4,4 C 24,1 km/h (4 Bft) 100,00 %
10.02.2016 13:40 3,6 C 84 % 997,0 hPa 0,0 l/m 14,9 km/h (3 Bft) SW 215 0 min 0,000 mm 0,0 UV-I 113 W/m 1,2 C -2,6 C 19,3 km/h (3 Bft) 100,00 %
10.02.2016 13:41 3,6 C 84 % 997,1 hPa 0,0 l/m 18,7 km/h (3 Bft) W 265 0 min 0,000 mm 0,0 UV-I 108 W/m 1,2 C -4,4 C 27,4 km/h (4 Bft) 100,00 %
10.02.2016 13:42 3,5 C 83 % 997,1 hPa 0,0 l/m 16,4 km/h (3 Bft) W-SW 245 0 min 0,000 mm 0,0 UV-I 105 W/m 0,9 C -3,5 C 24,1 km/h (4 Bft) 100,00 %
10.02.2016 13:43 3,5 C 83 % 997,1 hPa 0,0 l/m 20,6 km/h (4 Bft) W 279 0 min 0,000 mm 0,0 UV-I 101 W/m 0,9 C -5,4 C 25,7 km/h (4 Bft) 95,65 %
10.02.2016 13:44 3,5 C 83 % 997,1 hPa 0,0 l/m 14,4 km/h (3 Bft) S 187 0 min 0,000 mm 0,0 UV-I 101 W/m 0,9 C -2,4 C 20,9 km/h (4 Bft) 100,00 %
10.02.2016 13:45 3,4 C 83 % 997,1 hPa 0,0 l/m 17,2 km/h (3 Bft) W 266 0 min 0,000 mm 0,0 UV-I 92 W/m 0,8 C -4,0 C 22,5 km/h (4 Bft) 100,00 %
10.02.2016 13:46 3,4 C 83 % 997,1 hPa 0,0 l/m 18,6 km/h (3 Bft) W-SW 254 0 min 0,000 mm 0,0 UV-I 74 W/m 0,8 C -4,6 C 24,1 km/h (4 Bft) 100,00 %
10.02.2016 13:47 3,4 C 83 % 997,2 hPa 0,0 l/m 14,7 km/h (3 Bft) W-NW 286 0 min 0,000 mm 0,0 UV-I 68 W/m 0,8 C -2,7 C 20,9 km/h (4 Bft) 100,00 %
10.02.2016 13:48 3,4 C 83 % 997,1 hPa 0,0 l/m 12,0 km/h (2 Bft) W 276 0 min 0,000 mm 0,0 UV-I 67 W/m 0,8 C -1,1 C 20,9 km/h (4 Bft) 96,67 %
10.02.2016 13:49 3,4 C 83 % 997,1 hPa 0,0 l/m 15,2 km/h (3 Bft) SW 225 0 min 0,000 mm 0,0 UV-I 62 W/m 0,8 C -3,0 C 22,5 km/h (4 Bft) 100,00 %
10.02.2016 13:50 3,4 C 83 % 997,2 hPa 0,0 l/m 16,5 km/h (3 Bft) W-SW 245 0 min 0,000 mm 0,0 UV-I 66 W/m 0,8 C -3,6 C 22,5 km/h (4 Bft) 100,00 %
10.02.2016 13:51 3,4 C 83 % 997,1 hPa 0,0 l/m 12,6 km/h (3 Bft) W-SW 245 0 min 0,000 mm 0,0 UV-I 69 W/m 0,8 C -1,5 C 17,7 km/h (3 Bft) 100,00 %
10.02.2016 13:52 3,4 C 84 % 997,1 hPa 0,0 l/m 10,2 km/h (2 Bft) W-SW 257 0 min 0,000 mm 0,0 UV-I 73 W/m 1,0 C 0,2 C 14,5 km/h (3 Bft) 100,00 %
10.02.2016 13:53 3,4 C 84 % 997,2 hPa 0,0 l/m 11,7 km/h (2 Bft) W 268 0 min 0,000 mm 0,0 UV-I 97 W/m 1,0 C -0,9 C 14,5 km/h (3 Bft) 100,00 %
10.02.2016 13:54 3,4 C 84 % 997,2 hPa 0,0 l/m 16,4 km/h (3 Bft) W-SW 255 0 min 0,000 mm 0,0 UV-I 94 W/m 1,0 C -3,6 C 22,5 km/h (4 Bft) 100,00 %
10.02.2016 13:55 3,4 C 84 % 997,2 hPa 0,0 l/m 24,8 km/h (4 Bft) W-SW 252 0 min 0,000 mm 0,0 UV-I 85 W/m 1,0 C -7,0 C 33,8 km/h (5 Bft) 100,00 %
10.02.2016 13:56 3,4 C 83 % 997,2 hPa 0,0 l/m 17,5 km/h (3 Bft) W-SW 246 0 min 0,000 mm 0,0 UV-I 74 W/m 0,8 C -4,1 C 27,4 km/h (4 Bft) 100,00 %
10.02.2016 13:57 3,4 C 83 % 997,2 hPa 0,0 l/m 17,1 km/h (3 Bft) W 269 0 min 0,000 mm 0,0 UV-I 64 W/m 0,8 C -3,9 C 24,1 km/h (4 Bft) 100,00 %
10.02.2016 13:58 3,4 C 83 % 997,2 hPa 0,0 l/m 17,0 km/h (3 Bft) W 259 0 min 0,000 mm 0,0 UV-I 54 W/m 0,8 C -3,9 C 29,0 km/h (5 Bft) 100,00 %
10.02.2016 13:59 3,4 C 83 % 997,2 hPa 0,0 l/m 25,2 km/h (4 Bft) W-SW 252 0 min 0,000 mm 0,0 UV-I 60 W/m 0,8 C -7,2 C 35,4 km/h (5 Bft) 100,00 %
10.02.2016 14:00 3,4 C 83 % 997,2 hPa 0,0 l/m 18,7 km/h (3 Bft) W-SW 252 0 min 0,076 mm 0,0 UV-I 57 W/m 0,8 C -4,7 C 27,4 km/h (4 Bft) 96,30 %
10.02.2016 14:02 3,4 C 82 % 997,3 hPa 0,0 l/m 20,2 km/h (4 Bft) W 272 0 min 0,000 mm 0,0 UV-I 68 W/m 0,6 C -5,3 C 29,0 km/h (5 Bft) 100,00 %
10.02.2016 14:03 3,4 C 82 % 997,2 hPa 0,0 l/m 15,8 km/h (3 Bft) W 266 0 min 0,000 mm 0,0 UV-I 70 W/m 0,6 C -3,3 C 22,5 km/h (4 Bft) 100,00 %
10.02.2016 14:04 3,4 C 83 % 997,2 hPa 0,0 l/m 15,0 km/h (3 Bft) W-SW 238 0 min 0,000 mm 0,0 UV-I 60 W/m 0,8 C -2,9 C 20,9 km/h (4 Bft) 96,15 %
10.02.2016 14:05 3,4 C 83 % 997,2 hPa 0,0 l/m 18,7 km/h (3 Bft) W-SW 251 0 min 0,000 mm 0,0 UV-I 58 W/m 0,8 C -4,7 C 29,0 km/h (5 Bft) 96,15 %
10.02.2016 14:06 3,4 C 82 % 997,2 hPa 0,0 l/m 22,6 km/h (4 Bft) W 266 0 min 0,000 mm 0,0 UV-I 58 W/m 0,6 C -6,3 C 29,0 km/h (5 Bft) 87,50 %
10.02.2016 14:07 3,4 C 82 % 997,2 hPa 0,0 l/m 24,6 km/h (4 Bft) W 264 0 min 0,000 mm 0,0 UV-I 66 W/m 0,6 C -7,0 C 32,2 km/h (5 Bft) 100,00 %
10.02.2016 14:08 3,4 C 82 % 997,3 hPa 0,0 l/m 17,9 km/h (3 Bft) W 262 0 min 0,000 mm 0,0 UV-I 88 W/m 0,6 C -4,3 C 29,0 km/h (5 Bft) 96,15 %
10.02.2016 14:09 3,4 C 82 % 997,3 hPa 0,0 l/m 19,2 km/h (3 Bft) W-NW 286 0 min 0,000 mm 0,0 UV-I 119 W/m 0,6 C -4,9 C 24,1 km/h (4 Bft) 96,30 %
10.02.2016 14:10 3,4 C 82 % 997,3 hPa 0,0 l/m 15,2 km/h (3 Bft) W 267 0 min 0,000 mm 0,0 UV-I 137 W/m 0,6 C -3,0 C 25,7 km/h (4 Bft) 100,00 %
10.02.2016 14:11 3,4 C 82 % 997,3 hPa 0,0 l/m 18,1 km/h (3 Bft) W-SW 252 0 min 0,000 mm 0,0 UV-I 142 W/m 0,6 C -4,4 C 25,7 km/h (4 Bft) 100,00 %
10.02.2016 14:12 3,4 C 82 % 997,4 hPa 0,0 l/m 14,7 km/h (3 Bft) W-NW 282 0 min 0,000 mm 0,0 UV-I 142 W/m 0,6 C -2,7 C 29,0 km/h (5 Bft) 96,15 %
10.02.2016 14:13 3,5 C 82 % 997,3 hPa 0,0 l/m 11,3 km/h (2 Bft) W 265 0 min 0,000 mm 0,0 UV-I 136 W/m 0,7 C -0,5 C 24,1 km/h (4 Bft) 95,83 %
10.02.2016 14:14 3,5 C 82 % 997,3 hPa 0,0 l/m 14,1 km/h (3 Bft) W 259 0 min 0,000 mm 0,0 UV-I 132 W/m 0,7 C -2,2 C 22,5 km/h (4 Bft) 100,00 %
10.02.2016 14:15 3,6 C 82 % 997,3 hPa 0,0 l/m 17,8 km/h (3 Bft) S-SW 213 0 min 0,000 mm 0,0 UV-I 132 W/m 0,8 C -4,0 C 24,1 km/h (4 Bft) 96,30 %
10.02.2016 14:16 3,6 C 81 % 997,3 hPa 0,0 l/m 24,0 km/h (4 Bft) W-SW 252 0 min 0,000 mm 0,0 UV-I 126 W/m 0,7 C -6,5 C 35,4 km/h (5 Bft) 95,65 %
10.02.2016 14:17 3,6 C 80 % 997,3 hPa 0,0 l/m 19,9 km/h (4 Bft) W 260 0 min 0,000 mm 0,0 UV-I 122 W/m 0,5 C -4,9 C 25,7 km/h (4 Bft) 95,83 %
10.02.2016 14:18 3,6 C 80 % 997,3 hPa 0,0 l/m 21,3 km/h (4 Bft) W 281 0 min 0,000 mm 0,0 UV-I 128 W/m 0,5 C -5,5 C 37,0 km/h (5 Bft) 95,65 %
10.02.2016 14:19 3,6 C 80 % 997,3 hPa 0,0 l/m 17,6 km/h (3 Bft) W 260 0 min 0,000 mm 0,0 UV-I 135 W/m 0,5 C -3,9 C 25,7 km/h (4 Bft) 100,00 %
10.02.2016 14:20 3,6 C 80 % 997,4 hPa 0,0 l/m 16,7 km/h (3 Bft) W-SW 245 0 min 0,000 mm 0,0 UV-I 138 W/m 0,5 C -3,5 C 20,9 km/h (4 Bft) 95,65 %
10.02.2016 14:21 3,6 C 80 % 997,3 hPa 0,0 l/m 13,3 km/h (3 Bft) W 281 0 min 0,000 mm 0,0 UV-I 142 W/m 0,5 C -1,7 C 19,3 km/h (3 Bft) 100,00 %
10.02.2016 14:22 3,6 C 80 % 997,4 hPa 0,0 l/m 15,3 km/h (3 Bft) SW 217 0 min 0,000 mm 0,0 UV-I 147 W/m 0,5 C -2,8 C 27,4 km/h (4 Bft) 98,44 %
10.02.2016 14:23 3,6 C 80 % 997,4 hPa 0,0 l/m 17,5 km/h (3 Bft) W-NW 289 0 min 0,000 mm 0,0 UV-I 151 W/m 0,5 C -3,9 C 22,5 km/h (4 Bft) 97,87 %
10.02.2016 14:24 3,6 C 80 % 997,4 hPa 0,0 l/m 13,8 km/h (3 Bft) W-SW 241 0 min 0,000 mm 0,0 UV-I 155 W/m 0,5 C -2,0 C 19,3 km/h (3 Bft) 93,33 %
10.02.2016 14:25 3,6 C 80 % 997,4 hPa 0,0 l/m 20,0 km/h (4 Bft) W 267 0 min 0,000 mm 0,0 UV-I 159 W/m 0,5 C -5,0 C 27,4 km/h (4 Bft) 100,00 %
10.02.2016 14:26 3,6 C 79 % 997,4 hPa 0,0 l/m 14,6 km/h (3 Bft) W-SW 240 0 min 0,000 mm 0,0 UV-I 164 W/m 0,3 C -2,4 C 22,5 km/h (4 Bft) 96,55 %
10.02.2016 14:27 3,7 C 79 % 997,4 hPa 0,0 l/m 16,3 km/h (3 Bft) W-SW 249 0 min 0,000 mm 0,0 UV-I 167 W/m 0,4 C -3,2 C 27,4 km/h (4 Bft) 93,33 %
10.02.2016 14:28 3,7 C 79 % 997,4 hPa 0,0 l/m 21,4 km/h (4 Bft) W 263 0 min 0,000 mm 0,0 UV-I 165 W/m 0,4 C -5,4 C 27,4 km/h (4 Bft) 95,83 %
10.02.2016 14:31 3,7 C 79 % 997,4 hPa 0,0 l/m 17,9 km/h (3 Bft) NW 309 0 min 0,000 mm 0,0 UV-I 167 W/m 0,4 C -3,9 C 25,7 km/h (4 Bft) 94,87 %
10.02.2016 14:32 3,7 C 80 % 997,4 hPa 0,0 l/m 15,3 km/h (3 Bft) SW 225 0 min 0,000 mm 0,0 UV-I 165 W/m 0,6 C -2,7 C 25,7 km/h (4 Bft) 95,83 %
10.02.2016 14:33 3,7 C 79 % 997,4 hPa 0,0 l/m 17,9 km/h (3 Bft) W 267 0 min 0,000 mm 0,0 UV-I 169 W/m 0,4 C -3,9 C 40,2 km/h (6 Bft) 100,00 %
10.02.2016 14:34 3,7 C 78 % 997,4 hPa 0,0 l/m 27,5 km/h (4 Bft) W-NW 301 0 min 0,000 mm 0,0 UV-I 166 W/m 0,2 C -7,5 C 40,2 km/h (6 Bft) 100,00 %
10.02.2016 14:35 3,7 C 78 % 997,4 hPa 0,0 l/m 23,0 km/h (4 Bft) W 270 0 min 0,000 mm 0,0 UV-I 160 W/m 0,2 C -6,0 C 30,6 km/h (5 Bft) 96,55 %
10.02.2016 14:36 3,7 C 78 % 997,4 hPa 0,0 l/m 21,8 km/h (4 Bft) W-NW 285 0 min 0,000 mm 0,0 UV-I 155 W/m 0,2 C -5,6 C 30,6 km/h (5 Bft) 100,00 %
10.02.2016 14:37 3,7 C 78 % 997,4 hPa 0,0 l/m 19,2 km/h (3 Bft) W 263 0 min 0,000 mm 0,0 UV-I 156 W/m 0,2 C -4,5 C 24,1 km/h (4 Bft) 96,15 %
10.02.2016 14:38 3,7 C 78 % 997,5 hPa 0,0 l/m 15,6 km/h (3 Bft) W-SW 253 0 min 0,000 mm 0,0 UV-I 162 W/m 0,2 C -2,8 C 19,3 km/h (3 Bft) 94,44 %
10.02.2016 14:39 3,7 C 79 % 997,5 hPa 0,0 l/m 13,0 km/h (3 Bft) W 261 0 min 0,000 mm 0,0 UV-I 163 W/m 0,4 C -1,4 C 24,1 km/h (4 Bft) 96,55 %
10.02.2016 14:40 3,7 C 79 % 997,5 hPa 0,0 l/m 15,2 km/h (3 Bft) W-SW 248 0 min 0,000 mm 0,0 UV-I 159 W/m 0,4 C -2,6 C 22,5 km/h (4 Bft) 93,33 %
10.02.2016 14:41 3,7 C 78 % 997,5 hPa 0,0 l/m 11,2 km/h (2 Bft) W 266 0 min 0,000 mm 0,0 UV-I 154 W/m 0,2 C -0,2 C 16,1 km/h (3 Bft) 100,00 %
10.02.2016 14:42 3,7 C 79 % 997,5 hPa 0,0 l/m 22,6 km/h (4 Bft) W 261 0 min 0,000 mm 0,0 UV-I 148 W/m 0,4 C -5,9 C 40,2 km/h (6 Bft) 100,00 %
10.02.2016 14:43 3,7 C 79 % 997,5 hPa 0,0 l/m 16,7 km/h (3 Bft) W 281 0 min 0,000 mm 0,0 UV-I 148 W/m 0,4 C -3,4 C 20,9 km/h (4 Bft) 100,00 %
10.02.2016 14:44 3,7 C 79 % 997,5 hPa 0,0 l/m 16,0 km/h (3 Bft) W-NW 298 0 min 0,000 mm 0,0 UV-I 152 W/m 0,4 C -3,0 C 24,1 km/h (4 Bft) 100,00 %
10.02.2016 14:45 3,7 C 80 % 997,6 hPa 0,0 l/m 13,1 km/h (3 Bft) W-NW 288 0 min 0,000 mm 0,0 UV-I 155 W/m 0,6 C -1,4 C 24,1 km/h (4 Bft) 100,00 %
10.02.2016 14:46 3,7 C 79 % 997,6 hPa 0,0 l/m 17,2 km/h (3 Bft) SW 233 0 min 0,000 mm 0,0 UV-I 155 W/m 0,4 C -3,6 C 27,4 km/h (4 Bft) 100,00 %
10.02.2016 14:47 3,7 C 79 % 997,6 hPa 0,0 l/m 10,0 km/h (2 Bft) W-SW 237 0 min 0,000 mm 0,0 UV-I 153 W/m 0,4 C 0,6 C 16,1 km/h (3 Bft) 95,83 %
10.02.2016 14:48 3,7 C 80 % 997,5 hPa 0,0 l/m 12,0 km/h (2 Bft) W-SW 250 0 min 0,000 mm 0,0 UV-I 149 W/m 0,6 C -0,7 C 16,1 km/h (3 Bft) 100,00 %
10.02.2016 14:49 3,7 C 80 % 997,6 hPa 0,0 l/m 13,7 km/h (3 Bft) W 277 0 min 0,000 mm 0,0 UV-I 153 W/m 0,6 C -1,8 C 22,5 km/h (4 Bft) 100,00 %
10.02.2016 14:50 3,7 C 80 % 997,6 hPa 0,0 l/m 9,0 km/h (2 Bft) W 273 0 min 0,000 mm 0,0 UV-I 159 W/m 0,6 C 1,4 C 11,3 km/h (2 Bft) 100,00 %
10.02.2016 14:51 3,7 C 81 % 997,6 hPa 0,0 l/m 15,2 km/h (3 Bft) W-SW 254 0 min 0,000 mm 0,0 UV-I 164 W/m 0,7 C -2,6 C 29,0 km/h (5 Bft) 100,00 %
10.02.2016 14:52 3,7 C 80 % 997,6 hPa 0,0 l/m 18,9 km/h (3 Bft) W-SW 248 0 min 0,000 mm 0,0 UV-I 161 W/m 0,6 C -4,4 C 27,4 km/h (4 Bft) 100,00 %
10.02.2016 14:53 3,7 C 79 % 997,6 hPa 0,0 l/m 13,8 km/h (3 Bft) SW 218 0 min 0,000 mm 0,0 UV-I 158 W/m 0,4 C -1,8 C 19,3 km/h (3 Bft) 96,30 %
10.02.2016 14:54 3,7 C 80 % 997,6 hPa 0,0 l/m 16,3 km/h (3 Bft) SW 222 0 min 0,000 mm 0,0 UV-I 164 W/m 0,6 C -3,2 C 22,5 km/h (4 Bft) 100,00 %
10.02.2016 14:55 3,8 C 80 % 997,6 hPa 0,0 l/m 7,3 km/h (2 Bft) W 263 1 min 0,000 mm 0,0 UV-I 183 W/m 0,7 C 3,0 C 17,7 km/h (3 Bft) 100,00 %
10.02.2016 14:56 3,8 C 80 % 997,6 hPa 0,0 l/m 8,7 km/h (2 Bft) W 271 1 min 0,000 mm 0,0 UV-I 238 W/m 0,7 C 1,8 C 12,9 km/h (3 Bft) 100,00 %
10.02.2016 14:57 3,8 C 80 % 997,5 hPa 0,0 l/m 9,6 km/h (2 Bft) W 259 1 min 0,000 mm 0,0 UV-I 215 W/m 0,7 C 1,0 C 16,1 km/h (3 Bft) 100,00 %
10.02.2016 14:58 3,8 C 80 % 997,6 hPa 0,0 l/m 9,6 km/h (2 Bft) W 271 1 min 0,000 mm 0,0 UV-I 264 W/m 0,7 C 1,0 C 12,9 km/h (3 Bft) 100,00 %
10.02.2016 14:59 3,9 C 80 % 997,5 hPa 0,0 l/m 13,1 km/h (3 Bft) W 269 1 min 0,000 mm 0,0 UV-I 275 W/m 0,8 C -1,2 C 20,9 km/h (4 Bft) 100,00 %
10.02.2016 15:00 3,9 C 80 % 997,5 hPa 0,0 l/m 12,6 km/h (3 Bft) W-NW 283 1 min 0,000 mm 0,0 UV-I 273 W/m 0,8 C -0,9 C 14,5 km/h (3 Bft) 100,00 %
10.02.2016 15:01 4,1 C 81 % 997,6 hPa 0,0 l/m 9,0 km/h (2 Bft) W-SW 245 1 min 0,076 mm 0,0 UV-I 256 W/m 1,1 C 1,8 C 11,3 km/h (2 Bft) 100,00 %
10.02.2016 15:02 4,1 C 81 % 997,6 hPa 0,0 l/m 10,2 km/h (2 Bft) W-SW 250 1 min 0,000 mm 0,0 UV-I 255 W/m 1,1 C 0,9 C 14,5 km/h (3 Bft) 100,00 %
10.02.2016 15:03 4,2 C 81 % 997,6 hPa 0,0 l/m 14,0 km/h (3 Bft) W-SW 255 1 min 0,000 mm 0,0 UV-I 184 W/m 1,2 C -1,4 C 17,7 km/h (3 Bft) 100,00 %
10.02.2016 15:04 4,2 C 82 % 997,6 hPa 0,0 l/m 12,1 km/h (2 Bft) SW 224 1 min 0,000 mm 0,0 UV-I 206 W/m 1,4 C -0,2 C 16,1 km/h (3 Bft) 100,00 %
10.02.2016 15:05 4,1 C 82 % 997,7 hPa 0,0 l/m 18,6 km/h (3 Bft) SW 217 0 min 0,000 mm 0,0 UV-I 156 W/m 1,3 C -3,7 C 27,4 km/h (4 Bft) 100,00 %
10.02.2016 15:06 4,0 C 82 % 997,6 hPa 0,0 l/m 17,2 km/h (3 Bft) W-SW 243 1 min 0,000 mm 0,0 UV-I 188 W/m 1,2 C -3,2 C 20,9 km/h (4 Bft) 100,00 %
10.02.2016 15:07 3,9 C 83 % 997,6 hPa 0,0 l/m 19,9 km/h (4 Bft) SW 232 1 min 0,000 mm 0,0 UV-I 197 W/m 1,3 C -4,6 C 29,0 km/h (5 Bft) 100,00 %
10.02.2016 15:08 3,8 C 83 % 997,6 hPa 0,0 l/m 17,8 km/h (3 Bft) W-SW 245 1 min 0,000 mm 0,0 UV-I 177 W/m 1,2 C -3,8 C 22,5 km/h (4 Bft) 100,00 %
10.02.2016 15:09 3,7 C 83 % 997,7 hPa 0,0 l/m 17,3 km/h (3 Bft) W 264 0 min 0,000 mm 0,0 UV-I 151 W/m 1,1 C -3,7 C 20,9 km/h (4 Bft) 100,00 %
10.02.2016 15:10 3,6 C 83 % 997,7 hPa 0,0 l/m 16,4 km/h (3 Bft) W 265 0 min 0,000 mm 0,0 UV-I 147 W/m 1,0 C -3,3 C 20,9 km/h (4 Bft) 100,00 %
10.02.2016 15:11 3,5 C 84 % 997,7 hPa 0,0 l/m 17,2 km/h (3 Bft) W-SW 242 0 min 0,000 mm 0,0 UV-I 141 W/m 1,1 C -3,9 C 29,0 km/h (5 Bft) 100,00 %
10.02.2016 15:12 3,4 C 85 % 997,7 hPa 0,0 l/m 18,5 km/h (3 Bft) W-SW 242 1 min 0,000 mm 0,0 UV-I 170 W/m 1,1 C -4,6 C 29,0 km/h (5 Bft) 100,00 %
10.02.2016 15:13 3,4 C 85 % 997,8 hPa 0,0 l/m 9,6 km/h (2 Bft) W-SW 251 1 min 0,000 mm 0,0 UV-I 160 W/m 1,1 C 0,6 C 16,1 km/h (3 Bft) 100,00 %
10.02.2016 15:14 3,4 C 85 % 997,8 hPa 0,0 l/m 13,8 km/h (3 Bft) SW 234 0 min 0,000 mm 0,0 UV-I 146 W/m 1,1 C -2,2 C 16,1 km/h (3 Bft) 100,00 %
10.02.2016 15:15 3,4 C 85 % 997,7 hPa 0,0 l/m 13,7 km/h (3 Bft) W-SW 254 0 min 0,000 mm 0,0 UV-I 137 W/m 1,1 C -2,1 C 19,3 km/h (3 Bft) 100,00 %
10.02.2016 15:16 3,4 C 85 % 997,8 hPa 0,0 l/m 12,6 km/h (3 Bft) W-SW 242 0 min 0,000 mm 0,0 UV-I 135 W/m 1,1 C -1,5 C 17,7 km/h (3 Bft) 100,00 %
10.02.2016 15:17 3,4 C 85 % 997,8 hPa 0,0 l/m 13,4 km/h (3 Bft) W-SW 248 0 min 0,000 mm 0,0 UV-I 134 W/m 1,1 C -2,0 C 17,7 km/h (3 Bft) 100,00 %
10.02.2016 15:18 3,4 C 86 % 997,8 hPa 0,0 l/m 13,8 km/h (3 Bft) W-SW 257 0 min 0,000 mm 0,0 UV-I 132 W/m 1,3 C -2,2 C 17,7 km/h (3 Bft) 100,00 %
10.02.2016 15:19 3,4 C 86 % 997,8 hPa 0,0 l/m 9,7 km/h (2 Bft) W 264 0 min 0,000 mm 0,0 UV-I 124 W/m 1,3 C 0,5 C 12,9 km/h (3 Bft) 96,55 %
10.02.2016 15:20 3,4 C 85 % 997,8 hPa 0,0 l/m 14,7 km/h (3 Bft) W-SW 250 0 min 0,000 mm 0,0 UV-I 118 W/m 1,1 C -2,7 C 19,3 km/h (3 Bft) 100,00 %
10.02.2016 15:21 3,4 C 85 % 997,8 hPa 0,0 l/m 12,6 km/h (3 Bft) W-SW 258 0 min 0,000 mm 0,0 UV-I 116 W/m 1,1 C -1,5 C 16,1 km/h (3 Bft) 100,00 %
10.02.2016 15:22 3,4 C 85 % 997,8 hPa 0,0 l/m 18,1 km/h (3 Bft) W-SW 239 0 min 0,000 mm 0,0 UV-I 114 W/m 1,1 C -4,4 C 27,4 km/h (4 Bft) 100,00 %
10.02.2016 15:23 3,4 C 85 % 997,8 hPa 0,0 l/m 19,1 km/h (3 Bft) W 260 0 min 0,000 mm 0,0 UV-I 114 W/m 1,1 C -4,9 C 24,1 km/h (4 Bft) 100,00 %
10.02.2016 15:24 3,4 C 84 % 997,8 hPa 0,0 l/m 14,1 km/h (3 Bft) W-SW 244 0 min 0,000 mm 0,0 UV-I 116 W/m 1,0 C -2,4 C 17,7 km/h (3 Bft) 100,00 %
10.02.2016 15:25 3,4 C 85 % 997,8 hPa 0,0 l/m 12,0 km/h (2 Bft) W 263 0 min 0,000 mm 0,0 UV-I 123 W/m 1,1 C -1,1 C 14,5 km/h (3 Bft) 100,00 %
10.02.2016 15:26 3,4 C 85 % 997,8 hPa 0,0 l/m 18,5 km/h (3 Bft) W-SW 240 0 min 0,000 mm 0,0 UV-I 120 W/m 1,1 C -4,6 C 25,7 km/h (4 Bft) 93,33 %
10.02.2016 15:27 3,4 C 84 % 997,8 hPa 0,0 l/m 14,0 km/h (3 Bft) N 360 0 min 0,000 mm 0,0 UV-I 115 W/m 1,0 C -2,3 C 20,9 km/h (4 Bft) 100,00 %
10.02.2016 15:28 3,4 C 84 % 997,9 hPa 0,0 l/m 14,2 km/h (3 Bft) S-SW 197 0 min 0,000 mm 0,0 UV-I 110 W/m 1,0 C -2,4 C 19,3 km/h (3 Bft) 100,00 %
10.02.2016 15:29 3,4 C 84 % 997,8 hPa 0,0 l/m 16,8 km/h (3 Bft) W-SW 250 0 min 0,000 mm 0,0 UV-I 108 W/m 1,0 C -3,8 C 25,7 km/h (4 Bft) 100,00 %
10.02.2016 15:30 3,4 C 85 % 997,8 hPa 0,0 l/m 13,4 km/h (3 Bft) W-SW 243 0 min 0,000 mm 0,0 UV-I 105 W/m 1,1 C -2,0 C 17,7 km/h (3 Bft) 100,00 %
10.02.2016 15:31 3,4 C 84 % 998,0 hPa 0,0 l/m 12,4 km/h (3 Bft) W-SW 246 0 min 0,000 mm 0,0 UV-I 102 W/m 1,0 C -1,3 C 16,1 km/h (3 Bft) 100,00 %
10.02.2016 15:32 3,5 C 85 % 997,9 hPa 0,0 l/m 11,6 km/h (2 Bft) W-SW 252 0 min 0,000 mm 0,0 UV-I 96 W/m 1,2 C -0,7 C 16,1 km/h (3 Bft) 100,00 %
10.02.2016 15:33 3,5 C 85 % 997,9 hPa 0,0 l/m 10,6 km/h (2 Bft) W-SW 254 0 min 0,000 mm 0,0 UV-I 90 W/m 1,2 C -0,0 C 14,5 km/h (3 Bft) 96,30 %
10.02.2016 15:34 3,5 C 84 % 997,9 hPa 0,0 l/m 12,7 km/h (3 Bft) W-SW 245 0 min 0,000 mm 0,0 UV-I 85 W/m 1,1 C -1,4 C 14,5 km/h (3 Bft) 100,00 %
10.02.2016 15:35 3,5 C 84 % 997,9 hPa 0,0 l/m 11,2 km/h (2 Bft) W 269 0 min 0,000 mm 0,0 UV-I 84 W/m 1,1 C -0,4 C 14,5 km/h (3 Bft) 100,00 %
10.02.2016 15:36 3,5 C 84 % 997,9 hPa 0,0 l/m 13,1 km/h (3 Bft) W-SW 247 0 min 0,000 mm 0,0 UV-I 82 W/m 1,1 C -1,7 C 19,3 km/h (3 Bft) 100,00 %
10.02.2016 15:37 3,5 C 84 % 997,9 hPa 0,0 l/m 17,1 km/h (3 Bft) W-SW 244 0 min 0,000 mm 0,0 UV-I 81 W/m 1,1 C -3,8 C 22,5 km/h (4 Bft) 100,00 %
10.02.2016 15:38 3,5 C 83 % 997,9 hPa 0,0 l/m 19,2 km/h (3 Bft) W-SW 241 0 min 0,000 mm 0,0 UV-I 81 W/m 0,9 C -4,8 C 24,1 km/h (4 Bft) 100,00 %
10.02.2016 15:39 3,5 C 83 % 997,9 hPa 0,0 l/m 17,4 km/h (3 Bft) W-SW 245 0 min 0,000 mm 0,0 UV-I 78 W/m 0,9 C -4,0 C 20,9 km/h (4 Bft) 100,00 %
10.02.2016 15:40 3,6 C 83 % 997,9 hPa 0,0 l/m 10,0 km/h (2 Bft) W 264 0 min 0,000 mm 0,0 UV-I 75 W/m 1,0 C 0,5 C 14,5 km/h (3 Bft) 100,00 %
10.02.2016 15:41 3,5 C 83 % 997,9 hPa 0,0 l/m 11,1 km/h (2 Bft) W-SW 249 0 min 0,000 mm 0,0 UV-I 71 W/m 0,9 C -0,4 C 16,1 km/h (3 Bft) 100,00 %
10.02.2016 15:42 3,5 C 83 % 997,9 hPa 0,0 l/m 16,9 km/h (3 Bft) SW 236 0 min 0,000 mm 0,0 UV-I 66 W/m 0,9 C -3,7 C 22,5 km/h (4 Bft) 100,00 %
10.02.2016 15:43 3,5 C 83 % 997,9 hPa 0,0 l/m 11,4 km/h (2 Bft) W 259 0 min 0,000 mm 0,0 UV-I 63 W/m 0,9 C -0,6 C 17,7 km/h (3 Bft) 96,15 %
10.02.2016 15:44 3,5 C 83 % 997,9 hPa 0,0 l/m 12,1 km/h (2 Bft) W 263 0 min 0,000 mm 0,0 UV-I 64 W/m 0,9 C -1,0 C 17,7 km/h (3 Bft) 100,00 %
10.02.2016 15:45 3,6 C 84 % 997,9 hPa 0,0 l/m 17,4 km/h (3 Bft) SW 229 0 min 0,000 mm 0,0 UV-I 59 W/m 1,2 C -3,8 C 30,6 km/h (5 Bft) 92,31 %
10.02.2016 15:46 3,6 C 83 % 997,9 hPa 0,0 l/m 14,5 km/h (3 Bft) W-SW 251 0 min 0,000 mm 0,0 UV-I 54 W/m 1,0 C -2,3 C 17,7 km/h (3 Bft) 93,33 %
10.02.2016 15:47 3,6 C 83 % 997,9 hPa 0,0 l/m 12,6 km/h (3 Bft) W-SW 249 0 min 0,000 mm 0,0 UV-I 52 W/m 1,0 C -1,2 C 17,7 km/h (3 Bft) 100,00 %
10.02.2016 15:48 3,6 C 83 % 997,9 hPa 0,0 l/m 9,1 km/h (2 Bft) W 265 0 min 0,000 mm 0,0 UV-I 51 W/m 1,0 C 1,2 C 14,5 km/h (3 Bft) 100,00 %
10.02.2016 15:49 3,6 C 83 % 998,0 hPa 0,0 l/m 5,0 km/h (1 Bft) SW 223 0 min 0,000 mm 0,0 UV-I 55 W/m 1,0 C 3,6 C 8,0 km/h (2 Bft) 100,00 %
10.02.2016 15:50 3,6 C 83 % 997,9 hPa 0,0 l/m 13,4 km/h (3 Bft) W-SW 249 0 min 0,000 mm 0,0 UV-I 54 W/m 1,0 C -1,7 C 22,5 km/h (4 Bft) 98,49 %
10.02.2016 15:51 3,6 C 83 % 997,9 hPa 0,0 l/m 15,4 km/h (3 Bft) SW 235 0 min 0,000 mm 0,0 UV-I 54 W/m 1,0 C -2,8 C 20,9 km/h (4 Bft) 100,00 %
10.02.2016 15:52 3,6 C 83 % 997,9 hPa 0,0 l/m 17,8 km/h (3 Bft) W-SW 244 0 min 0,000 mm 0,0 UV-I 56 W/m 1,0 C -4,0 C 24,1 km/h (4 Bft) 100,00 %
10.02.2016 15:53 3,6 C 82 % 998,0 hPa 0,0 l/m 12,0 km/h (2 Bft) W-SW 238 0 min 0,000 mm 0,0 UV-I 60 W/m 0,8 C -0,9 C 17,7 km/h (3 Bft) 100,00 %
10.02.2016 15:54 3,6 C 83 % 998,0 hPa 0,0 l/m 13,0 km/h (3 Bft) W 268 0 min 0,000 mm 0,0 UV-I 61 W/m 1,0 C -1,5 C 20,9 km/h (4 Bft) 100,00 %
10.02.2016 15:55 3,6 C 83 % 998,0 hPa 0,0 l/m 12,7 km/h (3 Bft) W 275 0 min 0,000 mm 0,0 UV-I 54 W/m 1,0 C -1,3 C 17,7 km/h (3 Bft) 100,00 %
10.02.2016 15:56 3,6 C 83 % 997,9 hPa 0,0 l/m 12,1 km/h (2 Bft) SW 236 0 min 0,000 mm 0,0 UV-I 48 W/m 1,0 C -0,9 C 17,7 km/h (3 Bft) 100,00 %
10.02.2016 15:57 3,6 C 83 % 998,0 hPa 0,0 l/m 9,1 km/h (2 Bft) W 259 0 min 0,000 mm 0,0 UV-I 40 W/m 1,0 C 1,2 C 12,9 km/h (3 Bft) 100,00 %
10.02.2016 15:58 3,6 C 83 % 998,0 hPa 0,0 l/m 15,4 km/h (3 Bft) W 279 0 min 0,000 mm 0,0 UV-I 35 W/m 1,0 C -2,8 C 19,3 km/h (3 Bft) 100,00 %
10.02.2016 15:59 3,6 C 83 % 998,0 hPa 0,0 l/m 13,4 km/h (3 Bft) SW 226 0 min 0,000 mm 0,0 UV-I 38 W/m 1,0 C -1,7 C 17,7 km/h (3 Bft) 100,00 %
10.02.2016 16:00 3,5 C 83 % 998,0 hPa 0,0 l/m 13,8 km/h (3 Bft) SW 228 0 min 0,000 mm 0,0 UV-I 43 W/m 0,9 C -2,1 C 17,7 km/h (3 Bft) 100,00 %
10.02.2016 16:01 3,6 C 83 % 998,0 hPa 0,0 l/m 11,6 km/h (2 Bft) W 264 0 min 0,051 mm 0,0 UV-I 47 W/m 1,0 C -0,6 C 19,3 km/h (3 Bft) 86,67 %
10.02.2016 16:02 3,6 C 83 % 997,9 hPa 0,0 l/m 15,4 km/h (3 Bft) W-SW 239 0 min 0,000 mm 0,0 UV-I 46 W/m 1,0 C -2,8 C 19,3 km/h (3 Bft) 100,00 %
10.02.2016 16:03 3,6 C 82 % 998,0 hPa 0,0 l/m 8,2 km/h (2 Bft) W-SW 241 0 min 0,000 mm 0,0 UV-I 45 W/m 0,8 C 2,0 C 16,1 km/h (3 Bft) 100,00 %
10.02.2016 16:04 3,5 C 83 % 998,0 hPa 0,0 l/m 12,2 km/h (2 Bft) W-SW 239 0 min 0,000 mm 0,0 UV-I 46 W/m 0,9 C -1,1 C 14,5 km/h (3 Bft) 100,00 %
10.02.2016 16:05 3,5 C 84 % 998,0 hPa 0,0 l/m 9,0 km/h (2 Bft) SW 221 0 min 0,000 mm 0,0 UV-I 45 W/m 1,1 C 1,2 C 17,7 km/h (3 Bft) 95,65 %
10.02.2016 16:06 3,5 C 84 % 997,9 hPa 0,0 l/m 10,2 km/h (2 Bft) S-SW 194 0 min 0,000 mm 0,0 UV-I 44 W/m 1,1 C 0,3 C 14,5 km/h (3 Bft) 93,33 %
10.02.2016 16:07 3,4 C 84 % 997,9 hPa 0,0 l/m 10,7 km/h (2 Bft) W-SW 239 0 min 0,000 mm 0,0 UV-I 33 W/m 1,0 C -0,2 C 17,7 km/h (3 Bft) 95,83 %
10.02.2016 16:08 3,4 C 84 % 997,9 hPa 0,0 l/m 12,6 km/h (3 Bft) SW 234 0 min 0,000 mm 0,0 UV-I 25 W/m 1,0 C -1,5 C 19,3 km/h (3 Bft) 96,15 %
10.02.2016 16:09 3,4 C 84 % 997,9 hPa 0,0 l/m 10,9 km/h (2 Bft) SO 142 0 min 0,000 mm 0,0 UV-I 20 W/m 1,0 C -0,3 C 14,5 km/h (3 Bft) 100,00 %
10.02.2016 16:10 3,4 C 84 % 997,9 hPa 0,0 l/m 11,5 km/h (2 Bft) SW 225 0 min 0,000 mm 0,0 UV-I 19 W/m 1,0 C -0,8 C 17,7 km/h (3 Bft) 96,55 %
10.02.2016 16:11 3,4 C 84 % 997,9 hPa 0,0 l/m 10,9 km/h (2 Bft) SW 217 0 min 0,000 mm 0,0 UV-I 20 W/m 1,0 C -0,3 C 14,5 km/h (3 Bft) 95,83 %
10.02.2016 16:12 3,3 C 84 % 997,9 hPa 0,0 l/m 12,3 km/h (3 Bft) W-SW 238 0 min 0,000 mm 0,0 UV-I 21 W/m 0,9 C -1,4 C 17,7 km/h (3 Bft) 95,65 %
10.02.2016 16:13 3,3 C 84 % 997,9 hPa 0,0 l/m 11,0 km/h (2 Bft) SW 235 0 min 0,000 mm 0,0 UV-I 21 W/m 0,9 C -0,5 C 14,5 km/h (3 Bft) 96,30 %
10.02.2016 16:14 3,3 C 85 % 997,9 hPa 0,0 l/m 8,2 km/h (2 Bft) SW 235 0 min 0,000 mm 0,0 UV-I 20 W/m 1,0 C 1,6 C 11,3 km/h (2 Bft) 100,00 %
10.02.2016 16:15 3,3 C 85 % 997,9 hPa 0,0 l/m 13,8 km/h (3 Bft) W 264 0 min 0,000 mm 0,0 UV-I 17 W/m 1,0 C -2,3 C 19,3 km/h (3 Bft) 96,30 %
10.02.2016 16:16 3,3 C 85 % 997,9 hPa 0,0 l/m 9,3 km/h (2 Bft) SW 218 0 min 0,000 mm 0,0 UV-I 14 W/m 1,0 C 0,7 C 12,9 km/h (3 Bft) 96,88 %
10.02.2016 16:17 3,3 C 85 % 997,9 hPa 0,0 l/m 12,2 km/h (2 Bft) W-SW 243 0 min 0,000 mm 0,0 UV-I 11 W/m 1,0 C -1,3 C 16,1 km/h (3 Bft) 100,00 %
10.02.2016 16:18 3,3 C 85 % 997,9 hPa 0,0 l/m 9,1 km/h (2 Bft) SW 225 0 min 0,000 mm 0,0 UV-I 8 W/m 1,0 C 0,9 C 12,9 km/h (3 Bft) 96,15 %
10.02.2016 16:19 3,3 C 85 % 997,9 hPa 0,0 l/m 11,6 km/h (2 Bft) W-SW 253 0 min 0,000 mm 0,0 UV-I 7 W/m 1,0 C -0,9 C 16,1 km/h (3 Bft) 96,30 %
10.02.2016 16:20 3,3 C 85 % 997,9 hPa 0,0 l/m 7,4 km/h (2 Bft) W 269 0 min 0,000 mm 0,0 UV-I 10 W/m 1,0 C 2,4 C 9,7 km/h (2 Bft) 95,65 %
10.02.2016 16:21 3,3 C 85 % 997,9 hPa 0,0 l/m 9,1 km/h (2 Bft) W-SW 248 0 min 0,000 mm 0,0 UV-I 11 W/m 1,0 C 0,9 C 12,9 km/h (3 Bft) 100,00 %
10.02.2016 16:22 3,3 C 85 % 997,9 hPa 0,0 l/m 10,9 km/h (2 Bft) W-SW 250 0 min 0,000 mm 0,0 UV-I 11 W/m 1,0 C -0,5 C 14,5 km/h (3 Bft) 91,67 %
10.02.2016 16:23 3,2 C 85 % 997,9 hPa 0,0 l/m 13,0 km/h (3 Bft) W-SW 255 0 min 0,000 mm 0,0 UV-I 10 W/m 0,9 C -1,9 C 17,7 km/h (3 Bft) 96,55 %
10.02.2016 16:24 3,2 C 85 % 997,9 hPa 0,0 l/m 8,9 km/h (2 Bft) SW 231 0 min 0,000 mm 0,0 UV-I 9 W/m 0,9 C 0,9 C 12,9 km/h (3 Bft) 96,15 %
10.02.2016 16:25 3,2 C 85 % 997,9 hPa 0,0 l/m 7,6 km/h (2 Bft) W-SW 243 0 min 0,000 mm 0,0 UV-I 9 W/m 0,9 C 2,1 C 12,9 km/h (3 Bft) 95,83 %
10.02.2016 16:26 3,2 C 85 % 997,9 hPa 0,0 l/m 7,4 km/h (2 Bft) W-SW 257 0 min 0,000 mm 0,0 UV-I 9 W/m 0,9 C 2,3 C 11,3 km/h (2 Bft) 91,67 %
10.02.2016 16:27 3,2 C 85 % 997,9 hPa 0,0 l/m 8,1 km/h (2 Bft) SW 224 0 min 0,000 mm 0,0 UV-I 11 W/m 0,9 C 1,6 C 12,9 km/h (3 Bft) 97,37 %
10.02.2016 16:28 3,2 C 85 % 997,9 hPa 0,0 l/m 9,7 km/h (2 Bft) SW 217 0 min 0,000 mm 0,0 UV-I 11 W/m 0,9 C 0,3 C 14,5 km/h (3 Bft) 100,00 %
10.02.2016 16:29 3,2 C 85 % 997,9 hPa 0,0 l/m 9,8 km/h (2 Bft) W-SW 258 0 min 0,000 mm 0,0 UV-I 11 W/m 0,9 C 0,2 C 12,9 km/h (3 Bft) 96,43 %
10.02.2016 16:30 3,2 C 86 % 997,9 hPa 0,0 l/m 8,0 km/h (2 Bft) SW 236 0 min 0,000 mm 0,0 UV-I 11 W/m 1,1 C 1,7 C 11,3 km/h (2 Bft) 100,00 %
10.02.2016 16:31 3,2 C 86 % 997,9 hPa 0,0 l/m 8,9 km/h (2 Bft) SW 226 0 min 0,000 mm 0,0 UV-I 9 W/m 1,1 C 0,9 C 14,5 km/h (3 Bft) 95,65 %
10.02.2016 16:32 3,2 C 86 % 997,9 hPa 0,0 l/m 6,8 km/h (2 Bft) W-SW 246 0 min 0,000 mm 0,0 UV-I 8 W/m 1,1 C 2,8 C 9,7 km/h (2 Bft) 95,83 %
10.02.2016 16:33 3,2 C 86 % 997,9 hPa 0,0 l/m 5,8 km/h (2 Bft) SW 236 0 min 0,000 mm 0,0 UV-I 7 W/m 1,1 C 3,2 C 9,7 km/h (2 Bft) 95,65 %
10.02.2016 16:34 3,2 C 86 % 997,9 hPa 0,0 l/m 7,9 km/h (2 Bft) W-SW 252 0 min 0,000 mm 0,0 UV-I 6 W/m 1,1 C 1,8 C 11,3 km/h (2 Bft) 100,00 %
10.02.2016 16:35 3,2 C 86 % 997,9 hPa 0,0 l/m 8,4 km/h (2 Bft) SW 233 0 min 0,000 mm 0,0 UV-I 5 W/m 1,1 C 1,4 C 12,9 km/h (3 Bft) 96,15 %
10.02.2016 16:36 3,2 C 86 % 997,9 hPa 0,0 l/m 8,3 km/h (2 Bft) W-SW 257 0 min 0,000 mm 0,0 UV-I 5 W/m 1,1 C 1,5 C 12,9 km/h (3 Bft) 100,00 %
10.02.2016 16:37 3,2 C 86 % 997,9 hPa 0,0 l/m 10,7 km/h (2 Bft) SW 227 0 min 0,000 mm 0,0 UV-I 4 W/m 1,1 C -0,4 C 12,9 km/h (3 Bft) 95,65 %
10.02.2016 16:38 3,2 C 86 % 997,9 hPa 0,0 l/m 10,0 km/h (2 Bft) W-SW 239 0 min 0,000 mm 0,0 UV-I 0 W/m 1,1 C 0,1 C 12,9 km/h (3 Bft) 96,30 %
10.02.2016 16:39 3,1 C 86 % 997,9 hPa 0,0 l/m 8,0 km/h (2 Bft) SW 233 0 min 0,000 mm 0,0 UV-I 0 W/m 1,0 C 1,6 C 11,3 km/h (2 Bft) 100,00 %
10.02.2016 16:40 3,1 C 86 % 998,0 hPa 0,0 l/m 8,1 km/h (2 Bft) SW 229 0 min 0,000 mm 0,0 UV-I 0 W/m 1,0 C 1,5 C 14,5 km/h (3 Bft) 96,55 %
10.02.2016 16:41 3,1 C 87 % 998,0 hPa 0,0 l/m 11,7 km/h (2 Bft) SW 215 0 min 0,000 mm 0,0 UV-I 0 W/m 1,2 C -1,2 C 17,7 km/h (3 Bft) 100,00 %
10.02.2016 16:42 3,1 C 87 % 998,0 hPa 0,0 l/m 6,4 km/h (2 Bft) W-SW 239 0 min 0,000 mm 0,0 UV-I 0 W/m 1,2 C 3,1 C 14,5 km/h (3 Bft) 95,83 %
10.02.2016 16:43 3,1 C 87 % 997,9 hPa 0,0 l/m 11,4 km/h (2 Bft) SW 216 0 min 0,000 mm 0,0 UV-I 0 W/m 1,2 C -1,0 C 20,9 km/h (4 Bft) 100,00 %
10.02.2016 16:44 3,1 C 87 % 997,9 hPa 0,0 l/m 7,4 km/h (2 Bft) SW 221 0 min 0,000 mm 0,0 UV-I 0 W/m 1,2 C 2,2 C 12,9 km/h (3 Bft) 91,67 %
10.02.2016 16:45 3,1 C 87 % 997,9 hPa 0,0 l/m 12,0 km/h (2 Bft) SW 232 0 min 0,000 mm 0,0 UV-I 0 W/m 1,2 C -1,4 C 17,7 km/h (3 Bft) 100,00 %
10.02.2016 16:46 3,1 C 87 % 997,9 hPa 0,0 l/m 13,0 km/h (3 Bft) SW 221 0 min 0,000 mm 0,0 UV-I 0 W/m 1,2 C -2,1 C 17,7 km/h (3 Bft) 95,83 %
10.02.2016 16:47 3,1 C 87 % 997,9 hPa 0,0 l/m 10,8 km/h (2 Bft) W-SW 239 0 min 0,000 mm 0,0 UV-I 4 W/m 1,2 C -0,6 C 16,1 km/h (3 Bft) 100,00 %
10.02.2016 16:48 3,1 C 87 % 997,9 hPa 0,0 l/m 11,9 km/h (2 Bft) W-SW 237 0 min 0,000 mm 0,0 UV-I 5 W/m 1,2 C -1,4 C 16,1 km/h (3 Bft) 100,00 %
10.02.2016 16:49 3,1 C 87 % 997,9 hPa 0,0 l/m 9,1 km/h (2 Bft) W-SW 237 0 min 0,000 mm 0,0 UV-I 6 W/m 1,2 C 0,7 C 16,1 km/h (3 Bft) 100,00 %
10.02.2016 16:50 3,1 C 87 % 997,9 hPa 0,0 l/m 12,4 km/h (3 Bft) SW 226 0 min 0,000 mm 0,0 UV-I 7 W/m 1,2 C -1,7 C 17,7 km/h (3 Bft) 100,00 %
10.02.2016 16:51 3,1 C 86 % 997,9 hPa 0,0 l/m 15,0 km/h (3 Bft) SW 235 0 min 0,000 mm 0,0 UV-I 7 W/m 1,0 C -3,2 C 22,5 km/h (4 Bft) 100,00 %
10.02.2016 16:52 3,1 C 86 % 997,9 hPa 0,0 l/m 18,9 km/h (3 Bft) SW 225 0 min 0,000 mm 0,0 UV-I 8 W/m 1,0 C -5,1 C 24,1 km/h (4 Bft) 100,00 %
10.02.2016 16:53 3,1 C 86 % 997,9 hPa 0,0 l/m 15,9 km/h (3 Bft) SW 227 0 min 0,000 mm 0,0 UV-I 9 W/m 1,0 C -3,7 C 22,5 km/h (4 Bft) 96,30 %
10.02.2016 16:54 3,1 C 86 % 997,9 hPa 0,0 l/m 10,5 km/h (2 Bft) SW 215 0 min 0,000 mm 0,0 UV-I 9 W/m 1,0 C -0,4 C 14,5 km/h (3 Bft) 100,00 %
10.02.2016 16:55 3,1 C 86 % 997,9 hPa 0,0 l/m 11,1 km/h (2 Bft) SW 215 0 min 0,000 mm 0,0 UV-I 11 W/m 1,0 C -0,8 C 17,7 km/h (3 Bft) 100,00 %
10.02.2016 16:56 3,1 C 86 % 997,9 hPa 0,0 l/m 13,5 km/h (3 Bft) SW 217 0 min 0,000 mm 0,0 UV-I 11 W/m 1,0 C -2,4 C 16,1 km/h (3 Bft) 100,00 %
10.02.2016 16:57 3,1 C 86 % 997,9 hPa 0,0 l/m 16,0 km/h (3 Bft) W-SW 244 0 min 0,000 mm 0,0 UV-I 11 W/m 1,0 C -3,8 C 24,1 km/h (4 Bft) 100,00 %
10.02.2016 16:58 3,1 C 86 % 997,9 hPa 0,0 l/m 17,4 km/h (3 Bft) W 259 0 min 0,000 mm 0,0 UV-I 11 W/m 1,0 C -4,5 C 22,5 km/h (4 Bft) 100,00 %
10.02.2016 16:59 3,1 C 86 % 998,0 hPa 0,0 l/m 12,9 km/h (3 Bft) SW 235 0 min 0,000 mm 0,0 UV-I 9 W/m 1,0 C -2,0 C 17,7 km/h (3 Bft) 100,00 %
10.02.2016 17:00 3,1 C 86 % 998,0 hPa 0,0 l/m 15,0 km/h (3 Bft) W-SW 250 0 min 0,000 mm 0,0 UV-I 9 W/m 1,0 C -3,2 C 19,3 km/h (3 Bft) 100,00 %
10.02.2016 17:01 3,1 C 86 % 998,0 hPa 0,0 l/m 14,2 km/h (3 Bft) SW 229 0 min 0,025 mm 0,0 UV-I 9 W/m 1,0 C -2,8 C 19,3 km/h (3 Bft) 100,00 %
10.02.2016 17:02 3,1 C 86 % 998,0 hPa 0,0 l/m 13,0 km/h (3 Bft) S-SW 210 0 min 0,001 mm 0,0 UV-I 9 W/m 1,0 C -2,1 C 16,1 km/h (3 Bft) 100,00 %
10.02.2016 17:03 3,1 C 86 % 998,0 hPa 0,0 l/m 16,6 km/h (3 Bft) SW 233 0 min 0,000 mm 0,0 UV-I 8 W/m 1,0 C -4,1 C 20,9 km/h (4 Bft) 100,00 %
10.02.2016 17:04 3,1 C 86 % 998,0 hPa 0,0 l/m 14,1 km/h (3 Bft) W-SW 249 0 min 0,000 mm 0,0 UV-I 7 W/m 1,0 C -2,7 C 17,7 km/h (3 Bft) 100,00 %
10.02.2016 17:05 3,1 C 86 % 998,1 hPa 0,0 l/m 16,4 km/h (3 Bft) SW 222 0 min 0,000 mm 0,0 UV-I 7 W/m 1,0 C -4,0 C 22,5 km/h (4 Bft) 100,00 %
10.02.2016 17:06 3,1 C 86 % 998,1 hPa 0,0 l/m 12,0 km/h (2 Bft) W-SW 237 0 min 0,000 mm 0,0 UV-I 7 W/m 1,0 C -1,4 C 19,3 km/h (3 Bft) 100,00 %
10.02.2016 17:07 3,1 C 86 % 998,1 hPa 0,0 l/m 14,1 km/h (3 Bft) SW 219 0 min 0,000 mm 0,0 UV-I 7 W/m 1,0 C -2,7 C 17,7 km/h (3 Bft) 96,15 %
10.02.2016 17:08 3,1 C 86 % 998,1 hPa 0,0 l/m 14,2 km/h (3 Bft) W 262 0 min 0,000 mm 0,0 UV-I 7 W/m 1,0 C -2,8 C 17,7 km/h (3 Bft) 100,00 %
10.02.2016 17:09 3,1 C 86 % 998,1 hPa 0,0 l/m 12,7 km/h (3 Bft) S-SW 210 0 min 0,000 mm 0,0 UV-I 6 W/m 1,0 C -1,9 C 16,1 km/h (3 Bft) 100,00 %
10.02.2016 17:10 3,1 C 86 % 998,1 hPa 0,0 l/m 12,9 km/h (3 Bft) S-SW 199 0 min 0,000 mm 0,0 UV-I 5 W/m 1,0 C -2,0 C 17,7 km/h (3 Bft) 100,00 %
10.02.2016 17:11 3,1 C 86 % 998,2 hPa 0,0 l/m 15,7 km/h (3 Bft) SW 232 0 min 0,000 mm 0,0 UV-I 5 W/m 1,0 C -3,6 C 22,5 km/h (4 Bft) 95,65 %
10.02.2016 17:12 3,1 C 86 % 998,2 hPa 0,0 l/m 17,0 km/h (3 Bft) SW 231 0 min 0,000 mm 0,0 UV-I 5 W/m 1,0 C -4,3 C 22,5 km/h (4 Bft) 100,00 %
10.02.2016 17:13 3,1 C 86 % 998,3 hPa 0,0 l/m 16,5 km/h (3 Bft) W-SW 248 0 min 0,000 mm 0,0 UV-I 5 W/m 1,0 C -4,0 C 24,1 km/h (4 Bft) 95,65 %
10.02.2016 17:14 3,1 C 86 % 998,3 hPa 0,0 l/m 12,7 km/h (3 Bft) SW 229 0 min 0,000 mm 0,0 UV-I 5 W/m 1,0 C -1,9 C 17,7 km/h (3 Bft) 100,00 %
10.02.2016 17:15 3,1 C 86 % 998,3 hPa 0,0 l/m 16,8 km/h (3 Bft) W-SW 238 0 min 0,000 mm 0,0 UV-I 5 W/m 1,0 C -4,2 C 25,7 km/h (4 Bft) 100,00 %
10.02.2016 17:16 3,1 C 85 % 998,3 hPa 0,0 l/m 13,8 km/h (3 Bft) W 267 0 min 0,000 mm 0,0 UV-I 5 W/m 0,8 C -2,5 C 19,3 km/h (3 Bft) 100,00 %
10.02.2016 17:17 3,2 C 85 % 998,3 hPa 0,0 l/m 16,7 km/h (3 Bft) SW 216 0 min 0,000 mm 0,0 UV-I 0 W/m 0,9 C -4,0 C 22,5 km/h (4 Bft) 100,00 %
10.02.2016 17:18 3,2 C 85 % 998,3 hPa 0,0 l/m 15,4 km/h (3 Bft) W-NW 284 0 min 0,000 mm 0,0 UV-I 0 W/m 0,9 C -3,3 C 22,5 km/h (4 Bft) 100,00 %
10.02.2016 17:19 3,2 C 84 % 998,3 hPa 0,0 l/m 20,8 km/h (4 Bft) W-SW 237 0 min 0,000 mm 0,0 UV-I 0 W/m 0,8 C -5,8 C 27,4 km/h (4 Bft) 100,00 %
10.02.2016 17:20 3,2 C 84 % 998,3 hPa 0,0 l/m 16,6 km/h (3 Bft) W 263 0 min 0,000 mm 0,0 UV-I 0 W/m 0,8 C -3,9 C 20,9 km/h (4 Bft) 100,00 %
10.02.2016 17:21 3,2 C 85 % 998,3 hPa 0,0 l/m 20,6 km/h (4 Bft) SW 223 0 min 0,000 mm 0,0 UV-I 0 W/m 0,9 C -5,7 C 27,4 km/h (4 Bft) 100,00 %
10.02.2016 17:22 3,2 C 84 % 998,3 hPa 0,0 l/m 16,2 km/h (3 Bft) W-SW 247 0 min 0,000 mm 0,0 UV-I 0 W/m 0,8 C -3,7 C 24,1 km/h (4 Bft) 100,00 %
10.02.2016 17:23 3,2 C 84 % 998,3 hPa 0,0 l/m 21,4 km/h (4 Bft) W 274 0 min 0,000 mm 0,0 UV-I 0 W/m 0,8 C -6,1 C 27,4 km/h (4 Bft) 100,00 %
10.02.2016 17:24 3,2 C 84 % 998,3 hPa 0,0 l/m 16,4 km/h (3 Bft) W 264 0 min 0,000 mm 0,0 UV-I 0 W/m 0,8 C -3,8 C 27,4 km/h (4 Bft) 100,00 %
10.02.2016 17:25 3,2 C 84 % 998,3 hPa 0,0 l/m 16,7 km/h (3 Bft) SW 216 0 min 0,000 mm 0,0 UV-I 0 W/m 0,8 C -4,0 C 20,9 km/h (4 Bft) 100,00 %
10.02.2016 17:26 3,2 C 84 % 998,3 hPa 0,0 l/m 17,7 km/h (3 Bft) W-SW 238 0 min 0,000 mm 0,0 UV-I 0 W/m 0,8 C -4,5 C 22,5 km/h (4 Bft) 96,15 %
10.02.2016 17:27 3,2 C 84 % 998,3 hPa 0,0 l/m 14,3 km/h (3 Bft) W-SW 242 0 min 0,000 mm 0,0 UV-I 0 W/m 0,8 C -2,7 C 17,7 km/h (3 Bft) 100,00 %
10.02.2016 17:28 3,2 C 84 % 998,3 hPa 0,0 l/m 16,8 km/h (3 Bft) SW 223 0 min 0,000 mm 0,0 UV-I 0 W/m 0,8 C -4,0 C 22,5 km/h (4 Bft) 100,00 %
10.02.2016 17:29 3,2 C 84 % 998,3 hPa 0,0 l/m 17,4 km/h (3 Bft) W-SW 257 0 min 0,000 mm 0,0 UV-I 0 W/m 0,8 C -4,3 C 29,0 km/h (5 Bft) 100,00 %
10.02.2016 17:30 3,2 C 84 % 998,3 hPa 0,0 l/m 16,3 km/h (3 Bft) SW 223 0 min 0,000 mm 0,0 UV-I 0 W/m 0,8 C -3,8 C 25,7 km/h (4 Bft) 100,00 %
10.02.2016 17:31 3,2 C 84 % 998,3 hPa 0,0 l/m 14,2 km/h (3 Bft) W-SW 239 0 min 0,000 mm 0,0 UV-I 0 W/m 0,8 C -2,7 C 20,9 km/h (4 Bft) 100,00 %
10.02.2016 17:32 3,2 C 84 % 998,3 hPa 0,0 l/m 16,3 km/h (3 Bft) W-SW 240 0 min 0,000 mm 0,0 UV-I 0 W/m 0,8 C -3,8 C 22,5 km/h (4 Bft) 95,65 %
10.02.2016 17:33 3,1 C 84 % 998,3 hPa 0,0 l/m 14,6 km/h (3 Bft) W 263 0 min 0,000 mm 0,0 UV-I 0 W/m 0,7 C -3,0 C 19,3 km/h (3 Bft) 100,00 %
10.02.2016 17:34 3,1 C 84 % 998,3 hPa 0,0 l/m 15,1 km/h (3 Bft) W-SW 242 0 min 0,000 mm 0,0 UV-I 0 W/m 0,7 C -3,3 C 20,9 km/h (4 Bft) 100,00 %
10.02.2016 17:35 3,1 C 84 % 998,3 hPa 0,0 l/m 18,2 km/h (3 Bft) SW 227 0 min 0,000 mm 0,0 UV-I 0 W/m 0,7 C -4,8 C 24,1 km/h (4 Bft) 100,00 %
10.02.2016 17:36 3,1 C 84 % 998,3 hPa 0,0 l/m 16,6 km/h (3 Bft) W-SW 245 0 min 0,000 mm 0,0 UV-I 0 W/m 0,7 C -4,1 C 20,9 km/h (4 Bft) 100,00 %
10.02.2016 17:37 3,1 C 84 % 998,3 hPa 0,0 l/m 13,5 km/h (3 Bft) SW 230 0 min 0,000 mm 0,0 UV-I 0 W/m 0,7 C -2,4 C 22,5 km/h (4 Bft) 100,00 %
10.02.2016 17:38 3,1 C 84 % 998,3 hPa 0,0 l/m 15,5 km/h (3 Bft) SW 225 0 min 0,000 mm 0,0 UV-I 0 W/m 0,7 C -3,5 C 19,3 km/h (3 Bft) 100,00 %
10.02.2016 17:39 3,1 C 84 % 998,3 hPa 0,0 l/m 13,5 km/h (3 Bft) S-SW 213 0 min 0,000 mm 0,0 UV-I 0 W/m 0,7 C -2,4 C 17,7 km/h (3 Bft) 100,00 %
10.02.2016 17:40 3,1 C 84 % 998,3 hPa 0,0 l/m 13,6 km/h (3 Bft) SW 224 0 min 0,000 mm 0,0 UV-I 0 W/m 0,7 C -2,4 C 17,7 km/h (3 Bft) 91,67 %
10.02.2016 17:41 3,1 C 84 % 998,4 hPa 0,0 l/m 9,8 km/h (2 Bft) SW 219 0 min 0,000 mm 0,0 UV-I 0 W/m 0,7 C 0,1 C 14,5 km/h (3 Bft) 100,00 %
10.02.2016 17:42 3,1 C 84 % 998,4 hPa 0,0 l/m 14,8 km/h (3 Bft) SW 230 0 min 0,000 mm 0,0 UV-I 0 W/m 0,7 C -3,1 C 22,5 km/h (4 Bft) 95,83 %
10.02.2016 17:43 3,1 C 83 % 998,4 hPa 0,0 l/m 16,7 km/h (3 Bft) W-SW 238 0 min 0,000 mm 0,0 UV-I 0 W/m 0,5 C -4,1 C 22,5 km/h (4 Bft) 100,00 %
10.02.2016 17:44 3,1 C 84 % 998,4 hPa 0,0 l/m 17,7 km/h (3 Bft) SW 233 0 min 0,000 mm 0,0 UV-I 0 W/m 0,7 C -4,6 C 24,1 km/h (4 Bft) 100,00 %
10.02.2016 17:45 3,1 C 83 % 998,4 hPa 0,0 l/m 21,2 km/h (4 Bft) W-SW 258 0 min 0,000 mm 0,0 UV-I 0 W/m 0,5 C -6,1 C 25,7 km/h (4 Bft) 100,00 %
10.02.2016 17:46 3,1 C 83 % 998,4 hPa 0,0 l/m 15,9 km/h (3 Bft) W-SW 246 0 min 0,000 mm 0,0 UV-I 0 W/m 0,5 C -3,7 C 20,9 km/h (4 Bft) 96,67 %
10.02.2016 17:47 3,1 C 83 % 998,5 hPa 0,0 l/m 17,5 km/h (3 Bft) S-SW 205 0 min 0,000 mm 0,0 UV-I 0 W/m 0,5 C -4,5 C 22,5 km/h (4 Bft) 100,00 %
10.02.2016 17:48 3,1 C 83 % 998,4 hPa 0,0 l/m 18,1 km/h (3 Bft) SW 222 0 min 0,000 mm 0,0 UV-I 0 W/m 0,5 C -4,8 C 25,7 km/h (4 Bft) 100,00 %
10.02.2016 17:49 3,2 C 83 % 998,4 hPa 0,0 l/m 20,4 km/h (4 Bft) W-SW 240 0 min 0,000 mm 0,0 UV-I 0 W/m 0,6 C -5,7 C 27,4 km/h (4 Bft) 100,00 %
10.02.2016 17:50 3,1 C 83 % 998,5 hPa 0,0 l/m 14,7 km/h (3 Bft) SW 234 0 min 0,000 mm 0,0 UV-I 0 W/m 0,5 C -3,1 C 19,3 km/h (3 Bft) 100,00 %
10.02.2016 17:51 3,1 C 83 % 998,5 hPa 0,0 l/m 12,9 km/h (3 Bft) SW 233 0 min 0,000 mm 0,0 UV-I 0 W/m 0,5 C -2,0 C 17,7 km/h (3 Bft) 100,00 %
10.02.2016 17:52 3,2 C 83 % 998,5 hPa 0,0 l/m 17,8 km/h (3 Bft) W-SW 248 0 min 0,000 mm 0,0 UV-I 0 W/m 0,6 C -4,5 C 29,0 km/h (5 Bft) 100,00 %
10.02.2016 17:53 3,1 C 83 % 998,5 hPa 0,0 l/m 15,8 km/h (3 Bft) W-SW 240 0 min 0,000 mm 0,0 UV-I 0 W/m 0,5 C -3,7 C 22,5 km/h (4 Bft) 92,86 %
10.02.2016 17:54 3,2 C 83 % 998,6 hPa 0,0 l/m 12,5 km/h (3 Bft) W-SW 240 0 min 0,000 mm 0,0 UV-I 0 W/m 0,6 C -1,6 C 17,7 km/h (3 Bft) 100,00 %
10.02.2016 17:55 3,1 C 83 % 998,6 hPa 0,0 l/m 15,1 km/h (3 Bft) SW 232 0 min 0,000 mm 0,0 UV-I 0 W/m 0,5 C -3,3 C 20,9 km/h (4 Bft) 100,00 %
10.02.2016 17:56 3,1 C 83 % 998,5 hPa 0,0 l/m 14,8 km/h (3 Bft) W-SW 237 0 min 0,000 mm 0,0 UV-I 0 W/m 0,5 C -3,1 C 19,3 km/h (3 Bft) 100,00 %
10.02.2016 17:57 3,1 C 83 % 998,7 hPa 0,0 l/m 17,8 km/h (3 Bft) SW 223 0 min 0,000 mm 0,0 UV-I 0 W/m 0,5 C -4,6 C 24,1 km/h (4 Bft) 100,00 %
10.02.2016 17:58 3,1 C 83 % 998,6 hPa 0,0 l/m 14,5 km/h (3 Bft) SW 219 0 min 0,000 mm 0,0 UV-I 0 W/m 0,5 C -2,9 C 19,3 km/h (3 Bft) 96,30 %
10.02.2016 17:59 3,1 C 83 % 998,6 hPa 0,0 l/m 15,6 km/h (3 Bft) SW 234 0 min 0,000 mm 0,0 UV-I 0 W/m 0,5 C -3,5 C 24,1 km/h (4 Bft) 100,00 %
10.02.2016 18:00 3,1 C 83 % 998,6 hPa 0,0 l/m 17,4 km/h (3 Bft) S-SW 195 0 min 0,000 mm 0,0 UV-I 0 W/m 0,5 C -4,5 C 24,1 km/h (4 Bft) 100,00 %
10.02.2016 18:01 3,1 C 83 % 998,7 hPa 0,0 l/m 11,6 km/h (2 Bft) SW 229 0 min 0,025 mm 0,0 UV-I 0 W/m 0,5 C -1,2 C 16,1 km/h (3 Bft) 100,00 %
10.02.2016 18:02 3,1 C 83 % 998,6 hPa 0,0 l/m 16,6 km/h (3 Bft) SW 236 0 min 0,000 mm 0,0 UV-I 0 W/m 0,5 C -4,1 C 24,1 km/h (4 Bft) 100,00 %
10.02.2016 18:03 3,1 C 83 % 998,6 hPa 0,0 l/m 21,9 km/h (4 Bft) S-SW 202 0 min 0,000 mm 0,0 UV-I 0 W/m 0,5 C -6,4 C 32,2 km/h (5 Bft) 100,00 %
10.02.2016 18:04 3,2 C 82 % 998,6 hPa 0,0 l/m 21,0 km/h (4 Bft) W-SW 243 0 min 0,000 mm 0,0 UV-I 0 W/m 0,4 C -5,9 C 27,4 km/h (4 Bft) 100,00 %
10.02.2016 18:05 3,2 C 82 % 998,7 hPa 0,0 l/m 17,1 km/h (3 Bft) W-SW 250 0 min 0,000 mm 0,0 UV-I 0 W/m 0,4 C -4,2 C 25,7 km/h (4 Bft) 100,00 %
10.02.2016 18:06 3,2 C 82 % 998,7 hPa 0,0 l/m 17,0 km/h (3 Bft) SW 223 0 min 0,000 mm 0,0 UV-I 0 W/m 0,4 C -4,1 C 22,5 km/h (4 Bft) 100,00 %
10.02.2016 18:07 3,2 C 82 % 998,7 hPa 0,0 l/m 14,4 km/h (3 Bft) SW 229 0 min 0,000 mm 0,0 UV-I 0 W/m 0,4 C -2,8 C 29,0 km/h (5 Bft) 100,00 %
10.02.2016 18:08 3,2 C 82 % 998,7 hPa 0,0 l/m 14,6 km/h (3 Bft) SW 226 0 min 0,000 mm 0,0 UV-I 0 W/m 0,4 C -2,9 C 20,9 km/h (4 Bft) 95,65 %
10.02.2016 18:09 3,2 C 82 % 998,6 hPa 0,0 l/m 23,7 km/h (4 Bft) W-SW 247 0 min 0,000 mm 0,0 UV-I 0 W/m 0,4 C -6,9 C 35,4 km/h (5 Bft) 100,00 %
10.02.2016 18:10 3,2 C 81 % 998,6 hPa 0,0 l/m 18,5 km/h (3 Bft) W-SW 257 0 min 0,000 mm 0,0 UV-I 0 W/m 0,3 C -4,8 C 22,5 km/h (4 Bft) 100,00 %
10.02.2016 18:11 3,2 C 81 % 998,7 hPa 0,0 l/m 13,3 km/h (3 Bft) SW 226 0 min 0,000 mm 0,0 UV-I 0 W/m 0,3 C -2,1 C 17,7 km/h (3 Bft) 100,00 %
10.02.2016 18:12 3,1 C 82 % 998,7 hPa 0,0 l/m 15,3 km/h (3 Bft) W-SW 243 0 min 0,000 mm 0,0 UV-I 0 W/m 0,3 C -3,4 C 20,9 km/h (4 Bft) 100,00 %
10.02.2016 18:13 3,1 C 82 % 998,7 hPa 0,0 l/m 19,3 km/h (3 Bft) SW 215 0 min 0,000 mm 0,0 UV-I 0 W/m 0,3 C -5,3 C 29,0 km/h (5 Bft) 100,00 %
10.02.2016 18:14 3,1 C 81 % 998,8 hPa 0,0 l/m 22,1 km/h (4 Bft) W-SW 250 0 min 0,000 mm 0,0 UV-I 0 W/m 0,2 C -6,5 C 30,6 km/h (5 Bft) 100,00 %
10.02.2016 18:15 3,1 C 81 % 998,8 hPa 0,0 l/m 14,9 km/h (3 Bft) W-SW 254 0 min 0,000 mm 0,0 UV-I 0 W/m 0,2 C -3,2 C 20,9 km/h (4 Bft) 96,67 %
10.02.2016 18:16 3,1 C 81 % 998,8 hPa 0,0 l/m 16,0 km/h (3 Bft) W-SW 254 0 min 0,000 mm 0,0 UV-I 0 W/m 0,2 C -3,8 C 29,0 km/h (5 Bft) 100,00 %
10.02.2016 18:17 3,1 C 81 % 998,9 hPa 0,0 l/m 19,9 km/h (4 Bft) W-SW 251 0 min 0,000 mm 0,0 UV-I 0 W/m 0,2 C -5,6 C 25,7 km/h (4 Bft) 96,30 %
10.02.2016 18:18 3,1 C 81 % 999,0 hPa 0,0 l/m 15,1 km/h (3 Bft) W 268 0 min 0,000 mm 0,0 UV-I 0 W/m 0,2 C -3,3 C 22,5 km/h (4 Bft) 96,55 %
10.02.2016 18:19 3,1 C 81 % 999,0 hPa 0,0 l/m 18,3 km/h (3 Bft) W 259 0 min 0,000 mm 0,0 UV-I 0 W/m 0,2 C -4,9 C 25,7 km/h (4 Bft) 91,67 %
10.02.2016 18:20 3,1 C 81 % 999,0 hPa 0,0 l/m 19,2 km/h (3 Bft) W-NW 285 0 min 0,000 mm 0,0 UV-I 0 W/m 0,2 C -5,3 C 30,6 km/h (5 Bft) 96,30 %
10.02.2016 18:21 3,1 C 81 % 999,0 hPa 0,0 l/m 20,2 km/h (4 Bft) SW 224 0 min 0,000 mm 0,0 UV-I 0 W/m 0,2 C -5,7 C 29,0 km/h (5 Bft) 96,55 %
10.02.2016 18:22 3,1 C 81 % 998,9 hPa 0,0 l/m 23,4 km/h (4 Bft) W 269 0 min 0,000 mm 0,0 UV-I 0 W/m 0,2 C -7,0 C 32,2 km/h (5 Bft) 100,00 %
10.02.2016 18:23 3,2 C 80 % 998,9 hPa 0,0 l/m 19,0 km/h (3 Bft) SW 219 0 min 0,000 mm 0,0 UV-I 0 W/m 0,1 C -5,1 C 25,7 km/h (4 Bft) 96,15 %
10.02.2016 18:24 3,2 C 80 % 999,0 hPa 0,0 l/m 20,8 km/h (4 Bft) W-SW 255 0 min 0,000 mm 0,0 UV-I 0 W/m 0,1 C -5,8 C 27,4 km/h (4 Bft) 95,83 %
10.02.2016 18:25 3,2 C 81 % 998,9 hPa 0,0 l/m 17,6 km/h (3 Bft) W-SW 257 0 min 0,000 mm 0,0 UV-I 0 W/m 0,3 C -4,4 C 22,5 km/h (4 Bft) 100,00 %
10.02.2016 18:26 3,2 C 81 % 999,0 hPa 0,0 l/m 15,0 km/h (3 Bft) SW 226 0 min 0,000 mm 0,0 UV-I 0 W/m 0,3 C -3,1 C 20,9 km/h (4 Bft) 96,30 %
10.02.2016 18:27 3,2 C 81 % 999,0 hPa 0,0 l/m 19,1 km/h (3 Bft) SW 216 0 min 0,000 mm 0,0 UV-I 0 W/m 0,3 C -5,1 C 24,1 km/h (4 Bft) 98,49 %
10.02.2016 18:28 3,2 C 81 % 999,0 hPa 0,0 l/m 20,5 km/h (4 Bft) W-SW 240 0 min 0,000 mm 0,0 UV-I 0 W/m 0,3 C -5,7 C 27,4 km/h (4 Bft) 97,73 %
10.02.2016 18:29 3,2 C 80 % 999,0 hPa 0,0 l/m 19,2 km/h (3 Bft) W-SW 242 0 min 0,000 mm 0,0 UV-I 0 W/m 0,1 C -5,2 C 29,0 km/h (5 Bft) 96,15 %
10.02.2016 18:30 3,2 C 80 % 999,1 hPa 0,0 l/m 22,5 km/h (4 Bft) SW 226 0 min 0,000 mm 0,0 UV-I 0 W/m 0,1 C -6,5 C 29,0 km/h (5 Bft) 100,00 %
10.02.2016 18:31 3,2 C 80 % 999,1 hPa 0,0 l/m 21,5 km/h (4 Bft) W 269 0 min 0,000 mm 0,0 UV-I 0 W/m 0,1 C -6,1 C 32,2 km/h (5 Bft) 92,86 %
10.02.2016 18:32 3,2 C 80 % 999,3 hPa 0,0 l/m 20,9 km/h (4 Bft) S 187 0 min 0,000 mm 0,0 UV-I 0 W/m 0,1 C -5,9 C 29,0 km/h (5 Bft) 100,00 %
10.02.2016 18:33 3,2 C 80 % 999,2 hPa 0,0 l/m 17,6 km/h (3 Bft) SW 225 0 min 0,000 mm 0,0 UV-I 0 W/m 0,1 C -4,4 C 25,7 km/h (4 Bft) 95,65 %
10.02.2016 18:34 3,2 C 80 % 999,2 hPa 0,0 l/m 15,4 km/h (3 Bft) W-SW 254 0 min 0,000 mm 0,0 UV-I 0 W/m 0,1 C -3,3 C 22,5 km/h (4 Bft) 100,00 %
10.02.2016 18:35 3,2 C 80 % 999,2 hPa 0,0 l/m 18,4 km/h (3 Bft) W-SW 257 0 min 0,000 mm 0,0 UV-I 0 W/m 0,1 C -4,8 C 27,4 km/h (4 Bft) 94,12 %
10.02.2016 18:36 3,3 C 80 % 999,2 hPa 0,0 l/m 16,8 km/h (3 Bft) W-SW 238 0 min 0,000 mm 0,0 UV-I 0 W/m 0,2 C -3,9 C 20,9 km/h (4 Bft) 100,00 %
10.02.2016 18:37 3,3 C 80 % 999,2 hPa 0,0 l/m 18,3 km/h (3 Bft) W-SW 244 0 min 0,000 mm 0,0 UV-I 0 W/m 0,2 C -4,6 C 27,4 km/h (4 Bft) 96,55 %
10.02.2016 18:38 3,2 C 80 % 999,2 hPa 0,0 l/m 20,6 km/h (4 Bft) W-SW 239 0 min 0,000 mm 0,0 UV-I 0 W/m 0,1 C -5,7 C 27,4 km/h (4 Bft) 96,30 %
10.02.2016 18:39 3,3 C 80 % 999,2 hPa 0,0 l/m 21,0 km/h (4 Bft) W-SW 244 0 min 0,000 mm 0,0 UV-I 0 W/m 0,2 C -5,8 C 29,0 km/h (5 Bft) 98,48 %
10.02.2016 18:40 3,3 C 80 % 999,2 hPa 0,0 l/m 18,8 km/h (3 Bft) W-SW 253 0 min 0,000 mm 0,0 UV-I 0 W/m 0,2 C -4,8 C 25,7 km/h (4 Bft) 97,37 %
10.02.2016 18:41 3,3 C 79 % 999,2 hPa 0,0 l/m 16,6 km/h (3 Bft) W 263 0 min 0,000 mm 0,0 UV-I 0 W/m 0,0 C -3,8 C 24,1 km/h (4 Bft) 100,00 %
10.02.2016 18:42 3,3 C 80 % 999,2 hPa 0,0 l/m 23,6 km/h (4 Bft) SW 222 0 min 0,000 mm 0,0 UV-I 0 W/m 0,2 C -6,8 C 37,0 km/h (5 Bft) 96,55 %
10.02.2016 18:43 3,3 C 79 % 999,2 hPa 0,0 l/m 16,7 km/h (3 Bft) W-SW 252 0 min 0,000 mm 0,0 UV-I 0 W/m 0,0 C -3,9 C 24,1 km/h (4 Bft) 96,15 %
10.02.2016 18:44 3,3 C 79 % 999,1 hPa 0,0 l/m 21,0 km/h (4 Bft) W-SW 248 0 min 0,000 mm 0,0 UV-I 0 W/m 0,0 C -5,8 C 27,4 km/h (4 Bft) 91,67 %
10.02.2016 18:45 3,3 C 79 % 999,2 hPa 0,0 l/m 24,6 km/h (4 Bft) SW 229 0 min 0,000 mm 0,0 UV-I 0 W/m 0,0 C -7,1 C 33,8 km/h (5 Bft) 96,30 %
10.02.2016 18:46 3,3 C 79 % 999,2 hPa 0,0 l/m 21,9 km/h (4 Bft) W-SW 238 0 min 0,000 mm 0,0 UV-I 0 W/m 0,0 C -6,1 C 30,6 km/h (5 Bft) 95,65 %
10.02.2016 18:47 3,3 C 79 % 999,2 hPa 0,0 l/m 19,0 km/h (3 Bft) W-SW 252 0 min 0,000 mm 0,0 UV-I 0 W/m 0,0 C -4,9 C 22,5 km/h (4 Bft) 96,67 %
10.02.2016 18:48 3,3 C 79 % 999,3 hPa 0,0 l/m 19,7 km/h (3 Bft) W-SW 248 0 min 0,000 mm 0,0 UV-I 0 W/m 0,0 C -5,2 C 24,1 km/h (4 Bft) 100,00 %
10.02.2016 18:49 3,3 C 79 % 999,3 hPa 0,0 l/m 19,1 km/h (3 Bft) SW 223 0 min 0,000 mm 0,0 UV-I 0 W/m 0,0 C -5,0 C 27,4 km/h (4 Bft) 96,30 %
10.02.2016 18:50 3,3 C 78 % 999,2 hPa 0,0 l/m 20,8 km/h (4 Bft) W-SW 239 0 min 0,000 mm 0,0 UV-I 0 W/m -0,2 C -5,7 C 25,7 km/h (4 Bft) 100,00 %
10.02.2016 18:51 3,3 C 79 % 999,3 hPa 0,0 l/m 18,9 km/h (3 Bft) W-SW 251 0 min 0,000 mm 0,0 UV-I 0 W/m 0,0 C -4,9 C 27,4 km/h (4 Bft) 100,00 %
10.02.2016 18:52 3,3 C 78 % 999,3 hPa 0,0 l/m 21,4 km/h (4 Bft) W-SW 238 0 min 0,000 mm 0,0 UV-I 0 W/m -0,2 C -5,9 C 27,4 km/h (4 Bft) 100,00 %
10.02.2016 18:53 3,3 C 78 % 999,3 hPa 0,0 l/m 21,8 km/h (4 Bft) W-SW 238 0 min 0,000 mm 0,0 UV-I 0 W/m -0,2 C -6,1 C 29,0 km/h (5 Bft) 96,30 %
10.02.2016 18:54 3,3 C 78 % 999,4 hPa 0,0 l/m 16,3 km/h (3 Bft) W-SW 246 0 min 0,000 mm 0,0 UV-I 0 W/m -0,2 C -3,7 C 19,3 km/h (3 Bft) 96,15 %
10.02.2016 18:55 3,3 C 79 % 999,4 hPa 0,0 l/m 23,6 km/h (4 Bft) W-SW 246 0 min 0,000 mm 0,0 UV-I 0 W/m 0,0 C -6,8 C 38,6 km/h (5 Bft) 100,00 %
10.02.2016 18:56 3,3 C 78 % 999,4 hPa 0,0 l/m 22,7 km/h (4 Bft) W-NW 283 0 min 0,000 mm 0,0 UV-I 0 W/m -0,2 C -6,4 C 29,0 km/h (5 Bft) 100,00 %
10.02.2016 18:57 3,3 C 78 % 999,4 hPa 0,0 l/m 21,5 km/h (4 Bft) W-SW 248 0 min 0,000 mm 0,0 UV-I 0 W/m -0,2 C -6,0 C 27,4 km/h (4 Bft) 96,30 %
10.02.2016 18:58 3,3 C 78 % 999,4 hPa 0,0 l/m 22,4 km/h (4 Bft) W-SW 251 0 min 0,000 mm 0,0 UV-I 0 W/m -0,2 C -6,3 C 29,0 km/h (5 Bft) 95,65 %
10.02.2016 18:59 3,3 C 78 % 999,4 hPa 0,0 l/m 20,4 km/h (4 Bft) W-SW 250 0 min 0,000 mm 0,0 UV-I 0 W/m -0,2 C -5,5 C 27,4 km/h (4 Bft) 100,00 %
10.02.2016 19:00 3,3 C 78 % 999,4 hPa 0,0 l/m 17,5 km/h (3 Bft) S-SW 201 0 min 0,025 mm 0,0 UV-I 0 W/m -0,2 C -4,3 C 27,4 km/h (4 Bft) 98,46 %
10.02.2016 19:01 3,3 C 79 % 999,4 hPa 0,0 l/m 17,8 km/h (3 Bft) W-SW 242 0 min 0,000 mm 0,0 UV-I 0 W/m 0,0 C -4,4 C 25,7 km/h (4 Bft) 100,00 %
10.02.2016 19:02 3,3 C 79 % 999,5 hPa 0,0 l/m 15,9 km/h (3 Bft) S-SW 213 0 min 0,000 mm 0,0 UV-I 0 W/m 0,0 C -3,5 C 20,9 km/h (4 Bft) 100,00 %
10.02.2016 19:03 3,3 C 79 % 999,4 hPa 0,0 l/m 18,6 km/h (3 Bft) SW 216 0 min 0,000 mm 0,0 UV-I 0 W/m 0,0 C -4,8 C 22,5 km/h (4 Bft) 100,00 %
10.02.2016 19:04 3,3 C 79 % 999,5 hPa 0,0 l/m 23,4 km/h (4 Bft) SW 222 0 min 0,000 mm 0,0 UV-I 0 W/m 0,0 C -6,7 C 32,2 km/h (5 Bft) 100,00 %
10.02.2016 19:05 3,3 C 78 % 999,5 hPa 0,0 l/m 21,0 km/h (4 Bft) SW 214 0 min 0,000 mm 0,0 UV-I 0 W/m -0,2 C -5,8 C 29,0 km/h (5 Bft) 96,55 %
10.02.2016 19:06 3,3 C 78 % 999,5 hPa 0,0 l/m 19,2 km/h (3 Bft) W-SW 255 0 min 0,000 mm 0,0 UV-I 0 W/m -0,2 C -5,0 C 27,4 km/h (4 Bft) 100,00 %
10.02.2016 19:07 3,3 C 78 % 999,5 hPa 0,0 l/m 25,7 km/h (4 Bft) SW 232 0 min 0,000 mm 0,0 UV-I 0 W/m -0,2 C -7,5 C 33,8 km/h (5 Bft) 100,00 %
10.02.2016 19:08 3,3 C 78 % 999,5 hPa 0,0 l/m 18,6 km/h (3 Bft) SW 231 0 min 0,000 mm 0,0 UV-I 0 W/m -0,2 C -4,8 C 24,1 km/h (4 Bft) 100,00 %
10.02.2016 19:09 3,3 C 78 % 999,5 hPa 0,0 l/m 19,8 km/h (3 Bft) W-SW 257 0 min 0,000 mm 0,0 UV-I 0 W/m -0,2 C -5,3 C 25,7 km/h (4 Bft) 100,00 %
10.02.2016 19:10 3,3 C 78 % 999,6 hPa 0,0 l/m 20,9 km/h (4 Bft) W-SW 249 0 min 0,000 mm 0,0 UV-I 0 W/m -0,2 C -5,7 C 32,2 km/h (5 Bft) 100,00 %
10.02.2016 19:11 3,3 C 78 % 999,6 hPa 0,0 l/m 15,3 km/h (3 Bft) W-SW 239 0 min 0,000 mm 0,0 UV-I 0 W/m -0,2 C -3,1 C 20,9 km/h (4 Bft) 100,00 %
10.02.2016 19:12 3,3 C 78 % 999,5 hPa 0,0 l/m 17,7 km/h (3 Bft) W-SW 244 0 min 0,000 mm 0,0 UV-I 0 W/m -0,2 C -4,3 C 27,4 km/h (4 Bft) 100,00 %
10.02.2016 19:13 3,3 C 78 % 999,6 hPa 0,0 l/m 21,3 km/h (4 Bft) S-SW 198 0 min 0,000 mm 0,0 UV-I 0 W/m -0,2 C -5,9 C 35,4 km/h (5 Bft) 92,86 %
10.02.2016 19:14 3,3 C 78 % 999,5 hPa 0,0 l/m 22,0 km/h (4 Bft) SW 230 0 min 0,000 mm 0,0 UV-I 0 W/m -0,2 C -6,2 C 30,6 km/h (5 Bft) 100,00 %
10.02.2016 19:15 3,3 C 78 % 999,5 hPa 0,0 l/m 19,9 km/h (4 Bft) SW 228 0 min 0,000 mm 0,0 UV-I 0 W/m -0,2 C -5,3 C 25,7 km/h (4 Bft) 100,00 %
10.02.2016 19:16 3,3 C 78 % 999,6 hPa 0,0 l/m 20,0 km/h (4 Bft) W-SW 253 0 min 0,000 mm 0,0 UV-I 0 W/m -0,2 C -5,4 C 27,4 km/h (4 Bft) 100,00 %
10.02.2016 19:17 3,3 C 78 % 999,6 hPa 0,0 l/m 17,4 km/h (3 Bft) SW 227 0 min 0,000 mm 0,0 UV-I 0 W/m -0,2 C -4,2 C 25,7 km/h (4 Bft) 93,33 %
10.02.2016 19:18 3,3 C 78 % 999,6 hPa 0,0 l/m 15,4 km/h (3 Bft) W-SW 242 0 min 0,000 mm 0,0 UV-I 0 W/m -0,2 C -3,2 C 20,9 km/h (4 Bft) 100,00 %
10.02.2016 19:19 3,3 C 78 % 999,8 hPa 0,0 l/m 24,9 km/h (4 Bft) S-SW 208 0 min 0,000 mm 0,0 UV-I 0 W/m -0,2 C -7,2 C 30,6 km/h (5 Bft) 100,00 %
10.02.2016 19:20 3,3 C 77 % 999,7 hPa 0,0 l/m 22,2 km/h (4 Bft) S-SW 213 0 min 0,000 mm 0,0 UV-I 0 W/m -0,3 C -6,2 C 29,0 km/h (5 Bft) 100,00 %
10.02.2016 19:21 3,3 C 78 % 999,7 hPa 0,0 l/m 20,1 km/h (4 Bft) W-SW 243 0 min 0,000 mm 0,0 UV-I 0 W/m -0,2 C -5,4 C 25,7 km/h (4 Bft) 100,00 %
10.02.2016 19:22 3,3 C 78 % 999,7 hPa 0,0 l/m 16,3 km/h (3 Bft) W-SW 248 0 min 0,000 mm 0,0 UV-I 0 W/m -0,2 C -3,7 C 22,5 km/h (4 Bft) 100,00 %
10.02.2016 19:23 3,3 C 78 % 999,7 hPa 0,0 l/m 17,0 km/h (3 Bft) SW 225 0 min 0,000 mm 0,0 UV-I 0 W/m -0,2 C -4,0 C 25,7 km/h (4 Bft) 100,00 %
10.02.2016 19:24 3,3 C 78 % 999,7 hPa 0,0 l/m 17,3 km/h (3 Bft) SW 221 0 min 0,000 mm 0,0 UV-I 0 W/m -0,2 C -4,2 C 24,1 km/h (4 Bft) 100,00 %
10.02.2016 19:25 3,3 C 78 % 999,7 hPa 0,0 l/m 23,1 km/h (4 Bft) SW 229 0 min 0,000 mm 0,0 UV-I 0 W/m -0,2 C -6,6 C 33,8 km/h (5 Bft) 100,00 %
10.02.2016 19:26 3,3 C 77 % 999,8 hPa 0,0 l/m 17,1 km/h (3 Bft) W-SW 245 0 min 0,000 mm 0,0 UV-I 0 W/m -0,3 C -4,1 C 25,7 km/h (4 Bft) 100,00 %
10.02.2016 19:27 3,3 C 78 % 999,7 hPa 0,0 l/m 13,5 km/h (3 Bft) W 261 0 min 0,000 mm 0,0 UV-I 0 W/m -0,2 C -2,1 C 22,5 km/h (4 Bft) 100,00 %
10.02.2016 19:28 3,3 C 78 % 999,7 hPa 0,0 l/m 16,8 km/h (3 Bft) SW 221 0 min 0,000 mm 0,0 UV-I 0 W/m -0,2 C -3,9 C 33,8 km/h (5 Bft) 100,00 %
10.02.2016 19:29 3,3 C 78 % 999,8 hPa 0,0 l/m 23,3 km/h (4 Bft) SW 216 0 min 0,000 mm 0,0 UV-I 0 W/m -0,2 C -6,7 C 32,2 km/h (5 Bft) 100,00 %
10.02.2016 19:30 3,3 C 77 % 999,8 hPa 0,0 l/m 21,2 km/h (4 Bft) SW 233 0 min 0,000 mm 0,0 UV-I 0 W/m -0,3 C -5,9 C 27,4 km/h (4 Bft) 100,00 %
10.02.2016 19:31 3,3 C 77 % 999,8 hPa 0,0 l/m 19,2 km/h (3 Bft) SW 234 0 min 0,000 mm 0,0 UV-I 0 W/m -0,3 C -5,0 C 25,7 km/h (4 Bft) 96,30 %
10.02.2016 19:32 3,3 C 77 % 999,8 hPa 0,0 l/m 23,2 km/h (4 Bft) SW 224 0 min 0,000 mm 0,0 UV-I 0 W/m -0,3 C -6,6 C 30,6 km/h (5 Bft) 100,00 %
10.02.2016 19:33 3,3 C 77 % 999,8 hPa 0,0 l/m 28,1 km/h (4 Bft) SW 219 0 min 0,000 mm 0,0 UV-I 0 W/m -0,3 C -8,2 C 32,2 km/h (5 Bft) 100,00 %
10.02.2016 19:34 3,3 C 77 % 999,9 hPa 0,0 l/m 23,2 km/h (4 Bft) N 360 0 min 0,000 mm 0,0 UV-I 0 W/m -0,3 C -6,6 C 32,2 km/h (5 Bft) 100,00 %
10.02.2016 19:35 3,3 C 77 % 999,7 hPa 0,0 l/m 21,1 km/h (4 Bft) W 259 0 min 0,000 mm 0,0 UV-I 0 W/m -0,3 C -5,8 C 29,0 km/h (5 Bft) 100,00 %
10.02.2016 19:36 3,3 C 77 % 999,7 hPa 0,0 l/m 17,8 km/h (3 Bft) SW 233 0 min 0,000 mm 0,0 UV-I 0 W/m -0,3 C -4,4 C 27,4 km/h (4 Bft) 100,00 %
10.02.2016 19:37 3,3 C 77 % 999,7 hPa 0,0 l/m 19,1 km/h (3 Bft) W-SW 248 0 min 0,000 mm 0,0 UV-I 0 W/m -0,3 C -5,0 C 24,1 km/h (4 Bft) 100,00 %
10.02.2016 19:38 3,3 C 77 % 999,7 hPa 0,0 l/m 16,8 km/h (3 Bft) W-SW 250 0 min 0,000 mm 0,0 UV-I 0 W/m -0,3 C -3,9 C 22,5 km/h (4 Bft) 96,55 %
10.02.2016 19:39 3,3 C 77 % 999,8 hPa 0,0 l/m 24,7 km/h (4 Bft) SW 232 0 min 0,000 mm 0,0 UV-I 0 W/m -0,3 C -7,1 C 35,4 km/h (5 Bft) 100,00 %
10.02.2016 19:40 3,3 C 77 % 999,8 hPa 0,0 l/m 25,3 km/h (4 Bft) W-SW 252 0 min 0,000 mm 0,0 UV-I 0 W/m -0,3 C -7,3 C 32,2 km/h (5 Bft) 100,00 %
10.02.2016 19:41 3,3 C 77 % 999,7 hPa 0,0 l/m 21,9 km/h (4 Bft) SW 233 0 min 0,000 mm 0,0 UV-I 0 W/m -0,3 C -6,1 C 29,0 km/h (5 Bft) 100,00 %
10.02.2016 19:42 3,3 C 77 % 999,8 hPa 0,0 l/m 21,0 km/h (4 Bft) SW 234 0 min 0,000 mm 0,0 UV-I 0 W/m -0,3 C -5,8 C 29,0 km/h (5 Bft) 100,00 %
10.02.2016 19:43 3,3 C 77 % 999,9 hPa 0,0 l/m 22,1 km/h (4 Bft) W-SW 239 0 min 0,000 mm 0,0 UV-I 0 W/m -0,3 C -6,2 C 30,6 km/h (5 Bft) 100,00 %
10.02.2016 19:44 3,3 C 77 % 999,9 hPa 0,0 l/m 22,5 km/h (4 Bft) SW 226 0 min 0,000 mm 0,0 UV-I 0 W/m -0,3 C -6,4 C 37,0 km/h (5 Bft) 100,00 %
10.02.2016 19:45 3,3 C 77 % 999,9 hPa 0,0 l/m 23,7 km/h (4 Bft) W-SW 248 0 min 0,000 mm 0,0 UV-I 0 W/m -0,3 C -6,8 C 37,0 km/h (5 Bft) 100,00 %
10.02.2016 19:46 3,3 C 77 % 999,9 hPa 0,0 l/m 19,9 km/h (4 Bft) W-SW 244 0 min 0,000 mm 0,0 UV-I 0 W/m -0,3 C -5,3 C 25,7 km/h (4 Bft) 100,00 %
10.02.2016 19:47 3,3 C 77 % 999,9 hPa 0,0 l/m 22,2 km/h (4 Bft) SW 227 0 min 0,000 mm 0,0 UV-I 0 W/m -0,3 C -6,2 C 30,6 km/h (5 Bft) 100,00 %
10.02.2016 19:48 3,3 C 77 % 1000,0 hPa 0,0 l/m 19,1 km/h (3 Bft) W-SW 249 0 min 0,000 mm 0,0 UV-I 0 W/m -0,3 C -5,0 C 32,2 km/h (5 Bft) 100,00 %
10.02.2016 19:49 3,3 C 77 % 999,9 hPa 0,0 l/m 20,6 km/h (4 Bft) W-SW 242 0 min 0,000 mm 0,0 UV-I 0 W/m -0,3 C -5,6 C 32,2 km/h (5 Bft) 96,15 %
10.02.2016 19:50 3,3 C 77 % 1000,0 hPa 0,0 l/m 14,4 km/h (3 Bft) W 262 0 min 0,000 mm 0,0 UV-I 0 W/m -0,3 C -2,7 C 24,1 km/h (4 Bft) 100,00 %
10.02.2016 19:51 3,3 C 77 % 999,9 hPa 0,0 l/m 14,7 km/h (3 Bft) W-SW 250 0 min 0,000 mm 0,0 UV-I 0 W/m -0,3 C -2,8 C 19,3 km/h (3 Bft) 98,51 %
10.02.2016 19:52 3,3 C 77 % 1000,0 hPa 0,0 l/m 19,0 km/h (3 Bft) S-SW 212 0 min 0,000 mm 0,0 UV-I 0 W/m -0,3 C -4,9 C 25,7 km/h (4 Bft) 100,00 %
10.02.2016 19:53 3,3 C 77 % 1000,0 hPa 0,0 l/m 22,7 km/h (4 Bft) S-SW 209 0 min 0,000 mm 0,0 UV-I 0 W/m -0,3 C -6,4 C 33,8 km/h (5 Bft) 95,65 %
10.02.2016 19:54 3,3 C 77 % 1000,0 hPa 0,0 l/m 25,1 km/h (4 Bft) W-SW 240 0 min 0,000 mm 0,0 UV-I 0 W/m -0,3 C -7,3 C 38,6 km/h (5 Bft) 100,00 %
10.02.2016 19:55 3,3 C 77 % 999,9 hPa 0,0 l/m 20,9 km/h (4 Bft) W 263 0 min 0,000 mm 0,0 UV-I 0 W/m -0,3 C -5,7 C 32,2 km/h (5 Bft) 100,00 %
10.02.2016 19:56 3,3 C 77 % 1000,0 hPa 0,0 l/m 20,3 km/h (4 Bft) W-SW 250 0 min 0,000 mm 0,0 UV-I 0 W/m -0,3 C -5,5 C 29,0 km/h (5 Bft) 100,00 %
10.02.2016 19:57 3,3 C 77 % 1000,0 hPa 0,0 l/m 26,8 km/h (4 Bft) W-SW 238 0 min 0,000 mm 0,0 UV-I 0 W/m -0,3 C -7,8 C 35,4 km/h (5 Bft) 100,00 %
10.02.2016 19:58 3,3 C 77 % 1000,0 hPa 0,0 l/m 18,3 km/h (3 Bft) SW 236 0 min 0,000 mm 0,0 UV-I 0 W/m -0,3 C -4,6 C 24,1 km/h (4 Bft) 98,52 %
10.02.2016 19:59 3,3 C 77 % 1000,0 hPa 0,0 l/m 15,6 km/h (3 Bft) W-SW 250 0 min 0,000 mm 0,0 UV-I 0 W/m -0,3 C -3,3 C 20,9 km/h (4 Bft) 100,00 %
10.02.2016 20:00 3,3 C 77 % 1000,0 hPa 0,0 l/m 19,1 km/h (3 Bft) W-SW 254 0 min 0,000 mm 0,0 UV-I 0 W/m -0,3 C -5,0 C 25,7 km/h (4 Bft) 100,00 %
10.02.2016 20:01 3,3 C 77 % 1000,0 hPa 0,0 l/m 24,1 km/h (4 Bft) W-SW 240 0 min 0,026 mm 0,0 UV-I 0 W/m -0,3 C -6,9 C 32,2 km/h (5 Bft) 98,53 %
10.02.2016 20:02 3,3 C 77 % 1000,0 hPa 0,0 l/m 25,6 km/h (4 Bft) SW 233 0 min 0,000 mm 0,0 UV-I 0 W/m -0,3 C -7,4 C 33,8 km/h (5 Bft) 95,45 %
10.02.2016 20:03 3,3 C 77 % 999,9 hPa 0,0 l/m 24,9 km/h (4 Bft) W-SW 241 0 min 0,000 mm 0,0 UV-I 0 W/m -0,3 C -7,2 C 33,8 km/h (5 Bft) 100,00 %
10.02.2016 20:04 3,3 C 77 % 1000,0 hPa 0,0 l/m 18,9 km/h (3 Bft) SW 230 0 min 0,000 mm 0,0 UV-I 0 W/m -0,3 C -4,9 C 29,0 km/h (5 Bft) 100,00 %
10.02.2016 20:05 3,3 C 77 % 1000,0 hPa 0,0 l/m 22,1 km/h (4 Bft) W-SW 258 0 min 0,000 mm 0,0 UV-I 0 W/m -0,3 C -6,2 C 32,2 km/h (5 Bft) 100,00 %
10.02.2016 20:06 3,3 C 77 % 1000,0 hPa 0,0 l/m 24,1 km/h (4 Bft) SW 222 0 min 0,000 mm 0,0 UV-I 0 W/m -0,3 C -6,9 C 35,4 km/h (5 Bft) 100,00 %
10.02.2016 20:07 3,3 C 77 % 1000,0 hPa 0,0 l/m 24,4 km/h (4 Bft) W-SW 258 0 min 0,000 mm 0,0 UV-I 0 W/m -0,3 C -7,0 C 30,6 km/h (5 Bft) 100,00 %
10.02.2016 20:08 3,3 C 77 % 1000,0 hPa 0,0 l/m 20,9 km/h (4 Bft) SW 218 0 min 0,000 mm 0,0 UV-I 0 W/m -0,3 C -5,7 C 29,0 km/h (5 Bft) 100,00 %
10.02.2016 20:09 3,3 C 77 % 1000,1 hPa 0,0 l/m 18,1 km/h (3 Bft) W-SW 246 0 min 0,000 mm 0,0 UV-I 0 W/m -0,3 C -4,5 C 27,4 km/h (4 Bft) 100,00 %
10.02.2016 20:10 3,3 C 77 % 1000,1 hPa 0,0 l/m 21,9 km/h (4 Bft) S-SW 211 0 min 0,000 mm 0,0 UV-I 0 W/m -0,3 C -6,1 C 30,6 km/h (5 Bft) 100,00 %
10.02.2016 20:11 3,3 C 77 % 1000,1 hPa 0,0 l/m 22,7 km/h (4 Bft) W-SW 253 0 min 0,000 mm 0,0 UV-I 0 W/m -0,3 C -6,4 C 30,6 km/h (5 Bft) 100,00 %
10.02.2016 20:12 3,3 C 77 % 1000,1 hPa 0,0 l/m 23,6 km/h (4 Bft) W-SW 240 0 min 0,000 mm 0,0 UV-I 0 W/m -0,3 C -6,8 C 30,6 km/h (5 Bft) 100,00 %
10.02.2016 20:13 3,3 C 77 % 1000,1 hPa 0,0 l/m 17,2 km/h (3 Bft) W-SW 251 0 min 0,000 mm 0,0 UV-I 0 W/m -0,3 C -4,1 C 27,4 km/h (4 Bft) 100,00 %
10.02.2016 20:14 3,3 C 77 % 1000,1 hPa 0,0 l/m 18,8 km/h (3 Bft) SW 234 0 min 0,000 mm 0,0 UV-I 0 W/m -0,3 C -4,8 C 29,0 km/h (5 Bft) 100,00 %
10.02.2016 20:15 3,3 C 77 % 1000,2 hPa 0,0 l/m 22,8 km/h (4 Bft) W-SW 254 0 min 0,000 mm 0,0 UV-I 0 W/m -0,3 C -6,5 C 27,4 km/h (4 Bft) 100,00 %
10.02.2016 20:16 3,3 C 77 % 1000,1 hPa 0,0 l/m 21,9 km/h (4 Bft) W-SW 238 0 min 0,000 mm 0,0 UV-I 0 W/m -0,3 C -6,1 C 32,2 km/h (5 Bft) 100,00 %
10.02.2016 20:17 3,3 C 77 % 1000,1 hPa 0,0 l/m 22,7 km/h (4 Bft) SW 232 0 min 0,000 mm 0,0 UV-I 0 W/m -0,3 C -6,4 C 30,6 km/h (5 Bft) 100,00 %
10.02.2016 20:18 3,3 C 77 % 1000,2 hPa 0,0 l/m 20,7 km/h (4 Bft) W 279 0 min 0,000 mm 0,0 UV-I 0 W/m -0,3 C -5,7 C 27,4 km/h (4 Bft) 100,00 %
10.02.2016 20:19 3,3 C 77 % 1000,2 hPa 0,0 l/m 27,8 km/h (4 Bft) W-SW 244 0 min 0,000 mm 0,0 UV-I 0 W/m -0,3 C -8,1 C 43,5 km/h (6 Bft) 100,00 %
10.02.2016 20:20 3,3 C 77 % 1000,2 hPa 0,0 l/m 22,9 km/h (4 Bft) W 267 0 min 0,000 mm 0,0 UV-I 0 W/m -0,3 C -6,5 C 35,4 km/h (5 Bft) 96,30 %
10.02.2016 20:21 3,3 C 77 % 1000,2 hPa 0,0 l/m 25,5 km/h (4 Bft) W-NW 289 0 min 0,000 mm 0,0 UV-I 0 W/m -0,3 C -7,4 C 32,2 km/h (5 Bft) 96,15 %
10.02.2016 20:22 3,3 C 77 % 1000,3 hPa 0,0 l/m 21,2 km/h (4 Bft) SW 226 0 min 0,000 mm 0,0 UV-I 0 W/m -0,3 C -5,9 C 30,6 km/h (5 Bft) 96,15 %
10.02.2016 20:23 3,3 C 77 % 1000,3 hPa 0,0 l/m 22,3 km/h (4 Bft) W 260 0 min 0,000 mm 0,0 UV-I 0 W/m -0,3 C -6,3 C 29,0 km/h (5 Bft) 100,00 %
10.02.2016 20:24 3,3 C 77 % 1000,3 hPa 0,0 l/m 28,6 km/h (4 Bft) SW 231 0 min 0,000 mm 0,0 UV-I 0 W/m -0,3 C -8,4 C 37,0 km/h (5 Bft) 91,67 %
10.02.2016 20:25 3,3 C 76 % 1000,3 hPa 0,0 l/m 23,2 km/h (4 Bft) W-SW 250 0 min 0,000 mm 0,0 UV-I 0 W/m -0,5 C -6,6 C 30,6 km/h (5 Bft) 100,00 %
10.02.2016 20:26 3,3 C 76 % 1000,3 hPa 0,0 l/m 27,0 km/h (4 Bft) S-SW 207 0 min 0,000 mm 0,0 UV-I 0 W/m -0,5 C -7,9 C 35,4 km/h (5 Bft) 91,67 %
10.02.2016 20:27 3,3 C 76 % 1000,3 hPa 0,0 l/m 21,9 km/h (4 Bft) W-SW 241 0 min 0,000 mm 0,0 UV-I 0 W/m -0,5 C -6,1 C 29,0 km/h (5 Bft) 100,00 %
10.02.2016 20:28 3,3 C 76 % 1000,3 hPa 0,0 l/m 26,9 km/h (4 Bft) SW 229 0 min 0,000 mm 0,0 UV-I 0 W/m -0,5 C -7,9 C 41,8 km/h (6 Bft) 96,30 %
10.02.2016 20:29 3,3 C 76 % 1000,3 hPa 0,0 l/m 25,3 km/h (4 Bft) SW 225 0 min 0,000 mm 0,0 UV-I 0 W/m -0,5 C -7,3 C 35,4 km/h (5 Bft) 96,15 %
10.02.2016 20:30 3,4 C 76 % 1000,3 hPa 0,0 l/m 28,5 km/h (4 Bft) W-SW 240 0 min 0,000 mm 0,0 UV-I 0 W/m -0,4 C -8,2 C 37,0 km/h (5 Bft) 100,00 %
10.02.2016 20:31 3,4 C 76 % 1000,3 hPa 0,0 l/m 28,0 km/h (4 Bft) W-SW 238 0 min 0,000 mm 0,0 UV-I 0 W/m -0,4 C -8,1 C 37,0 km/h (5 Bft) 96,15 %
10.02.2016 20:32 3,4 C 76 % 1000,3 hPa 0,0 l/m 22,3 km/h (4 Bft) SW 235 0 min 0,000 mm 0,0 UV-I 0 W/m -0,4 C -6,2 C 35,4 km/h (5 Bft) 100,00 %
10.02.2016 20:33 3,4 C 76 % 1000,3 hPa 0,0 l/m 24,2 km/h (4 Bft) SW 235 0 min 0,000 mm 0,0 UV-I 0 W/m -0,4 C -6,8 C 33,8 km/h (5 Bft) 95,65 %
10.02.2016 20:34 3,3 C 77 % 1000,4 hPa 0,0 l/m 22,2 km/h (4 Bft) W-SW 242 0 min 0,000 mm 0,0 UV-I 0 W/m -0,3 C -6,2 C 30,6 km/h (5 Bft) 100,00 %
10.02.2016 20:35 3,3 C 77 % 1000,4 hPa 0,0 l/m 22,1 km/h (4 Bft) W-SW 252 0 min 0,000 mm 0,0 UV-I 0 W/m -0,3 C -6,2 C 27,4 km/h (4 Bft) 92,86 %
10.02.2016 20:36 3,3 C 77 % 1000,5 hPa 0,0 l/m 19,8 km/h (3 Bft) W-SW 244 0 min 0,000 mm 0,0 UV-I 0 W/m -0,3 C -5,3 C 25,7 km/h (4 Bft) 100,00 %
10.02.2016 20:37 3,3 C 77 % 1000,4 hPa 0,0 l/m 22,8 km/h (4 Bft) W-SW 238 0 min 0,000 mm 0,0 UV-I 0 W/m -0,3 C -6,5 C 33,8 km/h (5 Bft) 95,65 %
10.02.2016 20:38 3,3 C 77 % 1000,4 hPa 0,0 l/m 27,7 km/h (4 Bft) SW 229 0 min 0,000 mm 0,0 UV-I 0 W/m -0,3 C -8,1 C 40,2 km/h (6 Bft) 95,83 %
10.02.2016 20:39 3,3 C 77 % 1000,4 hPa 0,0 l/m 19,0 km/h (3 Bft) W-SW 246 0 min 0,000 mm 0,0 UV-I 0 W/m -0,3 C -4,9 C 30,6 km/h (5 Bft) 100,00 %
10.02.2016 20:40 3,3 C 78 % 1000,5 hPa 0,0 l/m 26,7 km/h (4 Bft) W 271 0 min 0,000 mm 0,0 UV-I 0 W/m -0,2 C -7,8 C 35,4 km/h (5 Bft) 100,00 %
10.02.2016 20:41 3,3 C 78 % 1000,5 hPa 0,0 l/m 22,4 km/h (4 Bft) W-SW 251 0 min 0,000 mm 0,0 UV-I 0 W/m -0,2 C -6,3 C 27,4 km/h (4 Bft) 96,30 %
10.02.2016 20:42 3,2 C 78 % 1000,5 hPa 0,0 l/m 22,7 km/h (4 Bft) SW 236 0 min 0,000 mm 0,0 UV-I 0 W/m -0,3 C -6,6 C 29,0 km/h (5 Bft) 92,31 %
10.02.2016 20:43 3,2 C 78 % 1000,5 hPa 0,0 l/m 18,6 km/h (3 Bft) W-SW 242 0 min 0,000 mm 0,0 UV-I 0 W/m -0,3 C -4,9 C 29,0 km/h (5 Bft) 100,00 %
10.02.2016 20:44 3,2 C 79 % 1000,5 hPa 0,0 l/m 31,8 km/h (5 Bft) W 266 0 min 0,000 mm 0,0 UV-I 0 W/m -0,1 C -9,4 C 41,8 km/h (6 Bft) 96,55 %
10.02.2016 20:45 3,2 C 78 % 1000,4 hPa 0,0 l/m 27,4 km/h (4 Bft) W-SW 252 0 min 0,000 mm 0,0 UV-I 0 W/m -0,3 C -8,2 C 37,0 km/h (5 Bft) 100,00 %
10.02.2016 20:46 3,1 C 79 % 1000,5 hPa 0,0 l/m 24,3 km/h (4 Bft) W-SW 239 0 min 0,000 mm 0,0 UV-I 0 W/m -0,2 C -7,3 C 30,6 km/h (5 Bft) 95,65 %
10.02.2016 20:47 3,1 C 79 % 1000,6 hPa 0,0 l/m 17,3 km/h (3 Bft) W-SW 240 0 min 0,000 mm 0,0 UV-I 0 W/m -0,2 C -4,4 C 24,1 km/h (4 Bft) 100,00 %
10.02.2016 20:48 3,1 C 80 % 1000,5 hPa 0,0 l/m 21,2 km/h (4 Bft) W-SW 246 0 min 0,000 mm 0,0 UV-I 0 W/m -0,0 C -6,1 C 32,2 km/h (5 Bft) 96,15 %
10.02.2016 20:49 3,0 C 80 % 1000,6 hPa 0,0 l/m 27,2 km/h (4 Bft) S-SW 213 0 min 0,000 mm 0,0 UV-I 0 W/m -0,1 C -8,4 C 41,8 km/h (6 Bft) 92,59 %
10.02.2016 20:50 2,9 C 80 % 1000,6 hPa 0,0 l/m 23,7 km/h (4 Bft) W-SW 245 0 min 0,000 mm 0,0 UV-I 0 W/m -0,2 C -7,3 C 30,6 km/h (5 Bft) 100,00 %
10.02.2016 20:51 2,9 C 80 % 1000,6 hPa 0,0 l/m 24,6 km/h (4 Bft) SW 229 0 min 0,000 mm 0,0 UV-I 0 W/m -0,2 C -7,7 C 38,6 km/h (5 Bft) 91,67 %
10.02.2016 20:52 2,9 C 80 % 1000,6 hPa 0,0 l/m 23,2 km/h (4 Bft) W-SW 248 0 min 0,000 mm 0,0 UV-I 0 W/m -0,2 C -7,2 C 30,6 km/h (5 Bft) 100,00 %
10.02.2016 20:53 2,9 C 81 % 1000,6 hPa 0,0 l/m 21,5 km/h (4 Bft) W-SW 238 0 min 0,000 mm 0,0 UV-I 0 W/m -0,0 C -6,5 C 30,6 km/h (5 Bft) 95,83 %
10.02.2016 20:54 2,9 C 81 % 1000,7 hPa 0,0 l/m 19,7 km/h (3 Bft) S-SW 207 0 min 0,000 mm 0,0 UV-I 0 W/m -0,0 C -5,8 C 25,7 km/h (4 Bft) 96,55 %
10.02.2016 20:55 2,8 C 81 % 1000,7 hPa 0,0 l/m 19,2 km/h (3 Bft) S-SW 212 0 min 0,000 mm 0,0 UV-I 0 W/m -0,1 C -5,7 C 29,0 km/h (5 Bft) 91,67 %
10.02.2016 20:56 2,8 C 81 % 1000,7 hPa 0,0 l/m 19,8 km/h (3 Bft) S-SW 196 0 min 0,000 mm 0,0 UV-I 0 W/m -0,1 C -5,9 C 27,4 km/h (4 Bft) 100,00 %
10.02.2016 20:57 2,8 C 81 % 1001,3 hPa 0,0 l/m 31,7 km/h (5 Bft) SW 219 0 min 0,000 mm 0,0 UV-I 0 W/m -0,1 C -9,9 C 45,1 km/h (6 Bft) 95,45 %
10.02.2016 20:58 2,8 C 82 % 1000,9 hPa 0,0 l/m 21,8 km/h (4 Bft) W 263 0 min 0,000 mm 0,0 UV-I 0 W/m 0,0 C -6,8 C 30,6 km/h (5 Bft) 100,00 %
10.02.2016 20:59 2,7 C 82 % 1000,8 hPa 0,0 l/m 17,5 km/h (3 Bft) SW 232 0 min 0,000 mm 0,0 UV-I 0 W/m -0,1 C -5,0 C 24,1 km/h (4 Bft) 98,49 %
10.02.2016 21:00 2,7 C 82 % 1000,8 hPa 0,0 l/m 18,4 km/h (3 Bft) W-SW 242 0 min 0,000 mm 0,0 UV-I 0 W/m -0,1 C -5,4 C 27,4 km/h (4 Bft) 95,12 %
10.02.2016 21:01 2,7 C 83 % 1000,8 hPa 0,0 l/m 26,0 km/h (4 Bft) W-SW 245 0 min 0,051 mm 0,0 UV-I 0 W/m 0,1 C -8,4 C 40,2 km/h (6 Bft) 100,00 %
10.02.2016 21:02 2,7 C 83 % 1000,9 hPa 0,0 l/m 27,0 km/h (4 Bft) S-SW 202 0 min 0,000 mm 0,0 UV-I 0 W/m 0,1 C -8,7 C 37,0 km/h (5 Bft) 100,00 %
10.02.2016 21:03 2,6 C 83 % 1000,9 hPa 0,0 l/m 24,4 km/h (4 Bft) SW 218 0 min 0,000 mm 0,0 UV-I 0 W/m 0,0 C -8,0 C 38,6 km/h (5 Bft) 100,00 %
10.02.2016 21:04 2,6 C 83 % 1000,9 hPa 0,0 l/m 27,6 km/h (4 Bft) W-SW 237 0 min 0,000 mm 0,0 UV-I 0 W/m 0,0 C -9,0 C 37,0 km/h (5 Bft) 92,59 %
10.02.2016 21:05 2,6 C 84 % 1000,7 hPa 0,0 l/m 25,8 km/h (4 Bft) S-SW 200 0 min 0,000 mm 0,0 UV-I 0 W/m 0,2 C -8,5 C 38,6 km/h (5 Bft) 100,00 %
10.02.2016 21:06 2,5 C 84 % 1000,7 hPa 0,0 l/m 30,3 km/h (5 Bft) W-SW 247 0 min 0,000 mm 0,0 UV-I 0 W/m 0,1 C -10,0 C 38,6 km/h (5 Bft) 100,00 %
10.02.2016 21:07 2,4 C 84 % 1000,7 hPa 0,0 l/m 23,4 km/h (4 Bft) W-SW 242 0 min 0,000 mm 0,0 UV-I 0 W/m -0,0 C -7,9 C 32,2 km/h (5 Bft) 100,00 %
10.02.2016 21:08 2,4 C 84 % 1000,7 hPa 0,0 l/m 26,2 km/h (4 Bft) W-SW 256 0 min 0,000 mm 0,0 UV-I 0 W/m -0,0 C -8,9 C 35,4 km/h (5 Bft) 96,30 %
10.02.2016 21:09 2,4 C 85 % 1000,8 hPa 0,0 l/m 29,5 km/h (5 Bft) W-SW 241 0 min 0,000 mm 0,0 UV-I 0 W/m 0,1 C -9,9 C 41,8 km/h (6 Bft) 100,00 %
10.02.2016 21:10 2,3 C 85 % 1000,8 hPa 0,0 l/m 32,3 km/h (5 Bft) SW 215 0 min 0,000 mm 0,0 UV-I 0 W/m 0,0 C -10,8 C 40,2 km/h (6 Bft) 100,00 %
10.02.2016 21:11 2,3 C 85 % 1000,8 hPa 0,0 l/m 24,4 km/h (4 Bft) W 259 0 min 0,000 mm 0,0 UV-I 0 W/m 0,0 C -8,4 C 27,4 km/h (4 Bft) 100,00 %
10.02.2016 21:12 2,3 C 86 % 1000,8 hPa 0,0 l/m 19,4 km/h (3 Bft) W-SW 257 0 min 0,000 mm 0,0 UV-I 0 W/m 0,2 C -6,4 C 29,0 km/h (5 Bft) 100,00 %
10.02.2016 21:13 2,3 C 86 % 1000,8 hPa 0,0 l/m 19,3 km/h (3 Bft) SW 233 0 min 0,000 mm 0,0 UV-I 0 W/m 0,2 C -6,4 C 32,2 km/h (5 Bft) 100,00 %
10.02.2016 21:14 2,2 C 86 % 1000,8 hPa 0,0 l/m 23,6 km/h (4 Bft) SW 222 0 min 0,000 mm 0,0 UV-I 0 W/m 0,1 C -8,2 C 30,6 km/h (5 Bft) 100,00 %
10.02.2016 21:15 2,2 C 86 % 1000,9 hPa 0,0 l/m 21,9 km/h (4 Bft) S-SW 197 0 min 0,000 mm 0,0 UV-I 0 W/m 0,1 C -7,6 C 29,0 km/h (5 Bft) 100,00 %
10.02.2016 21:16 2,2 C 86 % 1000,8 hPa 0,0 l/m 24,5 km/h (4 Bft) W-SW 254 0 min 0,000 mm 0,0 UV-I 0 W/m 0,1 C -8,6 C 30,6 km/h (5 Bft) 100,00 %
10.02.2016 21:17 2,2 C 86 % 1000,8 hPa 0,0 l/m 21,7 km/h (4 Bft) SW 229 0 min 0,000 mm 0,0 UV-I 0 W/m 0,1 C -7,5 C 32,2 km/h (5 Bft) 100,00 %
10.02.2016 21:18 2,2 C 86 % 1000,9 hPa 0,0 l/m 20,5 km/h (4 Bft) SW 225 0 min 0,000 mm 0,0 UV-I 0 W/m 0,1 C -7,0 C 32,2 km/h (5 Bft) 96,55 %
10.02.2016 21:19 2,1 C 87 % 1000,9 hPa 0,0 l/m 16,9 km/h (3 Bft) SW 216 0 min 0,000 mm 0,0 UV-I 0 W/m 0,2 C -5,5 C 22,5 km/h (4 Bft) 100,00 %
10.02.2016 21:20 2,1 C 87 % 1000,9 hPa 0,0 l/m 16,0 km/h (3 Bft) S-SW 203 0 min 0,000 mm 0,0 UV-I 0 W/m 0,2 C -5,0 C 20,9 km/h (4 Bft) 96,55 %
10.02.2016 21:21 2,1 C 87 % 1000,9 hPa 0,0 l/m 18,9 km/h (3 Bft) W-SW 238 0 min 0,000 mm 0,0 UV-I 0 W/m 0,2 C -6,4 C 27,4 km/h (4 Bft) 100,00 %
10.02.2016 21:22 2,1 C 87 % 1000,9 hPa 0,0 l/m 21,1 km/h (4 Bft) W-SW 247 0 min 0,000 mm 0,0 UV-I 0 W/m 0,2 C -7,4 C 32,2 km/h (5 Bft) 95,65 %
10.02.2016 21:23 2,1 C 87 % 1000,9 hPa 0,0 l/m 17,4 km/h (3 Bft) S-SW 206 0 min 0,000 mm 0,0 UV-I 0 W/m 0,2 C -5,7 C 24,1 km/h (4 Bft) 100,00 %
10.02.2016 21:24 2,1 C 87 % 1000,9 hPa 0,0 l/m 20,5 km/h (4 Bft) W-SW 251 0 min 0,000 mm 0,0 UV-I 0 W/m 0,2 C -7,1 C 33,8 km/h (5 Bft) 95,65 %
10.02.2016 21:25 2,1 C 88 % 1000,9 hPa 0,0 l/m 29,7 km/h (5 Bft) SW 232 0 min 0,000 mm 0,0 UV-I 0 W/m 0,3 C -10,4 C 41,8 km/h (6 Bft) 100,00 %
10.02.2016 21:26 2,1 C 88 % 1000,9 hPa 0,0 l/m 21,5 km/h (4 Bft) SW 217 0 min 0,000 mm 0,0 UV-I 0 W/m 0,3 C -7,6 C 29,0 km/h (5 Bft) 100,00 %
10.02.2016 21:27 2,1 C 87 % 1001,0 hPa 0,0 l/m 20,5 km/h (4 Bft) W-SW 245 0 min 0,000 mm 0,0 UV-I 0 W/m 0,2 C -7,1 C 27,4 km/h (4 Bft) 100,00 %
10.02.2016 21:28 2,0 C 88 % 1001,0 hPa 0,0 l/m 18,0 km/h (3 Bft) W-SW 237 0 min 0,000 mm 0,0 UV-I 0 W/m 0,2 C -6,1 C 22,5 km/h (4 Bft) 95,65 %
10.02.2016 21:29 2,0 C 88 % 1001,0 hPa 0,0 l/m 25,1 km/h (4 Bft) SW 224 0 min 0,000 mm 0,0 UV-I 0 W/m 0,2 C -9,0 C 33,8 km/h (5 Bft) 100,00 %
10.02.2016 21:30 2,0 C 88 % 1001,0 hPa 0,0 l/m 26,8 km/h (4 Bft) W-SW 238 0 min 0,000 mm 0,0 UV-I 0 W/m 0,2 C -9,6 C 37,0 km/h (5 Bft) 100,00 %
10.02.2016 21:31 2,0 C 88 % 1001,0 hPa 0,0 l/m 27,2 km/h (4 Bft) SW 227 0 min 0,000 mm 0,0 UV-I 0 W/m 0,2 C -9,7 C 37,0 km/h (5 Bft) 100,00 %
10.02.2016 21:32 1,9 C 88 % 1001,0 hPa 0,0 l/m 20,3 km/h (4 Bft) W-SW 237 0 min 0,000 mm 0,0 UV-I 0 W/m 0,1 C -7,3 C 32,2 km/h (5 Bft) 96,55 %
10.02.2016 21:33 1,9 C 88 % 1001,0 hPa 0,0 l/m 25,0 km/h (4 Bft) SW 224 0 min 0,000 mm 0,0 UV-I 0 W/m 0,1 C -9,1 C 33,8 km/h (5 Bft) 100,00 %
10.02.2016 21:34 1,9 C 88 % 1001,0 hPa 0,0 l/m 25,1 km/h (4 Bft) W-SW 245 0 min 0,000 mm 0,0 UV-I 0 W/m 0,1 C -9,2 C 35,4 km/h (5 Bft) 100,00 %
10.02.2016 21:35 1,9 C 88 % 1001,0 hPa 0,0 l/m 21,5 km/h (4 Bft) W-SW 238 0 min 0,000 mm 0,0 UV-I 0 W/m 0,1 C -7,8 C 30,6 km/h (5 Bft) 100,00 %
10.02.2016 21:36 1,9 C 88 % 1001,1 hPa 0,0 l/m 16,2 km/h (3 Bft) W-SW 241 0 min 0,000 mm 0,0 UV-I 0 W/m 0,1 C -5,3 C 22,5 km/h (4 Bft) 100,00 %
10.02.2016 21:37 1,9 C 89 % 1001,0 hPa 0,0 l/m 15,0 km/h (3 Bft) SW 232 0 min 0,000 mm 0,0 UV-I 0 W/m 0,3 C -4,7 C 20,9 km/h (4 Bft) 100,00 %
10.02.2016 21:38 1,9 C 89 % 1001,1 hPa 0,0 l/m 15,9 km/h (3 Bft) SW 228 0 min 0,000 mm 0,0 UV-I 0 W/m 0,3 C -5,2 C 33,8 km/h (5 Bft) 100,00 %
10.02.2016 21:39 1,9 C 89 % 1001,1 hPa 0,0 l/m 22,1 km/h (4 Bft) W-SW 250 0 min 0,000 mm 0,0 UV-I 0 W/m 0,3 C -8,1 C 32,2 km/h (5 Bft) 100,00 %
10.02.2016 21:40 1,9 C 89 % 1001,0 hPa 0,0 l/m 21,6 km/h (4 Bft) S-SW 200 0 min 0,000 mm 0,0 UV-I 0 W/m 0,3 C -7,9 C 32,2 km/h (5 Bft) 100,00 %
10.02.2016 21:41 1,9 C 89 % 1001,1 hPa 0,0 l/m 25,3 km/h (4 Bft) SW 219 0 min 0,000 mm 0,0 UV-I 0 W/m 0,3 C -9,2 C 33,8 km/h (5 Bft) 100,00 %
10.02.2016 21:42 1,9 C 89 % 1001,1 hPa 0,0 l/m 22,0 km/h (4 Bft) W-SW 247 0 min 0,000 mm 0,0 UV-I 0 W/m 0,3 C -8,0 C 32,2 km/h (5 Bft) 100,00 %
10.02.2016 21:43 1,8 C 89 % 1001,2 hPa 0,0 l/m 19,2 km/h (3 Bft) S-SW 197 0 min 0,000 mm 0,0 UV-I 0 W/m 0,2 C -6,9 C 29,0 km/h (5 Bft) 95,65 %
10.02.2016 21:44 1,8 C 89 % 1001,2 hPa 0,0 l/m 24,6 km/h (4 Bft) SW 223 0 min 0,000 mm 0,0 UV-I 0 W/m 0,2 C -9,1 C 33,8 km/h (5 Bft) 100,00 %
10.02.2016 21:45 1,8 C 89 % 1001,3 hPa 0,0 l/m 19,0 km/h (3 Bft) S-SW 205 0 min 0,000 mm 0,0 UV-I 0 W/m 0,2 C -6,9 C 25,7 km/h (4 Bft) 100,00 %
10.02.2016 21:46 1,8 C 90 % 1001,3 hPa 0,0 l/m 17,5 km/h (3 Bft) W-SW 244 0 min 0,000 mm 0,0 UV-I 0 W/m 0,3 C -6,1 C 20,9 km/h (4 Bft) 100,00 %
10.02.2016 21:47 1,8 C 90 % 1001,3 hPa 0,0 l/m 18,5 km/h (3 Bft) W-SW 246 0 min 0,000 mm 0,0 UV-I 0 W/m 0,3 C -6,6 C 25,7 km/h (4 Bft) 100,00 %
10.02.2016 21:48 1,8 C 90 % 1001,2 hPa 0,0 l/m 21,2 km/h (4 Bft) SW 221 0 min 0,000 mm 0,0 UV-I 0 W/m 0,3 C -7,8 C 29,0 km/h (5 Bft) 100,00 %
10.02.2016 21:49 1,8 C 90 % 1001,2 hPa 0,0 l/m 20,5 km/h (4 Bft) W-SW 242 0 min 0,000 mm 0,0 UV-I 0 W/m 0,3 C -7,5 C 33,8 km/h (5 Bft) 100,00 %
10.02.2016 21:50 1,8 C 90 % 1001,2 hPa 0,0 l/m 19,3 km/h (3 Bft) SW 225 0 min 0,000 mm 0,0 UV-I 0 W/m 0,3 C -7,0 C 25,7 km/h (4 Bft) 100,00 %
10.02.2016 21:51 1,7 C 90 % 1001,3 hPa 0,0 l/m 19,4 km/h (3 Bft) SW 232 0 min 0,000 mm 0,0 UV-I 0 W/m 0,2 C -7,2 C 25,7 km/h (4 Bft) 100,00 %
10.02.2016 21:52 1,7 C 90 % 1001,3 hPa 0,0 l/m 22,5 km/h (4 Bft) S-SW 208 0 min 0,000 mm 0,0 UV-I 0 W/m 0,2 C -8,5 C 29,0 km/h (5 Bft) 100,00 %
10.02.2016 21:53 1,7 C 91 % 1001,2 hPa 0,0 l/m 19,1 km/h (3 Bft) S 181 0 min 0,000 mm 0,0 UV-I 0 W/m 0,4 C -7,0 C 33,8 km/h (5 Bft) 100,00 %
10.02.2016 21:54 1,7 C 91 % 1001,3 hPa 0,0 l/m 18,3 km/h (3 Bft) W-SW 246 0 min 0,000 mm 0,0 UV-I 0 W/m 0,4 C -6,7 C 32,2 km/h (5 Bft) 100,00 %
10.02.2016 21:55 1,7 C 91 % 1001,3 hPa 0,0 l/m 14,5 km/h (3 Bft) W-SW 242 0 min 0,000 mm 0,0 UV-I 0 W/m 0,4 C -4,6 C 20,9 km/h (4 Bft) 95,65 %
10.02.2016 21:56 1,6 C 91 % 1001,3 hPa 0,0 l/m 15,1 km/h (3 Bft) SW 226 0 min 0,000 mm 0,0 UV-I 0 W/m 0,3 C -5,1 C 22,5 km/h (4 Bft) 100,00 %
10.02.2016 21:57 1,6 C 91 % 1001,3 hPa 0,0 l/m 26,5 km/h (4 Bft) SW 234 0 min 0,000 mm 0,0 UV-I 0 W/m 0,3 C -10,1 C 37,0 km/h (5 Bft) 100,00 %
10.02.2016 21:58 1,6 C 91 % 1001,3 hPa 0,0 l/m 17,7 km/h (3 Bft) W-SW 247 0 min 0,000 mm 0,0 UV-I 0 W/m 0,3 C -6,5 C 29,0 km/h (5 Bft) 100,00 %
10.02.2016 21:59 1,6 C 91 % 1001,3 hPa 0,0 l/m 16,3 km/h (3 Bft) S-SW 200 0 min 0,000 mm 0,0 UV-I 0 W/m 0,3 C -5,8 C 27,4 km/h (4 Bft) 100,00 %
10.02.2016 22:00 1,5 C 91 % 1001,3 hPa 0,0 l/m 14,3 km/h (3 Bft) SW 228 0 min 0,000 mm 0,0 UV-I 0 W/m 0,2 C -4,8 C 24,1 km/h (4 Bft) 96,55 %
10.02.2016 22:01 1,4 C 91 % 1001,4 hPa 0,0 l/m 16,3 km/h (3 Bft) W-SW 240 0 min 0,025 mm 0,0 UV-I 0 W/m 0,1 C -6,0 C 24,1 km/h (4 Bft) 100,00 %
10.02.2016 22:02 1,4 C 92 % 1001,4 hPa 0,0 l/m 13,0 km/h (3 Bft) W-SW 244 0 min 0,000 mm 0,0 UV-I 0 W/m 0,2 C -4,1 C 22,5 km/h (4 Bft) 100,00 %
10.02.2016 22:03 1,4 C 92 % 1001,4 hPa 0,0 l/m 19,6 km/h (3 Bft) O-SO 117 0 min 0,000 mm 0,0 UV-I 0 W/m 0,2 C -7,6 C 29,0 km/h (5 Bft) 94,44 %
10.02.2016 22:04 1,4 C 92 % 1001,4 hPa 0,0 l/m 20,4 km/h (4 Bft) W-SW 238 0 min 0,000 mm 0,0 UV-I 0 W/m 0,2 C -8,0 C 25,7 km/h (4 Bft) 100,00 %
10.02.2016 22:05 1,3 C 92 % 1001,3 hPa 0,0 l/m 13,8 km/h (3 Bft) SW 219 0 min 0,000 mm 0,0 UV-I 0 W/m 0,1 C -4,7 C 20,9 km/h (4 Bft) 100,00 %
10.02.2016 22:06 1,3 C 92 % 1001,4 hPa 0,0 l/m 18,0 km/h (3 Bft) W 264 0 min 0,000 mm 0,0 UV-I 0 W/m 0,1 C -7,0 C 25,7 km/h (4 Bft) 100,00 %
10.02.2016 22:07 1,3 C 92 % 1001,4 hPa 0,0 l/m 19,2 km/h (3 Bft) S 173 0 min 0,000 mm 0,0 UV-I 0 W/m 0,1 C -7,6 C 29,0 km/h (5 Bft) 100,00 %
10.02.2016 22:08 1,3 C 93 % 1001,4 hPa 0,0 l/m 14,8 km/h (3 Bft) SW 219 0 min 0,000 mm 0,0 UV-I 0 W/m 0,3 C -5,3 C 20,9 km/h (4 Bft) 100,00 %
10.02.2016 22:09 1,3 C 93 % 1001,4 hPa 0,0 l/m 12,3 km/h (3 Bft) SW 220 0 min 0,000 mm 0,0 UV-I 0 W/m 0,3 C -3,7 C 20,9 km/h (4 Bft) 100,00 %
10.02.2016 22:10 1,2 C 93 % 1001,4 hPa 0,0 l/m 15,6 km/h (3 Bft) S-SW 211 0 min 0,000 mm 0,0 UV-I 0 W/m 0,2 C -5,9 C 25,7 km/h (4 Bft) 100,00 %
10.02.2016 22:11 1,2 C 93 % 1001,4 hPa 0,2 l/m 19,5 km/h (3 Bft) S-SW 197 0 min 0,000 mm 0,0 UV-I 0 W/m 0,2 C -7,9 C 25,7 km/h (4 Bft) 100,00 %
10.02.2016 22:12 1,2 C 93 % 1001,4 hPa 0,0 l/m 18,7 km/h (3 Bft) SW 221 0 min 0,000 mm 0,0 UV-I 0 W/m 0,2 C -7,5 C 22,5 km/h (4 Bft) 100,00 %
10.02.2016 22:13 1,2 C 93 % 1001,4 hPa 0,0 l/m 19,4 km/h (3 Bft) W 261 0 min 0,000 mm 0,0 UV-I 0 W/m 0,2 C -7,8 C 30,6 km/h (5 Bft) 100,00 %
10.02.2016 22:14 1,2 C 93 % 1001,4 hPa 0,0 l/m 12,1 km/h (2 Bft) W 259 0 min 0,000 mm 0,0 UV-I 0 W/m 0,2 C -3,7 C 16,1 km/h (3 Bft) 93,10 %
10.02.2016 22:15 1,2 C 93 % 1001,4 hPa 0,0 l/m 17,1 km/h (3 Bft) SW 230 0 min 0,000 mm 0,0 UV-I 0 W/m 0,2 C -6,7 C 25,7 km/h (4 Bft) 100,00 %
10.02.2016 22:16 1,2 C 93 % 1001,4 hPa 0,0 l/m 20,0 km/h (4 Bft) S-SW 206 0 min 0,000 mm 0,0 UV-I 0 W/m 0,2 C -8,1 C 30,6 km/h (5 Bft) 96,15 %
10.02.2016 22:17 1,2 C 93 % 1001,4 hPa 0,0 l/m 20,2 km/h (4 Bft) S-SW 193 0 min 0,000 mm 0,0 UV-I 0 W/m 0,2 C -8,2 C 29,0 km/h (5 Bft) 100,00 %
10.02.2016 22:18 1,2 C 93 % 1001,4 hPa 0,0 l/m 17,4 km/h (3 Bft) S 170 0 min 0,000 mm 0,0 UV-I 0 W/m 0,2 C -6,8 C 24,1 km/h (4 Bft) 100,00 %
10.02.2016 22:19 1,2 C 93 % 1001,5 hPa 0,0 l/m 19,2 km/h (3 Bft) SW 229 0 min 0,000 mm 0,0 UV-I 0 W/m 0,2 C -7,7 C 25,7 km/h (4 Bft) 100,00 %
10.02.2016 22:20 1,2 C 93 % 1001,4 hPa 0,0 l/m 18,4 km/h (3 Bft) SW 224 0 min 0,000 mm 0,0 UV-I 0 W/m 0,2 C -7,3 C 25,7 km/h (4 Bft) 100,00 %
10.02.2016 22:21 1,2 C 93 % 1001,5 hPa 0,0 l/m 15,8 km/h (3 Bft) S 185 0 min 0,000 mm 0,0 UV-I 0 W/m 0,2 C -6,0 C 25,7 km/h (4 Bft) 100,00 %
10.02.2016 22:22 1,2 C 93 % 1001,4 hPa 0,0 l/m 18,4 km/h (3 Bft) S-SW 199 0 min 0,000 mm 0,0 UV-I 0 W/m 0,2 C -7,3 C 35,4 km/h (5 Bft) 100,00 %
10.02.2016 22:23 1,3 C 93 % 1001,4 hPa 0,0 l/m 16,1 km/h (3 Bft) SW 216 0 min 0,000 mm 0,0 UV-I 0 W/m 0,3 C -6,0 C 22,5 km/h (4 Bft) 100,00 %
10.02.2016 22:24 1,2 C 93 % 1001,4 hPa 0,0 l/m 16,6 km/h (3 Bft) W-SW 254 0 min 0,000 mm 0,0 UV-I 0 W/m 0,2 C -6,4 C 22,5 km/h (4 Bft) 100,00 %
10.02.2016 22:25 1,3 C 93 % 1001,4 hPa 0,0 l/m 18,2 km/h (3 Bft) SW 228 0 min 0,000 mm 0,0 UV-I 0 W/m 0,3 C -7,1 C 22,5 km/h (4 Bft) 100,00 %
10.02.2016 22:26 1,3 C 93 % 1001,4 hPa 0,0 l/m 13,5 km/h (3 Bft) S-SW 207 0 min 0,000 mm 0,0 UV-I 0 W/m 0,3 C -4,5 C 20,9 km/h (4 Bft) 100,00 %
10.02.2016 22:27 1,3 C 93 % 1001,4 hPa 0,0 l/m 19,4 km/h (3 Bft) SW 231 0 min 0,000 mm 0,0 UV-I 0 W/m 0,3 C -7,7 C 29,0 km/h (5 Bft) 100,00 %
10.02.2016 22:28 1,3 C 93 % 1001,4 hPa 0,0 l/m 20,8 km/h (4 Bft) SW 214 0 min 0,000 mm 0,0 UV-I 0 W/m 0,3 C -8,3 C 29,0 km/h (5 Bft) 96,67 %
10.02.2016 22:29 1,3 C 93 % 1001,5 hPa 0,0 l/m 18,7 km/h (3 Bft) SW 234 0 min 0,000 mm 0,0 UV-I 0 W/m 0,3 C -7,4 C 25,7 km/h (4 Bft) 96,15 %
10.02.2016 22:30 1,3 C 93 % 1001,5 hPa 0,0 l/m 17,1 km/h (3 Bft) W-SW 238 0 min 0,000 mm 0,0 UV-I 0 W/m 0,3 C -6,6 C 24,1 km/h (4 Bft) 100,00 %
10.02.2016 22:31 1,3 C 93 % 1001,5 hPa 0,0 l/m 21,6 km/h (4 Bft) SW 235 0 min 0,000 mm 0,0 UV-I 0 W/m 0,3 C -8,6 C 27,4 km/h (4 Bft) 96,55 %
10.02.2016 22:32 1,3 C 93 % 1001,5 hPa 0,0 l/m 17,9 km/h (3 Bft) W-SW 254 0 min 0,000 mm 0,0 UV-I 0 W/m 0,3 C -7,0 C 25,7 km/h (4 Bft) 96,30 %
10.02.2016 22:33 1,4 C 93 % 1001,5 hPa 0,0 l/m 25,3 km/h (4 Bft) SW 221 0 min 0,000 mm 0,0 UV-I 0 W/m 0,4 C -9,9 C 37,0 km/h (5 Bft) 96,15 %
10.02.2016 22:34 1,4 C 93 % 1001,5 hPa 0,0 l/m 17,3 km/h (3 Bft) W-SW 238 0 min 0,000 mm 0,0 UV-I 0 W/m 0,4 C -6,5 C 24,1 km/h (4 Bft) 100,00 %
10.02.2016 22:35 1,4 C 93 % 1001,5 hPa 0,0 l/m 16,1 km/h (3 Bft) SW 219 0 min 0,000 mm 0,0 UV-I 0 W/m 0,4 C -5,9 C 27,4 km/h (4 Bft) 95,65 %
10.02.2016 22:36 1,4 C 93 % 1001,6 hPa 0,0 l/m 13,0 km/h (3 Bft) W-SW 254 0 min 0,000 mm 0,0 UV-I 0 W/m 0,4 C -4,1 C 19,3 km/h (3 Bft) 95,83 %
10.02.2016 22:37 1,4 C 92 % 1001,5 hPa 0,0 l/m 23,5 km/h (4 Bft) SW 224 0 min 0,000 mm 0,0 UV-I 0 W/m 0,2 C -9,3 C 37,0 km/h (5 Bft) 91,30 %
10.02.2016 22:38 1,4 C 92 % 1001,5 hPa 0,0 l/m 17,7 km/h (3 Bft) SW 223 0 min 0,000 mm 0,0 UV-I 0 W/m 0,2 C -6,7 C 30,6 km/h (5 Bft) 100,00 %
10.02.2016 22:39 1,5 C 92 % 1001,5 hPa 0,0 l/m 16,9 km/h (3 Bft) SW 221 0 min 0,000 mm 0,0 UV-I 0 W/m 0,3 C -6,2 C 29,0 km/h (5 Bft) 91,67 %
10.02.2016 22:40 1,5 C 92 % 1001,5 hPa 0,0 l/m 22,1 km/h (4 Bft) SW 230 0 min 0,000 mm 0,0 UV-I 0 W/m 0,3 C -8,6 C 32,2 km/h (5 Bft) 97,37 %
10.02.2016 22:41 1,5 C 92 % 1001,6 hPa 0,0 l/m 21,7 km/h (4 Bft) SW 234 0 min 0,000 mm 0,0 UV-I 0 W/m 0,3 C -8,4 C 30,6 km/h (5 Bft) 100,00 %
10.02.2016 22:42 1,6 C 91 % 1001,5 hPa 0,0 l/m 20,6 km/h (4 Bft) W-SW 251 0 min 0,000 mm 0,0 UV-I 0 W/m 0,3 C -7,8 C 29,0 km/h (5 Bft) 96,55 %
10.02.2016 22:43 1,6 C 91 % 1001,6 hPa 0,0 l/m 19,3 km/h (3 Bft) SW 231 0 min 0,000 mm 0,0 UV-I 0 W/m 0,3 C -7,2 C 25,7 km/h (4 Bft) 100,00 %
10.02.2016 22:44 1,6 C 91 % 1001,6 hPa 0,0 l/m 17,4 km/h (3 Bft) W-SW 245 0 min 0,000 mm 0,0 UV-I 0 W/m 0,3 C -6,3 C 25,7 km/h (4 Bft) 96,15 %
10.02.2016 22:45 1,7 C 91 % 1001,5 hPa 0,0 l/m 21,2 km/h (4 Bft) S-SW 205 0 min 0,000 mm 0,0 UV-I 0 W/m 0,4 C -8,0 C 33,8 km/h (5 Bft) 100,00 %
10.02.2016 22:46 1,7 C 91 % 1001,5 hPa 0,0 l/m 19,3 km/h (3 Bft) W 271 0 min 0,000 mm 0,0 UV-I 0 W/m 0,4 C -7,1 C 27,4 km/h (4 Bft) 96,15 %
10.02.2016 22:47 1,7 C 90 % 1001,6 hPa 0,0 l/m 20,9 km/h (4 Bft) W-SW 256 0 min 0,000 mm 0,0 UV-I 0 W/m 0,2 C -7,8 C 29,0 km/h (5 Bft) 100,00 %
10.02.2016 22:48 1,7 C 90 % 1001,5 hPa 0,0 l/m 25,4 km/h (4 Bft) SW 235 0 min 0,000 mm 0,0 UV-I 0 W/m 0,2 C -9,6 C 30,6 km/h (5 Bft) 93,33 %
10.02.2016 22:49 1,7 C 90 % 1001,6 hPa 0,0 l/m 18,3 km/h (3 Bft) W 266 0 min 0,000 mm 0,0 UV-I 0 W/m 0,2 C -6,7 C 22,5 km/h (4 Bft) 96,77 %
10.02.2016 22:50 1,8 C 90 % 1001,6 hPa 0,0 l/m 21,2 km/h (4 Bft) SW 233 0 min 0,000 mm 0,0 UV-I 0 W/m 0,3 C -7,8 C 30,6 km/h (5 Bft) 96,55 %
10.02.2016 22:51 1,8 C 90 % 1001,7 hPa 0,0 l/m 17,4 km/h (3 Bft) W-SW 244 0 min 0,000 mm 0,0 UV-I 0 W/m 0,3 C -6,1 C 22,5 km/h (4 Bft) 95,83 %
10.02.2016 22:52 1,8 C 89 % 1001,7 hPa 0,0 l/m 28,7 km/h (4 Bft) W-SW 244 0 min 0,000 mm 0,0 UV-I 0 W/m 0,2 C -10,5 C 33,8 km/h (5 Bft) 96,15 %
10.02.2016 22:53 1,8 C 89 % 1001,7 hPa 0,0 l/m 21,6 km/h (4 Bft) W-SW 251 0 min 0,000 mm 0,0 UV-I 0 W/m 0,2 C -8,0 C 29,0 km/h (5 Bft) 95,83 %
10.02.2016 22:54 1,9 C 89 % 1001,7 hPa 0,0 l/m 24,5 km/h (4 Bft) S-SW 211 0 min 0,000 mm 0,0 UV-I 0 W/m 0,3 C -9,0 C 32,2 km/h (5 Bft) 100,00 %
10.02.2016 22:55 1,9 C 88 % 1001,7 hPa 0,0 l/m 25,5 km/h (4 Bft) W-SW 251 0 min 0,000 mm 0,0 UV-I 0 W/m 0,1 C -9,3 C 37,0 km/h (5 Bft) 96,30 %
10.02.2016 22:56 1,9 C 88 % 1001,7 hPa 0,0 l/m 27,5 km/h (4 Bft) W-SW 245 0 min 0,000 mm 0,0 UV-I 0 W/m 0,1 C -10,0 C 38,6 km/h (5 Bft) 96,55 %
10.02.2016 22:57 1,9 C 88 % 1001,9 hPa 0,0 l/m 19,4 km/h (3 Bft) SW 227 0 min 0,000 mm 0,0 UV-I 0 W/m 0,1 C -6,9 C 25,7 km/h (4 Bft) 100,00 %
10.02.2016 22:58 2,0 C 88 % 1001,8 hPa 0,0 l/m 17,2 km/h (3 Bft) W-SW 256 0 min 0,000 mm 0,0 UV-I 0 W/m 0,2 C -5,7 C 22,5 km/h (4 Bft) 100,00 %
10.02.2016 22:59 2,0 C 88 % 1001,9 hPa 0,0 l/m 18,0 km/h (3 Bft) S-SW 211 0 min 0,000 mm 0,0 UV-I 0 W/m 0,2 C -6,1 C 29,0 km/h (5 Bft) 90,91 %
10.02.2016 23:00 2,0 C 88 % 1001,9 hPa 0,0 l/m 27,7 km/h (4 Bft) W-SW 250 0 min 0,000 mm 0,0 UV-I 0 W/m 0,2 C -9,9 C 32,2 km/h (5 Bft) 97,73 %
10.02.2016 23:01 2,0 C 88 % 1001,9 hPa 0,0 l/m 19,1 km/h (3 Bft) W-SW 248 0 min 0,025 mm 0,0 UV-I 0 W/m 0,2 C -6,6 C 24,1 km/h (4 Bft) 100,00 %
10.02.2016 23:05 2,0 C 88 % 1001,8 hPa 0,0 l/m 22,5 km/h (4 Bft) W-SW 247 0 min 0,000 mm 0,0 UV-I 0 W/m 0,2 C -8,1 C 46,7 km/h (6 Bft) 99,12 %
10.02.2016 23:07 2,0 C 87 % 1002,0 hPa 0,0 l/m 25,7 km/h (4 Bft) SW 235 0 min 0,000 mm 0,0 UV-I 0 W/m 0,1 C -9,3 C 29,0 km/h (5 Bft) 100,00 %
10.02.2016 23:08 2,0 C 87 % 1001,9 hPa 0,0 l/m 22,5 km/h (4 Bft) W-SW 242 0 min 0,000 mm 0,0 UV-I 0 W/m 0,1 C -8,1 C 30,6 km/h (5 Bft) 100,00 %
10.02.2016 23:09 2,1 C 87 % 1001,9 hPa 0,0 l/m 26,5 km/h (4 Bft) W-SW 238 0 min 0,000 mm 0,0 UV-I 0 W/m 0,2 C -9,4 C 35,4 km/h (5 Bft) 97,62 %
10.02.2016 23:10 2,1 C 87 % 1002,0 hPa 0,0 l/m 25,7 km/h (4 Bft) SW 225 0 min 0,000 mm 0,0 UV-I 0 W/m 0,2 C -9,1 C 38,6 km/h (5 Bft) 100,00 %
10.02.2016 23:11 2,1 C 87 % 1002,1 hPa 0,0 l/m 24,5 km/h (4 Bft) SW 223 0 min 0,000 mm 0,0 UV-I 0 W/m 0,2 C -8,7 C 32,2 km/h (5 Bft) 100,00 %
10.02.2016 23:12 2,1 C 87 % 1002,0 hPa 0,0 l/m 17,6 km/h (3 Bft) W 279 0 min 0,000 mm 0,0 UV-I 0 W/m 0,2 C -5,8 C 24,1 km/h (4 Bft) 100,00 %
10.02.2016 23:13 2,1 C 87 % 1002,0 hPa 0,0 l/m 25,5 km/h (4 Bft) S-SW 197 0 min 0,000 mm 0,0 UV-I 0 W/m 0,2 C -9,0 C 41,8 km/h (6 Bft) 100,00 %
10.02.2016 23:14 2,1 C 87 % 1002,0 hPa 0,0 l/m 24,4 km/h (4 Bft) S-SW 204 0 min 0,000 mm 0,0 UV-I 0 W/m 0,2 C -8,7 C 38,6 km/h (5 Bft) 100,00 %
10.02.2016 23:15 2,1 C 87 % 1002,0 hPa 0,0 l/m 25,3 km/h (4 Bft) SW 220 0 min 0,000 mm 0,0 UV-I 0 W/m 0,2 C -9,0 C 32,2 km/h (5 Bft) 100,00 %
10.02.2016 23:16 2,1 C 87 % 1002,1 hPa 0,0 l/m 21,5 km/h (4 Bft) S-SW 212 0 min 0,000 mm 0,0 UV-I 0 W/m 0,2 C -7,6 C 30,6 km/h (5 Bft) 100,00 %
10.02.2016 23:17 2,1 C 87 % 1002,1 hPa 0,0 l/m 21,0 km/h (4 Bft) W 275 0 min 0,000 mm 0,0 UV-I 0 W/m 0,2 C -7,3 C 33,8 km/h (5 Bft) 100,00 %
10.02.2016 23:18 2,1 C 87 % 1002,1 hPa 0,0 l/m 22,5 km/h (4 Bft) SW 224 0 min 0,000 mm 0,0 UV-I 0 W/m 0,2 C -8,0 C 29,0 km/h (5 Bft) 100,00 %
10.02.2016 23:19 2,0 C 87 % 1002,1 hPa 0,0 l/m 19,9 km/h (4 Bft) W-SW 250 0 min 0,000 mm 0,0 UV-I 0 W/m 0,1 C -7,0 C 25,7 km/h (4 Bft) 100,00 %
10.02.2016 23:20 2,1 C 87 % 1002,2 hPa 0,0 l/m 16,2 km/h (3 Bft) W-SW 244 0 min 0,000 mm 0,0 UV-I 0 W/m 0,2 C -5,1 C 24,1 km/h (4 Bft) 100,00 %
10.02.2016 23:21 2,0 C 87 % 1002,2 hPa 0,0 l/m 20,8 km/h (4 Bft) W-SW 255 0 min 0,000 mm 0,0 UV-I 0 W/m 0,1 C -7,4 C 29,0 km/h (5 Bft) 100,00 %
10.02.2016 23:22 2,0 C 87 % 1002,1 hPa 0,0 l/m 20,2 km/h (4 Bft) SW 227 0 min 0,000 mm 0,0 UV-I 0 W/m 0,1 C -7,1 C 25,7 km/h (4 Bft) 100,00 %
10.02.2016 23:23 2,0 C 87 % 1002,1 hPa 0,0 l/m 24,8 km/h (4 Bft) W-SW 246 0 min 0,000 mm 0,0 UV-I 0 W/m 0,1 C -8,9 C 35,4 km/h (5 Bft) 100,00 %
10.02.2016 23:24 2,0 C 87 % 1002,1 hPa 0,0 l/m 26,4 km/h (4 Bft) S-SW 213 0 min 0,000 mm 0,0 UV-I 0 W/m 0,1 C -9,5 C 37,0 km/h (5 Bft) 100,00 %
10.02.2016 23:25 2,0 C 87 % 1002,2 hPa 0,0 l/m 26,9 km/h (4 Bft) S-SW 205 0 min 0,000 mm 0,0 UV-I 0 W/m 0,1 C -9,6 C 33,8 km/h (5 Bft) 100,00 %
10.02.2016 23:26 2,0 C 87 % 1002,1 hPa 0,0 l/m 20,3 km/h (4 Bft) W-NW 302 0 min 0,000 mm 0,0 UV-I 0 W/m 0,1 C -7,2 C 27,4 km/h (4 Bft) 100,00 %
10.02.2016 23:27 2,0 C 87 % 1002,1 hPa 0,0 l/m 18,5 km/h (3 Bft) SW 227 0 min 0,000 mm 0,0 UV-I 0 W/m 0,1 C -6,4 C 27,4 km/h (4 Bft) 100,00 %
10.02.2016 23:28 1,9 C 87 % 1002,1 hPa 0,0 l/m 23,9 km/h (4 Bft) W-SW 241 0 min 0,000 mm 0,0 UV-I 0 W/m -0,0 C -8,7 C 33,8 km/h (5 Bft) 100,00 %
10.02.2016 23:29 1,9 C 87 % 1002,1 hPa 0,0 l/m 22,4 km/h (4 Bft) W-SW 246 0 min 0,000 mm 0,0 UV-I 0 W/m -0,0 C -8,2 C 41,8 km/h (6 Bft) 100,00 %
10.02.2016 23:30 1,9 C 87 % 1002,1 hPa 0,0 l/m 19,3 km/h (3 Bft) SW 227 0 min 0,000 mm 0,0 UV-I 0 W/m -0,0 C -6,9 C 24,1 km/h (4 Bft) 100,00 %
10.02.2016 23:31 1,9 C 87 % 1002,2 hPa 0,0 l/m 24,6 km/h (4 Bft) SW 229 0 min 0,000 mm 0,0 UV-I 0 W/m -0,0 C -9,0 C 32,2 km/h (5 Bft) 100,00 %
10.02.2016 23:32 1,9 C 87 % 1002,2 hPa 0,0 l/m 22,4 km/h (4 Bft) W-SW 241 0 min 0,000 mm 0,0 UV-I 0 W/m -0,0 C -8,2 C 30,6 km/h (5 Bft) 100,00 %
10.02.2016 23:33 1,9 C 87 % 1002,2 hPa 0,0 l/m 22,3 km/h (4 Bft) W-SW 241 0 min 0,000 mm 0,0 UV-I 0 W/m -0,0 C -8,1 C 32,2 km/h (5 Bft) 96,15 %
10.02.2016 23:34 1,9 C 87 % 1002,2 hPa 0,0 l/m 18,3 km/h (3 Bft) W-SW 255 0 min 0,000 mm 0,0 UV-I 0 W/m -0,0 C -6,4 C 24,1 km/h (4 Bft) 96,30 %
10.02.2016 23:35 1,9 C 87 % 1002,2 hPa 0,0 l/m 19,0 km/h (3 Bft) W 267 0 min 0,000 mm 0,0 UV-I 0 W/m -0,0 C -6,7 C 27,4 km/h (4 Bft) 100,00 %
10.02.2016 23:36 1,9 C 87 % 1002,2 hPa 0,0 l/m 29,0 km/h (5 Bft) SW 230 0 min 0,000 mm 0,0 UV-I 0 W/m -0,0 C -10,4 C 37,0 km/h (5 Bft) 100,00 %
10.02.2016 23:37 1,9 C 87 % 1002,1 hPa 0,0 l/m 19,0 km/h (3 Bft) SW 228 0 min 0,000 mm 0,0 UV-I 0 W/m -0,0 C -6,7 C 22,5 km/h (4 Bft) 100,00 %
10.02.2016 23:38 1,9 C 87 % 1002,2 hPa 0,0 l/m 25,3 km/h (4 Bft) SW 219 0 min 0,000 mm 0,0 UV-I 0 W/m -0,0 C -9,2 C 43,5 km/h (6 Bft) 100,00 %
10.02.2016 23:39 1,9 C 87 % 1002,1 hPa 0,0 l/m 25,5 km/h (4 Bft) S-SW 196 0 min 0,000 mm 0,0 UV-I 0 W/m -0,0 C -9,3 C 33,8 km/h (5 Bft) 95,65 %
10.02.2016 23:40 1,9 C 87 % 1002,2 hPa 0,0 l/m 21,5 km/h (4 Bft) W-SW 247 0 min 0,000 mm 0,0 UV-I 0 W/m -0,0 C -7,8 C 33,8 km/h (5 Bft) 100,00 %
10.02.2016 23:41 1,9 C 87 % 1002,2 hPa 0,0 l/m 19,6 km/h (3 Bft) SW 225 0 min 0,000 mm 0,0 UV-I 0 W/m -0,0 C -7,0 C 30,6 km/h (5 Bft) 100,00 %
10.02.2016 23:42 1,9 C 87 % 1002,3 hPa 0,0 l/m 27,5 km/h (4 Bft) W 264 0 min 0,000 mm 0,0 UV-I 0 W/m -0,0 C -10,0 C 38,6 km/h (5 Bft) 98,52 %
10.02.2016 23:43 1,9 C 87 % 1002,2 hPa 0,0 l/m 19,4 km/h (3 Bft) SW 222 0 min 0,000 mm 0,0 UV-I 0 W/m -0,0 C -6,9 C 30,6 km/h (5 Bft) 100,00 %
10.02.2016 23:44 1,9 C 87 % 1002,3 hPa 0,0 l/m 21,4 km/h (4 Bft) SW 220 0 min 0,000 mm 0,0 UV-I 0 W/m -0,0 C -7,8 C 27,4 km/h (4 Bft) 100,00 %
10.02.2016 23:45 1,9 C 87 % 1002,3 hPa 0,0 l/m 21,2 km/h (4 Bft) W-SW 246 0 min 0,000 mm 0,0 UV-I 0 W/m -0,0 C -7,7 C 25,7 km/h (4 Bft) 100,00 %
10.02.2016 23:46 1,9 C 87 % 1002,1 hPa 0,0 l/m 20,3 km/h (4 Bft) SW 234 0 min 0,000 mm 0,0 UV-I 0 W/m -0,0 C -7,3 C 29,0 km/h (5 Bft) 100,00 %
10.02.2016 23:47 1,9 C 87 % 1002,2 hPa 0,0 l/m 30,0 km/h (5 Bft) SW 221 0 min 0,000 mm 0,0 UV-I 0 W/m -0,0 C -10,7 C 38,6 km/h (5 Bft) 100,00 %
10.02.2016 23:48 1,9 C 87 % 1002,3 hPa 0,0 l/m 18,6 km/h (3 Bft) S-SW 205 0 min 0,000 mm 0,0 UV-I 0 W/m -0,0 C -6,5 C 27,4 km/h (4 Bft) 100,00 %
10.02.2016 23:49 1,9 C 87 % 1002,3 hPa 0,0 l/m 21,5 km/h (4 Bft) SW 230 0 min 0,000 mm 0,0 UV-I 0 W/m -0,0 C -7,8 C 27,4 km/h (4 Bft) 96,30 %
10.02.2016 23:50 1,9 C 87 % 1002,2 hPa 0,0 l/m 24,5 km/h (4 Bft) SW 226 0 min 0,000 mm 0,0 UV-I 0 W/m -0,0 C -9,0 C 37,0 km/h (5 Bft) 100,00 %
10.02.2016 23:51 1,9 C 87 % 1002,2 hPa 0,0 l/m 21,3 km/h (4 Bft) W-SW 244 0 min 0,000 mm 0,0 UV-I 0 W/m -0,0 C -7,7 C 27,4 km/h (4 Bft) 100,00 %
10.02.2016 23:52 1,9 C 87 % 1002,3 hPa 0,0 l/m 20,4 km/h (4 Bft) SW 223 0 min 0,000 mm 0,0 UV-I 0 W/m -0,0 C -7,4 C 29,0 km/h (5 Bft) 100,00 %
10.02.2016 23:53 1,9 C 87 % 1002,3 hPa 0,0 l/m 18,4 km/h (3 Bft) W-SW 242 0 min 0,000 mm 0,0 UV-I 0 W/m -0,0 C -6,4 C 22,5 km/h (4 Bft) 100,00 %
10.02.2016 23:54 1,9 C 87 % 1002,3 hPa 0,0 l/m 21,0 km/h (4 Bft) SW 222 0 min 0,000 mm 0,0 UV-I 0 W/m -0,0 C -7,6 C 27,4 km/h (4 Bft) 95,65 %
10.02.2016 23:55 1,9 C 87 % 1002,3 hPa 0,0 l/m 18,9 km/h (3 Bft) SW 217 0 min 0,000 mm 0,0 UV-I 0 W/m -0,0 C -6,7 C 27,4 km/h (4 Bft) 100,00 %
10.02.2016 23:56 1,9 C 87 % 1002,2 hPa 0,0 l/m 18,3 km/h (3 Bft) W-SW 247 0 min 0,000 mm 0,0 UV-I 0 W/m -0,0 C -6,4 C 24,1 km/h (4 Bft) 100,00 %
10.02.2016 23:57 1,9 C 87 % 1002,3 hPa 0,0 l/m 18,7 km/h (3 Bft) SW 215 0 min 0,000 mm 0,0 UV-I 0 W/m -0,0 C -6,6 C 27,4 km/h (4 Bft) 100,00 %
10.02.2016 23:58 1,9 C 86 % 1002,2 hPa 0,0 l/m 26,5 km/h (4 Bft) W-SW 251 0 min 0,000 mm 0,0 UV-I 0 W/m -0,2 C -9,7 C 38,6 km/h (5 Bft) 100,00 %
10.02.2016 23:59 1,9 C 86 % 1002,2 hPa 0,0 l/m 25,2 km/h (4 Bft) S-SW 210 0 min 0,000 mm 0,0 UV-I 0 W/m -0,2 C -9,2 C 32,2 km/h (5 Bft) 96,30 %
_ Min-Zeit 22:09 00:00 00:00 - 10:15 - - - - - - 20:25 21:10 15:49 06:25
Minimum _ 1,2 C 74 % 992,8 hPa - 5,0 km/h (1 Bft) - - - - - - -0,5 C -10,8 C 8,0 km/h (2 Bft) 83,33 %
_ Max-Zeit 00:00 05:21 23:42 00:01 00:04 - - 14:55 14:00 13:17 14:59 00:00 15:49 00:07 00:01
Maximum _ 9,2 C 95 % 1002,3 hPa 0,2 l/m 33,2 km/h
W-SW (5 Bft)
- - 1 min 0,076 mm 0,6 UV-I 275 W/m 4,4 C 3,6 C 56,3 km/h
W (7 Bft)
100,00 %
Durchschnitt _ 2,8 C 88 % 996,9 hPa #10,2 l/m 16,9 km/h (3 Bft) W-SW - #15 min. #0,660 mm 0,5 UV-I 73 W/m 1,0 C -4,3 C 24,0 km/h (4 Bft) 98,49 %